[[{"header":{"parameterUnit":"m.s-1","parameterCategory":1,"la1":30.6,"la2":29.2853,"lo1":-89.7004,"lo2":-87.6739,"dy":0.0162,"dx":0.0183,"nx":112,"ny":82,"refTime":"2024-04-16T06:00:00:Z","depth":0,"parameterNumber":2,"parameterNumberName":"U-component_of_WINDS"},"data":[0.0,0.0,0.0,0.0,0.0,0.0,0.0,0.0,0.0,0.0,0.0,0.0,0.0,0.0,0.0,0.0,0.0,0.0,0.0,0.0,0.0,0.0,0.0,0.0,0.0,0.0,0.0,0.0,0.0,0.0,0.0,0.0,0.0,0.0,0.0,0.0,0.0,0.0,0.0,0.0,0.0,0.0,0.0,0.0,0.0,0.0,0.0,0.0,0.0,0.0,0.0,0.0,0.0,0.0,0.0,0.0,0.0,0.0,0.0,0.0,0.0,0.0,0.0,0.0,0.0,0.0,0.0,0.0,0.0,0.0,0.0,0.0,0.0,0.0,0.0,0.0,0.0,0.0,0.0,0.0,0.0,0.0,0.0,0.0,0.0,0.0,0.0,0.0,0.0,0.0,-4.8306,-4.8306,-4.8306,-4.8306,-4.8306,-4.8306,-4.8267,-4.8172,0.0,0.0,0.0,0.0,0.0,0.0,0.0,0.0,0.0,0.0,0.0,0.0,0.0,0.0,0.0,0.0,0.0,0.0,0.0,0.0,0.0,0.0,0.0,0.0,0.0,0.0,0.0,0.0,0.0,0.0,0.0,0.0,0.0,0.0,0.0,0.0,0.0,0.0,0.0,0.0,0.0,0.0,0.0,0.0,0.0,0.0,0.0,0.0,0.0,0.0,0.0,0.0,0.0,0.0,0.0,0.0,0.0,0.0,0.0,0.0,0.0,0.0,0.0,0.0,0.0,0.0,0.0,0.0,0.0,0.0,0.0,0.0,0.0,0.0,0.0,0.0,0.0,0.0,0.0,0.0,0.0,0.0,0.0,0.0,0.0,0.0,0.0,0.0,0.0,0.0,0.0,0.0,0.0,0.0,0.0,0.0,0.0,0.0,0.0,0.0,0.0,0.0,0.0,0.0,-4.8306,-4.8306,-4.8306,-4.8306,-4.8306,-4.8306,-4.8075,-4.7572,0.0,0.0,0.0,0.0,0.0,0.0,0.0,0.0,0.0,0.0,0.0,0.0,0.0,0.0,0.0,0.0,0.0,0.0,0.0,0.0,0.0,0.0,0.0,0.0,0.0,0.0,0.0,0.0,0.0,0.0,0.0,0.0,0.0,0.0,0.0,0.0,0.0,0.0,0.0,0.0,0.0,0.0,0.0,0.0,0.0,0.0,0.0,0.0,0.0,0.0,0.0,0.0,0.0,0.0,0.0,0.0,0.0,0.0,0.0,0.0,0.0,0.0,0.0,0.0,0.0,0.0,0.0,0.0,0.0,0.0,0.0,0.0,0.0,0.0,0.0,0.0,0.0,0.0,0.0,0.0,0.0,0.0,0.0,0.0,0.0,0.0,0.0,0.0,0.0,0.0,0.0,0.0,0.0,0.0,0.0,0.0,0.0,0.0,0.0,0.0,0.0,0.0,0.0,-4.8306,-4.8306,-4.8306,-4.8306,-4.8306,-4.8306,-4.8306,-4.8055,-4.7446,-4.7656,0.0,0.0,0.0,0.0,0.0,0.0,0.0,0.0,0.0,0.0,0.0,0.0,0.0,0.0,0.0,0.0,0.0,0.0,0.0,0.0,0.0,0.0,0.0,0.0,0.0,0.0,0.0,0.0,0.0,0.0,0.0,0.0,0.0,0.0,0.0,0.0,0.0,0.0,0.0,0.0,0.0,0.0,0.0,0.0,0.0,0.0,0.0,0.0,0.0,0.0,0.0,0.0,0.0,0.0,0.0,0.0,0.0,0.0,0.0,0.0,0.0,0.0,0.0,0.0,0.0,0.0,0.0,0.0,0.0,0.0,0.0,0.0,0.0,0.0,0.0,0.0,0.0,0.0,0.0,0.0,0.0,0.0,0.0,0.0,0.0,0.0,0.0,0.0,0.0,0.0,0.0,0.0,0.0,0.0,0.0,0.0,0.0,0.0,0.0,0.0,0.0,0.0,-4.7737,-4.7737,-4.7737,-4.7737,-4.7737,-4.7737,-4.7737,-4.7503,-4.6928,-4.6723,0.0,0.0,0.0,0.0,0.0,0.0,0.0,0.0,0.0,0.0,0.0,0.0,0.0,0.0,0.0,0.0,0.0,0.0,0.0,0.0,0.0,0.0,0.0,0.0,0.0,0.0,0.0,0.0,0.0,0.0,0.0,0.0,0.0,0.0,0.0,0.0,0.0,0.0,0.0,0.0,0.0,0.0,0.0,0.0,0.0,0.0,0.0,0.0,0.0,0.0,0.0,0.0,0.0,0.0,0.0,0.0,0.0,0.0,0.0,0.0,0.0,0.0,0.0,0.0,0.0,0.0,0.0,0.0,0.0,0.0,0.0,0.0,0.0,0.0,0.0,0.0,0.0,0.0,0.0,0.0,0.0,0.0,0.0,0.0,0.0,0.0,0.0,0.0,0.0,0.0,0.0,0.0,0.0,0.0,0.0,0.0,0.0,0.0,0.0,0.0,0.0,0.0,-4.6067,-4.6067,-4.6067,-4.6067,-4.6067,-4.6067,-4.6067,-4.585,-4.5372,-4.4706,0.0,0.0,0.0,0.0,0.0,0.0,0.0,0.0,0.0,0.0,0.0,0.0,0.0,0.0,0.0,0.0,0.0,0.0,0.0,0.0,0.0,0.0,0.0,0.0,0.0,0.0,0.0,0.0,0.0,0.0,0.0,0.0,0.0,0.0,0.0,0.0,0.0,0.0,0.0,0.0,0.0,0.0,0.0,0.0,0.0,0.0,0.0,0.0,0.0,0.0,0.0,0.0,0.0,0.0,0.0,0.0,0.0,0.0,0.0,0.0,0.0,0.0,0.0,0.0,0.0,0.0,0.0,0.0,0.0,0.0,0.0,0.0,0.0,0.0,0.0,0.0,0.0,0.0,0.0,0.0,0.0,0.0,0.0,0.0,0.0,0.0,0.0,0.0,0.0,0.0,0.0,0.0,0.0,0.0,0.0,0.0,0.0,0.0,0.0,0.0,0.0,0.0,-4.5902,-4.5902,0.0,-4.5902,-4.5902,-4.5902,-4.5902,-4.5504,-4.4564,0.0,0.0,0.0,0.0,0.0,0.0,0.0,0.0,0.0,0.0,0.0,0.0,0.0,0.0,0.0,0.0,0.0,0.0,0.0,0.0,0.0,0.0,0.0,0.0,0.0,0.0,0.0,0.0,0.0,0.0,0.0,0.0,0.0,0.0,0.0,0.0,0.0,0.0,0.0,0.0,0.0,0.0,0.0,0.0,0.0,0.0,0.0,0.0,0.0,0.0,0.0,0.0,0.0,0.0,0.0,0.0,0.0,0.0,0.0,0.0,0.0,0.0,0.0,0.0,0.0,0.0,0.0,0.0,0.0,0.0,0.0,0.0,0.0,0.0,0.0,0.0,0.0,0.0,0.0,0.0,0.0,0.0,0.0,0.0,0.0,0.0,0.0,0.0,0.0,0.0,0.0,0.0,0.0,0.0,0.0,0.0,0.0,0.0,0.0,0.0,0.0,0.0,-4.5131,-4.5131,-4.5131,0.0,-4.5131,-4.5131,-4.5131,-4.5131,-4.4741,-4.3767,0.0,0.0,0.0,0.0,0.0,0.0,0.0,0.0,0.0,0.0,0.0,0.0,0.0,0.0,0.0,0.0,0.0,0.0,0.0,0.0,0.0,0.0,0.0,0.0,0.0,0.0,0.0,0.0,0.0,0.0,0.0,0.0,0.0,0.0,0.0,0.0,0.0,0.0,0.0,0.0,0.0,0.0,0.0,0.0,0.0,0.0,0.0,0.0,0.0,0.0,0.0,0.0,0.0,0.0,0.0,0.0,0.0,0.0,0.0,0.0,0.0,0.0,0.0,0.0,0.0,0.0,0.0,0.0,0.0,0.0,0.0,0.0,0.0,0.0,0.0,0.0,0.0,0.0,0.0,0.0,0.0,0.0,0.0,0.0,0.0,0.0,0.0,0.0,0.0,0.0,0.0,0.0,0.0,0.0,0.0,0.0,0.0,0.0,0.0,0.0,0.0,0.0,-4.3515,-4.3515,-4.3515,-4.3515,-4.3515,-4.3515,-4.3515,-4.3515,-4.3323,0.0,0.0,0.0,0.0,0.0,0.0,0.0,0.0,0.0,0.0,0.0,0.0,0.0,0.0,0.0,0.0,0.0,0.0,0.0,0.0,0.0,0.0,0.0,0.0,0.0,0.0,0.0,0.0,0.0,0.0,0.0,0.0,0.0,0.0,0.0,0.0,0.0,0.0,0.0,0.0,0.0,0.0,0.0,0.0,0.0,0.0,0.0,0.0,0.0,0.0,0.0,0.0,0.0,0.0,0.0,0.0,0.0,0.0,0.0,0.0,0.0,0.0,0.0,0.0,0.0,0.0,0.0,0.0,0.0,0.0,0.0,0.0,0.0,0.0,0.0,0.0,0.0,0.0,0.0,0.0,0.0,0.0,0.0,0.0,0.0,0.0,0.0,0.0,0.0,0.0,0.0,0.0,0.0,0.0,0.0,0.0,0.0,0.0,0.0,0.0,0.0,0.0,0.0,-4.3515,-4.3515,-4.3515,-4.3515,-4.3515,-4.3515,-4.3515,-4.3515,-4.3105,-4.2175,0.0,0.0,0.0,0.0,0.0,0.0,0.0,0.0,0.0,0.0,0.0,0.0,0.0,0.0,0.0,0.0,0.0,0.0,0.0,0.0,0.0,0.0,0.0,0.0,0.0,0.0,0.0,0.0,0.0,0.0,0.0,0.0,0.0,0.0,0.0,0.0,0.0,0.0,0.0,0.0,0.0,0.0,0.0,0.0,0.0,0.0,0.0,0.0,0.0,0.0,0.0,0.0,0.0,0.0,0.0,0.0,0.0,0.0,0.0,0.0,0.0,0.0,0.0,0.0,0.0,0.0,0.0,0.0,0.0,0.0,0.0,0.0,0.0,0.0,0.0,0.0,0.0,0.0,0.0,0.0,0.0,0.0,0.0,0.0,0.0,0.0,0.0,0.0,0.0,0.0,0.0,0.0,0.0,0.0,0.0,0.0,0.0,0.0,0.0,0.0,0.0,0.0,-4.3515,-4.3515,-4.3515,-4.3515,-4.3515,-4.3515,-4.3515,-4.3515,-4.3124,-4.2203,0.0,0.0,0.0,0.0,0.0,0.0,0.0,0.0,0.0,0.0,0.0,0.0,0.0,0.0,0.0,0.0,0.0,0.0,0.0,0.0,0.0,0.0,0.0,0.0,0.0,0.0,0.0,0.0,0.0,0.0,0.0,0.0,0.0,0.0,0.0,0.0,0.0,0.0,0.0,0.0,0.0,0.0,0.0,0.0,0.0,0.0,0.0,0.0,0.0,0.0,0.0,0.0,0.0,0.0,0.0,0.0,0.0,0.0,0.0,0.0,0.0,0.0,0.0,0.0,0.0,0.0,0.0,0.0,0.0,0.0,0.0,0.0,0.0,0.0,0.0,0.0,0.0,0.0,0.0,0.0,0.0,0.0,0.0,0.0,0.0,0.0,0.0,0.0,0.0,0.0,0.0,0.0,0.0,0.0,0.0,0.0,0.0,0.0,0.0,0.0,0.0,0.0,-4.3515,-4.3515,-4.3515,-4.3515,-4.3515,-4.3515,-4.3515,-4.3515,-4.3268,-4.2713,0.0,0.0,0.0,0.0,0.0,0.0,0.0,0.0,0.0,0.0,0.0,0.0,0.0,0.0,0.0,0.0,0.0,0.0,0.0,0.0,0.0,0.0,0.0,0.0,0.0,0.0,0.0,0.0,0.0,0.0,0.0,0.0,0.0,0.0,0.0,0.0,0.0,0.0,0.0,0.0,0.0,0.0,0.0,0.0,0.0,0.0,0.0,0.0,0.0,0.0,0.0,0.0,0.0,0.0,0.0,0.0,0.0,0.0,0.0,0.0,-5.0712,0.0,0.0,0.0,0.0,0.0,0.0,0.0,0.0,0.0,0.0,0.0,0.0,0.0,0.0,0.0,0.0,0.0,0.0,0.0,0.0,0.0,0.0,0.0,0.0,0.0,0.0,0.0,0.0,0.0,0.0,0.0,0.0,0.0,0.0,0.0,0.0,0.0,0.0,0.0,0.0,0.0,-4.3515,-4.3515,-4.3515,-4.3515,-4.3515,-4.3515,-4.3515,-4.3515,-4.3268,-4.2713,-4.2142,0.0,0.0,0.0,0.0,0.0,0.0,0.0,0.0,0.0,0.0,0.0,0.0,0.0,0.0,0.0,0.0,0.0,0.0,0.0,0.0,0.0,0.0,0.0,0.0,0.0,0.0,0.0,0.0,0.0,0.0,0.0,0.0,0.0,0.0,0.0,0.0,0.0,0.0,0.0,0.0,0.0,0.0,0.0,0.0,0.0,0.0,0.0,0.0,0.0,0.0,0.0,0.0,0.0,0.0,0.0,0.0,0.0,0.0,0.0,0.0,-5.0077,0.0,0.0,0.0,0.0,0.0,0.0,0.0,0.0,0.0,0.0,0.0,0.0,0.0,0.0,0.0,0.0,0.0,0.0,0.0,0.0,0.0,0.0,0.0,0.0,0.0,0.0,0.0,0.0,0.0,0.0,0.0,0.0,0.0,0.0,0.0,0.0,0.0,0.0,0.0,0.0,-4.3515,-4.3515,-4.3515,-4.3515,-4.3515,-4.3515,-4.3515,-4.3515,-4.3392,-4.3105,-4.2284,0.0,0.0,0.0,0.0,0.0,0.0,0.0,0.0,0.0,0.0,0.0,0.0,0.0,0.0,0.0,0.0,0.0,0.0,0.0,0.0,0.0,0.0,0.0,0.0,0.0,0.0,0.0,0.0,0.0,0.0,0.0,0.0,0.0,0.0,0.0,0.0,0.0,0.0,0.0,0.0,0.0,0.0,0.0,0.0,0.0,0.0,0.0,0.0,0.0,0.0,0.0,0.0,0.0,-5.102,-5.092,-5.0913,-5.0604,-5.0077,-4.9385,-4.9087,-4.9029,-4.9058,-4.7536,0.0,0.0,0.0,0.0,0.0,0.0,0.0,0.0,0.0,0.0,0.0,0.0,0.0,0.0,0.0,0.0,0.0,0.0,0.0,0.0,0.0,0.0,0.0,0.0,-4.3515,-4.3515,-4.3515,0.0,0.0,0.0,0.0,0.0,0.0,0.0,0.0,0.0,0.0,0.0,-4.3515,-4.3515,-4.3515,-4.3515,-4.3515,-4.3515,-4.3515,-4.3515,-4.3441,-4.3313,-4.2307,-4.1632,0.0,0.0,0.0,0.0,0.0,0.0,0.0,0.0,0.0,0.0,0.0,0.0,0.0,0.0,0.0,0.0,0.0,0.0,0.0,0.0,0.0,0.0,0.0,0.0,0.0,0.0,0.0,0.0,0.0,0.0,0.0,0.0,-5.1387,-5.1406,0.0,0.0,0.0,0.0,0.0,0.0,0.0,0.0,0.0,0.0,0.0,0.0,0.0,-5.1406,-5.1406,-5.1386,-5.1366,-5.1366,-5.1167,-5.1065,-5.1037,-5.0033,-4.9508,-4.9313,-4.7852,0.0,-4.8207,-4.7274,0.0,0.0,0.0,0.0,0.0,0.0,0.0,0.0,0.0,0.0,0.0,0.0,0.0,0.0,0.0,0.0,0.0,0.0,0.0,0.0,0.0,0.0,-4.3515,-4.3515,-4.3515,-4.3515,0.0,-4.3515,-4.3515,-4.3515,-4.3515,0.0,0.0,0.0,0.0,0.0,0.0,0.0,-4.3515,-4.3515,-4.3515,-4.3515,-4.3515,-4.3515,-4.3515,-4.3515,-4.3185,-4.2506,-4.1833,-4.0963,-3.9848,-3.9164,0.0,0.0,0.0,0.0,0.0,0.0,0.0,0.0,0.0,0.0,0.0,0.0,0.0,0.0,0.0,0.0,0.0,0.0,0.0,0.0,0.0,0.0,0.0,0.0,0.0,0.0,0.0,0.0,0.0,-5.1263,-5.1406,-5.1406,-5.1406,-5.1406,0.0,0.0,0.0,0.0,0.0,0.0,0.0,0.0,0.0,-5.1406,-5.1406,-5.1406,-5.1406,-5.1406,-5.1406,-5.1406,-5.1191,-5.1103,-5.1075,-5.0428,-4.9855,-4.9372,-4.8613,-4.7969,-4.7372,-4.6516,-4.617,-4.6131,0.0,0.0,0.0,0.0,-4.5594,-4.5594,-4.5594,-4.5594,-4.5594,-4.5594,0.0,0.0,0.0,0.0,0.0,0.0,0.0,-4.4339,0.0,0.0,-4.3548,-4.3742,-4.3629,-4.3515,-4.3515,-4.3515,-4.3515,0.0,-4.3515,-4.3515,-4.3515,0.0,0.0,0.0,0.0,-4.3515,-4.3515,-4.3112,-4.2818,-4.2818,-4.2415,-4.2158,-4.2158,-4.2158,-4.2011,-4.1662,-4.1052,-4.0358,-3.9529,-3.8915,-3.8167,0.0,0.0,0.0,0.0,0.0,0.0,0.0,0.0,0.0,0.0,0.0,0.0,0.0,0.0,0.0,0.0,0.0,0.0,0.0,0.0,0.0,0.0,0.0,0.0,0.0,0.0,0.0,0.0,-5.1269,-5.1406,-5.1406,-5.1406,-5.1406,0.0,0.0,0.0,0.0,0.0,0.0,-5.1406,-5.1406,-5.1406,-5.1406,-5.1406,-5.1504,-5.1738,-5.1738,-5.1836,-5.2051,-5.1641,-5.1447,-5.1385,-5.0729,-5.0045,-4.9384,-4.9153,-4.8355,-4.7144,-4.6278,-4.5806,-4.5594,-4.5594,-4.5594,-4.5594,-4.5594,-4.5594,-4.5594,-4.5594,-4.5594,-4.5594,-4.5594,-4.5594,-4.5594,-4.5594,0.0,0.0,0.0,0.0,-4.4739,-4.4739,-4.418,-4.3693,-4.394,-4.374,-4.3515,-4.3515,-4.3332,-4.324,0.0,-4.3515,-4.3441,-4.3222,0.0,0.0,0.0,0.0,-4.2892,-4.2892,-4.2359,-4.1992,-4.1992,-4.1462,-4.1095,-4.1095,-4.1095,-4.1003,-4.0802,-4.0375,-3.9824,-3.9122,-3.8529,-3.7755,-3.6718,0.0,0.0,0.0,0.0,0.0,0.0,0.0,0.0,0.0,0.0,0.0,0.0,0.0,0.0,0.0,0.0,0.0,0.0,0.0,0.0,0.0,0.0,0.0,0.0,0.0,0.0,0.0,0.0,0.0,-5.1406,-5.1406,0.0,0.0,0.0,0.0,-5.1406,-5.1406,-5.1406,-5.1406,-5.1406,-5.1406,-5.1406,-5.1406,-5.1797,-5.2637,-5.2637,-5.3047,-5.3867,-5.2891,-5.2366,-5.2184,-5.0441,-4.9567,-4.9355,-4.8519,-4.8125,-4.799,-4.7182,-4.6355,-4.5594,-4.5594,-4.5594,-4.5594,-4.5594,-4.5594,-4.5594,-4.5594,-4.5594,-4.5594,-4.5594,-4.5594,-4.5594,-4.5594,-4.5594,0.0,0.0,-4.5332,-4.5074,-4.5074,-4.4535,-4.3986,-4.4001,-4.374,-4.3515,-4.3515,-4.2892,-4.2598,0.0,-4.3515,-4.3259,-4.2488,0.0,-4.2103,-4.1334,-4.1224,-4.1224,-4.1224,-4.1187,-4.115,-4.115,-4.1113,-4.1095,-4.1095,-4.1095,-4.0781,-4.001,-3.9921,-3.9327,-3.8021,-3.7522,-3.7009,-3.6444,-3.5922,0.0,0.0,0.0,0.0,0.0,0.0,0.0,0.0,0.0,0.0,0.0,0.0,0.0,0.0,0.0,0.0,0.0,0.0,0.0,0.0,0.0,0.0,0.0,0.0,0.0,0.0,0.0,0.0,-5.1406,-5.1406,0.0,-5.1406,-5.1406,-5.1406,-5.1406,-5.1406,-5.1641,-5.2207,-5.2246,-5.248,-5.3066,-5.3066,-5.3223,-5.3535,-5.3535,-5.3691,-5.3984,-5.3463,-5.318,-5.3104,-5.2282,-5.1577,-5.0991,-5.0683,-4.9933,-4.8913,-4.8625,-4.7682,-4.6432,-4.6432,-4.6086,-4.5594,-4.5594,-4.5594,-4.5594,-4.5594,-4.5594,-4.5594,-4.5594,-4.5594,-4.5594,-4.5594,-4.5594,-4.5559,-4.5342,-4.5201,-4.5096,-4.5096,-4.4542,-4.3927,-4.3624,-4.3132,-4.2598,-4.2066,-4.1735,-4.1625,-4.1901,-4.1974,-4.1864,-4.1572,-4.1534,-4.1425,-4.1132,-4.1095,-4.1095,-4.1095,-4.0653,-4.0322,-4.0322,-3.9863,-3.957,-3.957,-3.957,-3.9441,-3.9148,-3.9129,-3.8757,-3.7929,-3.7451,-3.696,-3.6395,-3.5876,-3.56,0.0,0.0,0.0,0.0,0.0,0.0,0.0,0.0,0.0,0.0,0.0,0.0,0.0,0.0,0.0,0.0,0.0,0.0,0.0,0.0,0.0,0.0,0.0,0.0,0.0,-5.1328,-5.1406,-5.1406,-5.166,-5.1836,-5.1836,-5.2109,-5.2285,-5.2285,-5.2285,-5.2539,-5.3105,-5.3144,-5.3398,-5.3984,-5.4004,-5.4141,-5.4433,-5.4433,-5.459,-5.4863,-5.4392,-5.4134,-5.4024,-5.3553,-5.2818,-5.1904,-5.1904,-5.1125,-4.9837,-4.9837,-4.9009,-4.7721,-4.7432,-4.6797,-4.6028,-4.6028,-4.5845,-4.5594,-4.5594,-4.5594,-4.5594,-4.5594,-4.5594,-4.5594,-4.5594,-4.5594,-4.5559,-4.5332,-4.5263,-4.5263,-4.5263,-4.4511,-4.3681,-4.3372,-4.2582,-4.1754,-4.1224,-4.0875,-4.0708,-4.0708,-4.0912,-4.1003,-4.0744,-4.0708,-4.0616,-4.0325,-4.0288,-4.0288,-4.0288,-3.9827,-3.9496,-3.9496,-3.9019,-3.8707,-3.8707,-3.8707,-3.8707,-3.8707,-3.8707,-3.8546,-3.8183,-3.756,-3.7038,-3.6684,-3.5985,-3.56,-3.56,0.0,0.0,0.0,0.0,0.0,0.0,0.0,0.0,0.0,0.0,0.0,0.0,0.0,0.0,0.0,0.0,0.0,0.0,0.0,0.0,0.0,0.0,0.0,-5.1191,-5.1328,-5.1406,-5.1445,-5.2187,-5.2715,-5.2734,-5.3496,-5.4004,-5.4004,-5.4004,-5.4004,-5.4043,-5.4043,-5.4043,-5.4082,-5.4082,-5.4492,-5.5332,-5.5332,-5.5762,-5.6582,-5.5742,-5.5209,-5.4912,-5.4066,-5.3053,-5.2001,-5.1952,-5.1491,-5.075,-5.0712,-5.0212,-4.9356,-4.849,-4.7663,-4.6923,-4.6904,-4.6355,-4.5594,-4.5594,-4.5594,-4.5594,-4.5594,-4.5594,-4.5594,-4.5594,-4.5594,-4.5594,-4.5594,-4.5594,-4.5594,-4.5594,-4.4461,-4.3316,-4.3265,-4.2149,-4.1075,-4.1022,-4.0414,-3.9845,-3.9845,-4.0487,-4.0765,-3.9992,-3.9845,-3.9588,-3.8817,-3.8707,0.0,-3.8707,-3.8707,-3.8707,-3.8707,-3.8707,-3.8707,-3.8707,-3.8707,-3.8707,-3.8707,-3.8707,-3.8707,-3.8707,-3.7738,-3.7173,-3.7135,-3.6122,-3.56,-3.56,0.0,0.0,0.0,0.0,0.0,0.0,0.0,0.0,0.0,0.0,0.0,0.0,0.0,0.0,0.0,0.0,0.0,0.0,0.0,0.0,0.0,-5.1013,-5.1131,-5.1188,-5.1328,-5.1621,-5.2266,-5.2558,-5.2949,-5.3574,-5.3867,-5.4004,-5.4004,-5.4004,-5.4277,-5.4902,-5.4941,-5.5234,-5.5879,-5.5898,-5.5996,-5.623,-5.623,-5.6367,-5.6601,-5.6266,-5.6062,-5.5977,-5.5488,-5.4785,-5.3879,-5.3157,-5.2356,-5.1529,-5.0933,-5.0558,-5.0269,-4.9375,-4.8529,-4.7702,-4.7115,-4.6355,-4.5594,-4.5594,-4.5594,-4.5594,-4.5594,-4.5594,-4.5594,-4.5594,-4.5594,-4.5594,-4.5594,-4.5594,-4.5594,-4.5594,-4.4642,-4.3453,-4.2628,-4.1448,-4.0311,-3.954,-3.9203,-3.9038,-3.9038,-3.9221,-3.9294,-3.9074,-3.9038,-3.8946,-3.8726,-3.8707,0.0,-3.8707,-3.8707,-3.8707,-3.8707,-3.8707,-3.8707,-3.8707,-3.8707,-3.8707,-3.8707,-3.8707,-3.8707,-3.8707,-3.7738,-3.6825,-3.6054,-3.5761,-3.56,0.0,0.0,0.0,0.0,0.0,0.0,0.0,0.0,0.0,0.0,0.0,0.0,0.0,0.0,0.0,0.0,0.0,0.0,0.0,0.0,0.0,0.0,-5.0923,-5.1172,-5.1595,-5.1816,-5.2129,-5.2637,-5.334,-5.3984,-5.4492,-5.4863,-5.5098,-5.5098,-5.5098,-5.5312,-5.582,-5.584,-5.6074,-5.6582,-5.6601,-5.6601,-5.6601,-5.6601,-5.6601,-5.6601,-5.6528,-5.6445,-5.6386,-5.615,-5.5542,-5.4646,-5.3649,-5.2712,-5.1846,-5.1029,-5.0712,0.0,0.0,0.0,0.0,0.0,-4.6586,-4.6086,-4.5729,-4.5594,-4.5594,-4.5594,-4.5594,-4.5594,-4.5594,-4.5594,-4.5594,-4.5594,-4.5594,-4.5594,-4.5594,-4.472,-4.3632,-4.2803,-4.1434,-4.0137,-3.9369,-3.8946,-3.8707,-3.8707,-3.8707,0.0,-3.8707,-3.8707,-3.8707,-3.8707,-3.8707,-3.8707,-3.8707,-3.8707,-3.8707,-3.8707,-3.8707,-3.8707,-3.8707,-3.8707,0.0,0.0,0.0,-3.8611,-3.8382,-3.7614,0.0,0.0,0.0,-3.56,-3.56,-3.56,0.0,0.0,-3.56,-3.56,0.0,0.0,0.0,0.0,0.0,0.0,0.0,0.0,0.0,0.0,0.0,0.0,0.0,0.0,0.0,0.0,-5.0808,-5.1219,-5.2158,-5.2596,-5.2871,-5.2988,-5.4355,-5.5332,-5.5449,-5.6152,-5.6601,-5.6601,-5.6601,-5.6601,-5.6601,0.0,0.0,0.0,0.0,-5.6601,-5.6601,-5.6601,-5.6601,-5.6601,-5.6601,-5.6537,-5.6419,-5.6273,-5.5738,-5.483,-5.3828,-5.2887,-5.2011,-5.1193,-5.0798,-5.0712,-5.0712,-5.0173,-4.9221,-4.774,-4.7115,-4.6913,-4.6047,0.0,0.0,-4.5633,-4.5594,-4.5594,-4.5594,-4.5594,-4.5594,-4.5594,-4.5594,-4.5594,-4.5594,-4.4777,-4.3859,-4.3469,-4.1944,-4.0482,-4.0053,-3.9362,-3.8817,-3.8726,-3.8707,-3.8707,-3.8707,-3.8707,-3.8707,-3.8707,-3.8707,-3.8707,-3.8707,-3.8707,-3.8707,-3.8707,0.0,0.0,-3.8707,-3.8707,-3.8707,-3.8707,-3.8707,-3.8465,-3.7929,-3.7451,-3.696,-3.6395,-3.5876,-3.56,-3.56,-3.56,-3.56,-3.56,-3.56,-3.56,0.0,0.0,0.0,0.0,0.0,0.0,0.0,0.0,0.0,0.0,0.0,0.0,0.0,0.0,0.0,-5.0712,-5.0808,-5.1192,-5.202,-5.2981,-5.3887,-5.4707,-5.5098,-5.5586,-5.6289,-5.6504,-5.6601,-5.6601,-5.6601,-5.6601,-5.6601,-5.6601,-5.6601,-5.6601,-5.6601,-5.6601,-5.6601,-5.6601,-5.6601,-5.6601,0.0,0.0,-5.656,-5.6421,-5.626,-5.6024,-5.5013,-5.4012,-5.303,-5.2187,-5.1376,-5.0712,-5.0712,-5.0173,-4.9356,-4.9048,-4.8471,-4.7759,-4.6932,-4.6644,-4.6528,-4.5825,-4.5594,-4.5594,-4.5594,-4.5594,0.0,-4.5594,-4.5594,-4.5594,-4.5594,-4.4906,-4.4143,-4.384,-4.2749,-4.1499,-4.0514,-3.9978,-3.9478,-3.8836,-3.8707,-3.8707,-3.8707,-3.8707,-3.8707,-3.8707,-3.8707,-3.8707,-3.8707,-3.8707,-3.8707,-3.8707,-3.8707,-3.8707,-3.8707,-3.8707,-3.8707,-3.8707,-3.8707,-3.8465,-3.7929,-3.7451,-3.696,-3.6395,-3.5876,-3.56,-3.56,-3.56,-3.56,-3.56,-3.56,-3.56,0.0,0.0,0.0,0.0,0.0,0.0,0.0,0.0,0.0,0.0,0.0,-5.0712,-5.0712,0.0,-5.0712,-5.0712,-5.1087,-5.1722,-5.2608,-5.3677,-5.4551,-5.5137,-5.5644,-5.6113,-5.6562,-5.6601,-5.6601,-5.6601,-5.6601,-5.6601,-5.6601,-5.6601,-5.6601,-5.6601,-5.6601,-5.6601,-5.6601,-5.6601,-5.6601,-5.6601,-5.6601,-5.6601,-5.6601,-5.6458,-5.6408,-5.6347,-5.534,-5.4369,-5.3392,-5.2043,-5.1178,-5.0712,-5.0712,-5.0442,-4.999,-4.9548,-4.9125,-4.8625,-4.7798,-4.7509,-4.7355,-4.6528,-4.624,-4.6163,-4.5729,-4.5594,-4.5594,-4.5594,-4.5594,-4.5594,-4.5594,-4.5287,-4.4879,-4.4571,-4.3732,-4.2733,-4.1805,-4.1163,-4.0458,-3.9488,-3.9294,-3.9166,-3.8781,-3.8707,-3.8707,-3.8707,-3.8707,-3.8707,-3.8707,-3.8707,-3.8707,-3.8707,-3.8707,-3.8707,-3.8707,-3.8707,-3.8707,-3.8707,-3.8707,-3.8578,-3.83,-3.7596,-3.7058,-3.6803,-3.6011,-3.56,-3.56,-3.56,-3.56,-3.56,-3.56,-3.56,0.0,0.0,0.0,0.0,0.0,0.0,0.0,-4.8528,-4.9385,-5.0269,-5.0567,-5.0712,-5.0712,-5.0712,-5.0712,-5.0712,-5.1385,-5.2242,-5.3214,-5.423,-5.4962,-5.5273,-5.6074,-5.6601,-5.6601,-5.6601,-5.6601,-5.6601,-5.6601,-5.6601,-5.6601,-5.6601,-5.6601,-5.6601,-5.6601,-5.6601,-5.6601,-5.6601,-5.6601,-5.6601,-5.6601,-5.6601,-5.6601,-5.6486,-5.6448,-5.6387,-5.5373,-5.4446,-5.3516,-5.1819,-5.099,-5.074,-5.0712,-5.0712,-5.0616,-4.9913,-4.9644,-4.9529,-4.8644,-4.8355,-4.8221,-4.7413,-4.7019,-4.6778,-4.6067,-4.5729,-4.5594,-4.5594,-4.5594,-4.5594,-4.5594,-4.5594,-4.5522,-4.5253,-4.4645,-4.3942,-4.3179,-4.2445,-4.1586,-4.0449,-4.0114,-3.9771,-3.9053,-3.8799,-3.8707,-3.8707,-3.8707,-3.8707,-3.8707,-3.8707,-3.8707,-3.8707,-3.8707,-3.8707,-3.8707,-3.8707,-3.8707,-3.8707,-3.8707,-3.8707,-3.8707,-3.7826,-3.7285,-3.7209,-3.6249,-3.5694,-3.56,-3.56,-3.56,-3.56,-3.56,-3.56,-4.5053,-4.5266,-4.549,-4.5537,-4.5652,-4.5969,0.0,-4.7654,-4.8491,-4.9356,-5.0154,-5.0712,-5.0712,-5.0712,-5.0712,-5.0712,-5.1383,-5.2216,-5.3102,-5.4101,-5.5065,-5.5972,-5.6387,-5.6601,-5.6601,-5.6601,-5.6601,-5.6601,-5.6601,-5.6601,-5.6601,-5.6601,-5.6601,-5.6601,-5.6601,-5.6601,-5.6601,-5.6601,-5.6601,-5.6601,-5.6601,-5.6601,-5.6601,-5.6582,-5.6581,-5.6522,-5.5517,-5.4571,-5.3682,-5.2465,-5.1547,-5.0875,-5.0758,-5.0712,-5.0693,-5.0596,-5.0558,-5.0442,-4.9548,-4.924,-4.9106,-4.8259,-4.749,-4.6885,-4.6778,-4.6201,-4.5594,-4.5594,-4.5594,-4.5594,-4.5594,-4.5594,-4.5586,-4.5559,-4.5246,-4.4753,-4.3947,-4.3436,-4.2773,-4.1637,-4.084,-4.0224,-3.9832,-3.9166,-3.8707,-3.8707,-3.8707,-3.8707,-3.8707,-3.8707,-3.8707,-3.8707,-3.8707,-3.8707,-3.8707,-3.8707,-3.8707,-3.8707,-3.8707,-3.8707,-3.8707,-3.8133,-3.7632,-3.7209,-3.6603,-3.6075,-3.56,-3.56,-3.56,-3.56,-3.56,-3.56,-4.54,-4.5495,-4.5594,-4.5594,-4.5594,-4.5834,-4.6698,-4.7518,-4.8347,-4.9231,-5.0096,-5.0712,-5.0712,-5.0712,-5.0712,-5.0712,-5.1798,-5.2786,-5.3149,-5.4458,-5.5603,-5.614,-5.6362,-5.6514,-5.6582,-5.6601,-5.6601,-5.6601,-5.6601,-5.6601,-5.6601,-5.6601,-5.6601,-5.6601,-5.6601,-5.6601,-5.6601,-5.6601,-5.6601,-5.6601,-5.6601,-5.6601,-5.6601,-5.6601,-5.6601,-5.6543,-5.5621,-5.4688,-5.3721,-5.2731,-5.1809,-5.1004,-5.0863,-5.0822,-5.0805,-5.0721,-5.0712,-5.0654,-5.0289,-5.0173,-5.001,-4.9144,-4.8625,-4.8259,-4.7759,-4.7028,-4.6355,-4.6355,-4.599,-4.5594,-4.5594,-4.5594,-4.5594,-4.5594,-4.5495,-4.5246,-4.4711,-4.4467,-4.3937,-4.2558,-4.2033,-4.153,-4.0751,-3.9937,-3.9405,-3.9405,-3.9001,-3.8707,-3.8707,-3.8707,-3.8707,-3.8707,-3.8707,-3.8707,-3.8707,-3.8707,-3.8707,-3.8707,-3.8707,-3.8707,-3.8707,-3.8183,-3.7685,-3.7209,-3.6664,-3.6139,-3.56,-3.56,-3.56,-3.56,-3.56,-3.56,-4.5594,-4.5594,-4.5594,-4.5594,-4.5594,-4.5768,-4.6401,-4.7354,-4.8288,-4.8914,-4.9933,-5.0712,-5.0712,-5.0712,-5.0712,-5.0712,-5.1895,-5.2932,-5.317,-5.4577,-5.5735,-5.6147,-5.6326,-5.6454,-5.6582,-5.6601,-5.6601,-5.6601,-5.6601,-5.6601,-5.6601,-5.6601,-5.6601,-5.6601,-5.6601,-5.6601,-5.6601,-5.6601,-5.6601,-5.6601,-5.6601,-5.6601,-5.6601,-5.6601,-5.6601,-5.6562,-5.5937,-5.4977,-5.3803,-5.3125,-5.2168,-5.1111,-5.099,-5.0932,-5.0894,-5.0799,-5.073,-5.0712,-5.0712,-5.0712,-5.0596,-4.9952,-4.9606,-4.9279,-4.8644,-4.7875,-4.7231,-4.7231,-4.6624,-4.5951,-4.5951,-4.5787,-4.5594,-4.5594,-4.5594,-4.5522,-4.5302,-4.5232,-4.4884,-4.3678,-4.3257,-4.2768,-4.1751,-4.0898,-4.0259,-3.995,-3.9405,-3.8946,-3.8726,-3.8707,-3.8707,-3.8707,-3.8707,-3.8707,-3.8707,-3.8707,-3.8707,-3.8707,-3.8707,-3.8707,-3.8707,-3.8334,-3.7894,-3.7396,-3.6884,-3.6354,-3.581,-3.5672,-3.56,-3.56,-3.56,-3.56,-4.5594,-4.5594,-4.5594,-4.5594,-4.5594,-4.5614,-4.5633,-4.6913,-4.8106,-4.8135,-4.9519,-5.0712,-5.0712,-5.0712,-5.0712,-5.0712,-5.1395,-5.2231,-5.3086,-5.4087,-5.5104,-5.6083,-5.632,-5.6454,0.0,-5.6601,-5.6601,-5.6601,-5.6601,-5.6601,-5.6601,-5.6601,-5.6601,-5.6601,-5.6601,-5.6601,-5.6601,-5.6601,-5.6601,-5.6601,-5.6601,-5.6601,-5.6601,-5.6601,-5.6601,-5.6601,-5.6562,-5.5586,-5.3984,-5.3824,-5.2745,-5.1194,-5.1116,-5.1022,-5.0908,-5.0901,-5.0814,-5.0712,-5.0712,-5.0712,-5.0712,-5.0673,-5.0087,-4.9394,-4.9375,-4.8759,-4.8067,-4.8067,-4.749,-4.6846,-4.6846,-4.622,-4.5594,-4.5594,-4.5594,-4.5594,-4.5586,-4.5586,-4.5466,-4.5091,-4.4391,-4.3635,-4.2875,-4.2075,-4.1163,-4.0071,-3.9879,-3.957,-3.8799,-3.8707,-3.8707,-3.8707,-3.8707,-3.8707,-3.8707,-3.8707,-3.8707,-3.8707,-3.8707,-3.8707,-3.8707,-3.8673,-3.8415,-3.7894,-3.7415,-3.6921,-3.6374,-3.5854,-3.56,-3.56,-3.56,-3.56,-4.5594,-4.5594,-4.5594,-4.5594,-4.5594,-4.5594,-4.5594,-4.6894,-4.8096,-4.8106,-4.9481,-5.0712,-5.0712,-5.0712,-5.0712,-5.0712,-5.1375,-5.2192,-5.3077,-5.4067,-5.5058,-5.6078,-5.6317,0.0,0.0,0.0,0.0,-5.6601,-5.6601,-5.6601,-5.6601,-5.6601,-5.6601,-5.6601,-5.6601,-5.6601,-5.6601,-5.6601,-5.6601,-5.6601,-5.6601,-5.6601,-5.6601,-5.6601,-5.6601,-5.6601,-5.6601,-5.5605,-5.4004,-5.3943,-5.2905,-5.132,-5.1213,-5.1144,-5.1077,-5.094,-5.0863,-5.0822,-5.073,-5.0712,-5.0712,-5.0712,-5.05,-5.0269,-5.0269,-4.9644,-4.8952,-4.8952,-4.8355,-4.7567,-4.7038,-4.6682,-4.6317,-4.5748,-4.5594,-4.5594,-4.5594,-4.5594,-4.5504,-4.5169,-4.4878,-4.4547,-4.4086,-4.3119,-4.1828,-4.0163,-3.9441,-3.9019,-3.8726,-3.8707,-3.8707,-3.8707,-3.8707,-3.8707,-3.8707,-3.8707,-3.8707,-3.8707,-3.8707,-3.8707,-3.8707,-3.8707,-3.8449,-3.7893,-3.7433,-3.6941,-3.6395,-3.5854,-3.56,-3.56,-3.56,-3.56,-4.5594,-4.5594,-4.5594,-4.5594,-4.5594,-4.5594,-4.5594,-4.6894,-4.8105,-4.8105,-4.949,-5.0712,-5.0712,-5.0712,-5.0712,-5.0712,-5.1125,-5.177,-5.2685,-5.3662,-5.4672,-5.5682,-5.621,-5.6511,0.0,0.0,0.0,-5.6601,-5.6601,-5.6601,-5.6601,-5.6601,-5.6601,-5.6601,-5.6601,-5.6601,-5.6601,-5.6601,-5.6601,-5.6601,-5.6601,-5.6601,-5.6601,-5.6601,-5.6601,-5.6582,-5.6269,-5.5312,-5.3984,-5.3652,-5.2695,-5.1386,-5.1317,-5.124,-5.1171,-5.1045,-5.0966,-5.0879,-5.0758,-5.0712,-5.0712,-5.0712,-5.0712,-5.0712,-5.0712,-5.0308,-4.9856,-4.9856,-4.924,-4.8452,-4.7932,-4.7567,-4.7124,-4.6259,-4.6067,-4.597,-4.5671,-4.5594,-4.555,-4.5322,-4.5292,-4.5161,-4.4837,-4.3678,-4.2374,-4.112,-3.9899,-3.9019,-3.8744,-3.8707,-3.8707,-3.8707,-3.8707,-3.8707,-3.8707,-3.8707,-3.8707,-3.8707,-3.8707,-3.8707,-3.8707,-3.8707,-3.8546,-3.82,-3.7542,-3.7038,-3.6684,-3.5963,-3.56,-3.56,-3.56,-3.56,-4.5594,-4.5594,-4.5594,-4.5594,-4.5594,-4.5594,-4.5594,-4.6855,-4.8048,-4.8086,-4.9452,-5.0654,-5.0693,-5.0712,-5.0712,-5.0712,-5.0702,-5.1037,-5.1962,-5.2962,-5.3981,0.0,0.0,0.0,0.0,0.0,0.0,-5.6601,0.0,-5.6601,-5.6601,-5.6601,-5.6601,-5.6601,-5.6601,-5.6601,-5.6601,-5.6601,-5.6601,-5.6601,-5.6601,-5.6601,-5.6601,-5.6601,-5.6601,-5.6543,-5.5683,-5.4805,-5.3926,-5.3066,-5.2187,-5.1406,-5.1406,-5.1321,-5.1206,-5.1204,-5.1072,-5.0908,-5.0757,-5.0702,-5.0712,-5.0712,-5.0712,-5.0712,-5.0712,-5.0712,-5.0712,-5.0712,-5.0087,-4.9452,-4.9413,-4.8798,-4.7971,-4.7154,-4.6923,-4.6682,-4.5845,-4.5633,-4.5594,-4.5594,-4.5594,-4.5495,-4.5169,-4.3888,-4.2897,-4.2797,-4.1225,-3.9748,-3.8872,-3.8726,-3.8707,-3.8707,-3.8707,-3.8707,-3.8707,-3.8707,-3.8707,-3.8707,-3.8707,-3.8707,-3.8707,-3.8707,-3.8707,-3.8707,-3.7738,-3.7247,-3.7229,-3.6165,-3.5644,-3.5644,-3.5622,-3.56,-4.5594,-4.5594,-4.5594,-4.5594,-4.5594,-4.5594,-4.5594,-4.6432,-4.7375,-4.799,-4.8971,-4.9933,-5.0577,-5.0712,-5.0712,-5.0712,-5.0782,0.0,-5.1978,-5.3049,0.0,-5.4981,-5.5986,-5.6601,-5.6601,-5.6601,0.0,0.0,-5.6601,-5.6601,-5.6601,-5.6601,-5.6601,-5.6601,-5.6601,-5.6601,-5.6601,-5.6601,-5.6601,-5.6601,-5.6601,-5.6601,-5.6601,-5.6601,-5.6601,-5.6543,-5.5683,-5.4805,-5.3926,-5.3066,-5.2187,-5.1406,-5.1406,-5.1386,-5.1343,-5.1238,-5.118,-5.1094,-5.0912,-5.0782,-5.0712,-5.0712,-5.0712,-5.0712,-5.0712,-5.0712,-5.0712,-5.0712,-5.0539,-5.0231,-4.9567,-4.924,-4.8856,-4.8009,-4.7336,-4.6827,-4.6624,-4.6067,-4.5594,-4.5594,-4.5594,-4.5495,-4.5169,-4.4764,-4.4121,-4.2978,-4.2374,-4.1452,-3.98,-3.9074,-3.8707,-3.8707,-3.8707,-3.8707,-3.8707,-3.8707,-3.8707,-3.8707,-3.8707,-3.8707,-3.8707,-3.8707,-3.8707,-3.8707,-3.8066,-3.772,-3.772,-3.6686,-3.6203,-3.6182,-3.5783,-3.56,-4.562,-4.5594,-4.5594,-4.5594,-4.5594,-4.571,-4.6086,-4.6817,-4.7663,-4.8509,-4.9356,-5.0106,-5.0616,-5.0758,-5.0791,0.0,0.0,0.0,-5.1641,-5.257,-5.3576,0.0,-5.5446,0.0,-5.6562,-5.6601,-5.6601,0.0,-5.6601,-5.6601,-5.6601,-5.6601,-5.6601,-5.6601,-5.6601,-5.6601,-5.6601,-5.6601,-5.6601,-5.6601,-5.6601,-5.6601,-5.6601,-5.6601,-5.6387,-5.5976,-5.5117,-5.4238,-5.3359,-5.248,-5.1836,-5.1406,-5.1406,-5.1406,-5.1386,-5.1319,-5.1244,-5.1188,-5.1033,-5.0908,-5.0773,-5.0721,-5.0712,-5.0712,-5.0712,-5.0712,-5.0712,-5.0712,-5.0712,-5.0596,-5.0087,-4.9971,-4.974,-4.8875,-4.8029,-4.7336,-4.6981,-4.622,-4.5594,-4.5594,-4.5594,-4.5531,-4.5352,-4.5201,-4.4748,-4.374,-4.3141,-4.2222,-4.0643,-3.9717,-3.9093,-3.8744,-3.8707,-3.8707,-3.8707,-3.8707,-3.8707,-3.8707,-3.8707,-3.8707,-3.8707,-3.8707,-3.8707,-3.8707,-3.8183,-3.7893,-3.7893,-3.7135,-3.6623,-3.6395,-3.6097,-3.581,-4.5677,-4.564,-4.5632,-4.5627,-4.5637,-4.586,-4.6701,-4.7451,-4.8221,-4.9202,-4.999,-5.0558,-5.0673,-5.0799,-5.0871,-5.0871,0.0,-5.1111,-5.118,-5.1967,-5.289,-5.3886,-5.4765,-5.5644,-5.6523,-5.6601,-5.6601,-5.6601,-5.6601,-5.6601,-5.6601,-5.6601,-5.6601,-5.6601,-5.6601,-5.6601,-5.6601,-5.6601,-5.6601,-5.6601,-5.6601,-5.6601,-5.6601,-5.6484,-5.6015,-5.5234,-5.4258,-5.3398,-5.2637,-5.1758,-5.1406,-5.1406,-5.1406,-5.1406,-5.1406,-5.1406,-5.1322,-5.1225,-5.1137,-5.1031,-5.0889,-5.0739,-5.0712,-5.0712,-5.0712,-5.0712,-5.0712,-5.0712,-5.0712,-5.0712,-5.0712,-5.0712,-5.0519,-4.974,-4.8913,-4.8048,-4.7231,-4.6297,-4.5594,-4.5594,-4.5594,-4.5594,-4.5594,-4.5352,-4.5052,-4.4726,-4.3745,-4.2612,-4.1477,-4.0483,-3.9588,-3.8799,-3.8707,-3.8707,-3.8707,-3.8707,-3.8707,-3.8707,-3.8707,-3.8707,-3.8707,-3.8707,-3.8707,-3.8707,-3.8232,-3.8015,-3.8015,-3.7524,-3.702,-3.6498,-3.6541,-3.6273,-4.5842,-4.5852,-4.5825,-4.577,-4.5775,-4.5957,-4.6726,-4.7,-4.7548,-4.9086,-4.951,-4.9856,-5.0577,-5.0721,-5.073,-5.073,-5.0945,-5.1099,-5.1122,-5.2015,-5.3007,0.0,-5.4765,-5.5644,-5.6523,-5.6601,0.0,0.0,-5.6601,-5.6601,-5.6601,-5.6601,-5.6601,-5.6601,-5.6601,-5.6601,-5.6601,-5.6601,-5.6601,-5.6601,-5.6601,-5.6601,-5.6582,-5.5859,-5.5449,-5.5215,-5.3613,0.0,-5.2637,-5.1758,-5.1406,-5.1406,-5.1406,-5.1406,-5.1406,-5.1406,-5.1386,-5.1344,-5.1228,-5.1125,-5.1014,-5.0773,-5.0712,-5.0712,-5.0712,-5.0712,-5.0712,-5.0712,-5.0712,-5.0712,-5.0712,-5.0712,-5.0654,-5.0519,-4.9798,-4.8933,-4.8086,-4.6682,-4.5594,-4.5594,-4.5594,-4.5594,-4.5594,-4.5559,-4.541,-4.5063,-4.4606,-4.3852,-4.2664,-4.0982,-3.9588,-3.8799,-3.8707,-3.8707,-3.8707,-3.8707,-3.8707,-3.8707,-3.8707,-3.8707,-3.8707,-3.8707,-3.8707,-3.8707,-3.8611,-3.8562,-3.8562,-3.8032,-3.7542,-3.7075,-3.7227,-3.7045,-4.5916,-4.5899,-4.5885,-4.5861,-4.5845,-4.6061,-4.6868,-4.7344,-4.7981,-4.9236,-4.9805,-5.0202,-5.0616,-5.0757,-5.0797,-5.0797,-5.0645,-5.0672,-5.1085,-5.1289,-5.1875,-5.3164,-5.4082,-5.4961,-5.584,-5.6328,-5.6601,-5.6601,-5.6601,-5.6601,-5.6601,-5.6601,-5.6601,-5.6601,-5.6601,-5.6601,-5.6601,-5.6601,-5.6601,-5.6601,-5.6601,-5.6367,-5.5918,-5.5488,-5.4805,-5.3906,-5.3066,-5.2441,-5.1992,-5.1562,-5.1406,-5.1406,-5.1406,-5.1406,-5.1406,-5.1406,-5.1406,-5.1386,-5.1242,-5.118,-5.1109,-5.0874,-5.0757,-5.0712,-5.0712,-5.0712,-5.0712,-5.0712,-5.0712,-5.0712,-5.0712,-5.0712,-5.0712,-5.0712,-4.9683,-4.849,-4.7663,-4.649,-4.5594,-4.5594,-4.5594,-4.5594,-4.5594,-4.5594,-4.5495,-4.514,-4.4806,-4.4173,-4.2953,-4.1841,-4.0671,-3.946,-3.8946,-3.8707,-3.8707,-3.8707,-3.8707,-3.8707,-3.8707,-3.8707,-3.8707,-3.8707,-3.8707,-3.8707,-3.8707,-3.8707,-3.8707,-3.885,-3.8543,-3.7791,-3.8292,-3.8127,-4.6005,-4.5985,-4.5981,-4.594,-4.5936,-4.6162,-4.7008,-4.7792,-4.8587,-4.9459,-5.0252,-5.0791,-5.0791,-5.0851,-5.0908,0.0,-5.0505,-5.0417,-5.1099,-5.0743,-5.0975,-5.2519,-5.3301,0.0,-5.5195,-5.5918,0.0,-5.6582,-5.6601,-5.6601,-5.6601,-5.6601,-5.6601,-5.6601,-5.6601,-5.6601,-5.6601,-5.6601,-5.6601,-5.6601,-5.6601,-5.623,-5.5566,-5.5195,-5.4277,-5.2969,-5.2578,-5.2031,-5.1406,-5.1406,-5.1406,-5.1406,-5.1406,-5.1406,-5.1406,-5.1406,-5.1406,-5.1386,-5.1271,-5.1213,-5.1166,-5.1028,-5.0852,-5.074,-5.0702,-5.0712,-5.0712,-5.0712,-5.0712,-5.0712,-5.0712,-5.0712,-5.0712,-5.0712,-4.9375,-4.7932,-4.7288,-4.6336,-4.5594,-4.5594,-4.5594,-4.5594,-4.5594,-4.5594,-4.5504,-4.5243,-4.4861,-4.4256,-4.3311,-4.2665,-4.1754,-4.0304,-3.9441,-3.8891,-3.8707,-3.8707,-3.8707,-3.8707,-3.8707,-3.8707,-3.8707,-3.8707,-3.8707,-3.8707,-3.8872,-3.8964,-3.8964,-3.9753,-3.9619,-3.8585,-3.9365,-3.9168,-4.6268,-4.6268,-4.6226,-4.6115,-4.6082,-4.6279,-4.7025,-4.7855,-4.872,-4.9605,-5.0475,-5.1053,-5.1053,-5.0972,-5.0908,-5.0908,-5.084,-5.0901,-5.1074,-5.1106,-5.1501,-5.2578,0.0,0.0,-5.5137,-5.5371,-5.5742,-5.6543,-5.6601,-5.6601,-5.6601,-5.6601,-5.6601,-5.6601,-5.6601,-5.6601,-5.6601,-5.6601,-5.6601,-5.6601,-5.6601,-5.6562,-5.6426,-5.4844,-5.4023,-5.3789,-5.2207,-5.1465,0.0,-5.1406,-5.1406,-5.1406,-5.1406,-5.1406,-5.1406,-5.1406,-5.1406,-5.1406,-5.1386,-5.1297,-5.1201,-5.1188,-5.1045,-5.0867,-5.074,-5.0712,-5.0712,-5.0712,-5.0712,-5.0712,-5.0712,-5.0712,-5.0712,-5.0712,-4.9375,-4.8086,-4.8009,-4.6721,-4.5594,-4.5594,-4.5594,-4.5594,-4.5594,-4.5594,-4.5586,-4.5559,-4.5011,-4.4561,-4.4459,-4.3188,-4.1974,-4.1077,-4.0267,-3.9478,-3.8762,-3.8707,-3.8707,-3.8707,-3.8707,-3.8707,-3.8707,-3.8707,-3.8707,-3.8707,-3.9423,-3.979,-3.979,-4.0598,-4.0436,-3.9403,-4.0159,-3.9909,-4.6308,-4.6308,-4.6289,-4.6226,-4.6223,-4.6299,-4.6596,-4.7265,-4.809,-4.8964,-4.9772,-5.0481,-5.0992,-5.1067,-5.0997,-5.0911,0.0,0.0,-5.0131,-4.9849,-4.9958,-5.0957,-5.1977,0.0,0.0,0.0,-5.5664,-5.6523,-5.6601,-5.6601,-5.6601,-5.6601,-5.6601,-5.6601,-5.6601,-5.6601,-5.6601,-5.6601,-5.6601,-5.6601,-5.6601,-5.6328,-5.5781,-5.5098,-5.4219,-5.3183,-5.248,-5.1875,0.0,-5.1406,-5.1406,-5.1406,-5.1406,-5.1406,-5.1406,-5.1406,-5.1406,-5.1406,-5.1406,-5.1366,-5.1318,-5.1234,-5.1141,-5.1055,-5.0867,-5.0766,-5.0712,-5.0712,-5.0712,-5.0712,-5.0712,-5.0712,-5.0712,-5.0712,-4.9375,-4.8105,-4.8105,-4.6778,-4.5594,-4.5594,-4.5594,-4.5594,-4.5594,-4.5594,-4.5594,-4.5594,-4.5022,-4.4593,-4.4593,-4.3683,-4.2708,-4.1919,-4.0671,-3.957,-3.8781,-3.8707,-3.8707,-3.8707,-3.8707,-3.8707,-3.8707,-3.9166,-3.9423,-3.9423,-4.0212,-4.0616,-4.0616,-4.1082,-4.0886,-4.0176,-4.0595,-4.0372,-4.6308,-4.6308,-4.6308,-4.6308,-4.6308,-4.6308,-4.6308,-4.6907,-4.7631,-4.8257,-4.9198,-5.0114,-5.0722,-5.0794,-5.0748,0.0,0.0,-4.8696,-4.9265,-4.9109,-4.9211,-4.9913,0.0,-5.264,-5.3823,-5.4999,-5.5937,-5.6543,-5.6601,-5.6601,-5.6601,-5.6601,-5.6601,-5.6601,-5.6601,-5.6601,-5.6601,-5.6601,-5.6601,-5.6601,-5.6601,-5.6289,-5.5683,-5.543,-5.4492,-5.3066,-5.2812,-5.2207,0.0,-5.1406,-5.1406,-5.1406,-5.1406,-5.1406,-5.1406,-5.1406,-5.1406,-5.1406,-5.1406,-5.1406,-5.1386,-5.1294,-5.1236,-5.1166,-5.103,-5.0889,-5.0757,-5.0757,-5.073,-5.0712,-5.0712,-5.0712,-5.0712,-5.0712,-4.9375,-4.8105,-4.8105,-4.6778,-4.5594,-4.5594,-4.5594,-4.5594,-4.5594,-4.5594,-4.5568,-4.5476,-4.4966,-4.4553,-4.4447,-4.3884,-4.3185,-4.2396,-4.1295,-4.0194,-3.9148,-3.8836,-3.8707,-3.8707,-3.8927,-3.9056,-3.9056,-3.9827,-4.0249,-4.0249,-4.1056,-4.1444,-4.1462,-4.1669,-4.1502,-4.0951,-4.0934,-4.0625,-4.6308,-4.6308,-4.6308,-4.6308,-4.6308,-4.6308,-4.6308,-4.6973,-4.7598,-4.7617,-4.8984,-5.0195,-5.0215,-5.0101,-5.0008,-5.0008,-4.9153,0.0,-4.8689,-4.9443,-4.9989,0.0,0.0,-5.2048,-5.3652,-5.5482,-5.6582,-5.6601,-5.6601,0.0,-5.6601,-5.6601,-5.6601,-5.6601,-5.6601,-5.6601,-5.6601,-5.6601,-5.6601,-5.6601,-5.6601,-5.6601,-5.6562,-5.5683,-5.4824,-5.3945,-5.3066,-5.2207,0.0,-5.1406,-5.1406,-5.1406,-5.1406,-5.1406,-5.1406,-5.1406,-5.1406,-5.1406,-5.1406,-5.1406,-5.1406,-5.1406,-5.1318,-5.1204,-5.1201,-5.1064,-5.0908,-5.0908,-5.0797,-5.0712,-5.0712,-5.0712,-5.0712,-5.0712,-4.9375,-4.8105,-4.8105,-4.6778,-4.5594,-4.5594,-4.5594,-4.5594,-4.5594,-4.5594,-4.5495,-4.5159,-4.4825,-4.446,-4.4061,-4.371,-4.3185,-4.2396,-4.2286,-4.1625,-4.001,-3.9166,-3.8707,-3.8707,-3.9441,-3.9882,-3.9882,-4.0671,-4.1077,-4.1077,-4.1882,-4.2286,-4.2286,-4.2559,-4.2382,-4.1771,-4.1178,-4.0625,-4.6308,-4.6308,-4.6308,-4.6308,-4.6308,-4.6308,-4.6308,-4.6504,-4.6875,-4.748,-4.8047,-4.8613,-4.9199,-4.9276,-4.9228,-4.9137,-4.8332,0.0,0.0,0.0,0.0,-4.9091,-5.1516,-5.3378,0.0,0.0,-5.6601,-5.6601,-5.6601,-5.6601,-5.6601,-5.6601,-5.6601,-5.6601,-5.6601,-5.6601,-5.6601,-5.6601,-5.6601,-5.6601,-5.6601,-5.6601,-5.6582,-5.6308,-5.539,-5.3984,-5.3711,-5.2754,-5.1406,-5.1406,-5.1406,-5.1406,-5.1406,-5.1406,-5.1406,-5.1406,-5.1406,-5.1406,-5.1406,-5.1406,-5.1406,-5.1406,-5.1366,-5.1343,-5.1343,-5.1129,-5.0879,-5.0791,-5.073,-5.0712,-5.0712,-5.0712,-5.0558,-4.9952,-4.8933,-4.7952,-4.7413,-4.6394,-4.5594,-4.5594,-4.5594,-4.5594,-4.5594,-4.5594,-4.5568,-4.5467,-4.4966,-4.4553,-4.4433,-4.3868,-4.3387,-4.3149,-4.2635,-4.1882,-4.0818,-4.0506,-4.0343,-4.0343,-4.0579,-4.0726,-4.0726,-4.1497,-4.1919,-4.1919,-4.2708,-4.3112,-4.3112,-4.2849,-4.2183,-4.1178,-4.0601,-4.0262,-4.6308,-4.6308,-4.6308,-4.6308,-4.6308,-4.6308,-4.6308,-4.6308,-4.6445,-4.6992,-4.7363,-4.7773,-4.8301,-4.8418,-4.8378,-4.8305,-4.7541,0.0,0.0,0.0,0.0,-4.963,0.0,0.0,0.0,-5.5273,-5.625,-5.6582,-5.6601,-5.6601,-5.6601,-5.6601,-5.6601,-5.6601,-5.6601,-5.6601,-5.6601,-5.6601,-5.6601,-5.6601,-5.6601,-5.6601,-5.6601,-5.6601,-5.5644,-5.4004,-5.4004,-5.3008,0.0,-5.1406,-5.1406,-5.1406,-5.1406,-5.1406,-5.1406,-5.1406,-5.1406,-5.1406,-5.1406,-5.1406,-5.1406,-5.1406,-5.1406,-5.1386,-5.1343,-5.1151,-5.0952,-5.0814,-5.074,-5.0712,-5.0712,-5.0712,-5.0481,-4.9606,-4.874,-4.7875,-4.7058,-4.622,-4.5594,-4.5594,-4.5594,-4.5594,-4.5594,-4.5594,-4.5559,-4.5429,-4.5063,-4.4682,-4.4419,-4.3974,-4.3629,-4.3513,-4.3039,-4.2543,-4.2047,-4.1444,-4.1095,-4.1095,-4.137,-4.1535,-4.1535,-4.2323,-4.2745,-4.2745,-4.3239,-4.3515,-4.3515,-4.2958,-4.208,-4.088,-4.0552,-4.0286,0.0,-4.6308,-4.6308,-4.6308,-4.6308,-4.6308,-4.6308,-4.6308,0.0,-4.6308,-4.6933,-4.7519,-4.7519,-4.7519,-4.7519,-4.7519,-4.6836,0.0,0.0,-4.7793,0.0,0.0,-5.2057,0.0,-5.3828,-5.4746,-5.5644,-5.6445,-5.6562,-5.6601,-5.6601,-5.6601,-5.6601,-5.6601,-5.6601,-5.6601,-5.6601,-5.6601,-5.6601,-5.6601,-5.6601,-5.6601,-5.6601,-5.6601,-5.5644,0.0,-5.4004,-5.3008,-5.1406,-5.1406,-5.1406,-5.1406,-5.1406,-5.1406,-5.1406,-5.1406,-5.1406,-5.1406,-5.1406,-5.1406,-5.1406,-5.1406,-5.1406,-5.1386,-5.1244,-5.1154,-5.1074,-5.0945,-5.0805,-5.0712,-5.0693,-5.0654,-5.0385,-4.951,-4.8644,-4.7798,-4.699,-4.6163,-4.5594,-4.5594,-4.5594,-4.5594,-4.5594,-4.5594,-4.5495,-4.5191,-4.5126,-4.4853,-4.4175,-4.4028,-4.3881,-4.3563,-4.3513,-4.3515,-4.3515,-4.2139,-4.126,-4.126,-4.1974,-4.2396,-4.2396,-4.3094,-4.3515,-4.3515,-4.3515,-4.3515,-4.3515,-4.2958,-4.2121,-4.1018,-4.0949,-4.0631,-4.6308,0.0,-4.6308,-4.6308,-4.6308,-4.6308,0.0,-4.6308,-4.6308,-4.6308,-4.6465,-4.6601,-4.6601,-4.6601,-4.6601,-4.6601,-4.6426,-4.6308,-4.6308,-4.7793,0.0,-5.1191,-5.2148,-5.2752,-5.2988,-5.4394,-5.5371,-5.5586,-5.6211,-5.6601,-5.6601,-5.6601,-5.6601,-5.6601,-5.6601,-5.6601,-5.6601,-5.6601,-5.6601,-5.6601,-5.6601,-5.6601,-5.6601,-5.6601,-5.5644,-5.4004,-5.4004,-5.3008,-5.1406,-5.1406,-5.1406,-5.1406,-5.1406,-5.1406,-5.1406,-5.1406,-5.1406,-5.1406,-5.1406,-5.1406,-5.1406,-5.1406,-5.1406,-5.1387,-5.1366,-5.1265,-5.1144,-5.094,-5.0879,-5.0839,-5.0721,-5.0212,-4.949,-4.8606,-4.7778,-4.6951,-4.6086,-4.5748,-4.5594,-4.5594,-4.5594,-4.5594,-4.5594,-4.5594,-4.5577,-4.5495,-4.5253,-4.5041,-4.4865,-4.4341,-4.3971,-4.3896,-4.3646,-4.3515,-4.3515,-4.3149,-4.2928,-4.2928,-4.3112,-4.3222,-4.3222,-4.3387,-4.3515,-4.3515,-4.3515,-4.3515,-4.3515,-4.2958,-4.2539,-4.2244,-4.1335,-4.0833,-4.6308,-4.6308,-4.6308,-4.6308,-4.6308,-4.6308,-4.6308,-4.6308,-4.6308,-4.6308,-4.6308,-4.6308,-4.6308,-4.6308,-4.6308,-4.6308,-4.6308,0.0,0.0,0.0,-4.9512,-5.1191,-5.1816,-5.2266,0.0,-5.3555,-5.4413,-5.5145,-5.5701,-5.6151,-5.6493,-5.6561,-5.6601,-5.6601,-5.6601,-5.6601,-5.6601,-5.6601,-5.6601,-5.6601,-5.6601,-5.6601,-5.6582,-5.6191,-5.5273,-5.3984,-5.3574,-5.2637,-5.1406,-5.1406,-5.1406,-5.1406,-5.1406,-5.1406,-5.1406,-5.1406,-5.1406,-5.1406,-5.1406,-5.1406,-5.1406,-5.1406,-5.1406,-5.1406,-5.1406,-5.1344,-5.1256,-5.1039,-5.0668,-5.0264,-5.0133,-4.9452,-4.8586,-4.7759,-4.7212,-4.6663,-4.5787,-4.5594,-4.5594,-4.5594,-4.5594,-4.5594,-4.5594,-4.5594,-4.5594,-4.5594,-4.5457,-4.5263,-4.5118,-4.4612,-4.4204,-4.4013,-4.3693,-4.3515,-4.3515,-4.3515,-4.3515,-4.3515,-4.3515,-4.3515,-4.3515,-4.3515,-4.3515,-4.3515,-4.3515,-4.3515,-4.3515,-4.3214,-4.2939,-4.2674,-4.2021,-4.1424,-4.6308,-4.6308,-4.6308,-4.6308,-4.6308,-4.6308,-4.6308,-4.6308,-4.6308,-4.6308,-4.6308,-4.6308,-4.6308,-4.6308,-4.6308,0.0,0.0,0.0,-4.8652,-4.8906,-4.9512,-5.1191,-5.1406,0.0,-5.2422,-5.2617,-5.3257,-5.4599,-5.4929,-5.5321,-5.5951,-5.6074,-5.6208,-5.6366,-5.6366,-5.6445,-5.6601,-5.6601,-5.6601,-5.6601,-5.6601,-5.6523,-5.6387,-5.5644,-5.4746,-5.3769,0.0,0.0,-5.1406,-5.1406,-5.1406,-5.1406,-5.1406,-5.1406,-5.1406,-5.1406,-5.1406,-5.1406,-5.1406,-5.1406,-5.1406,-5.1406,-5.1328,-5.1211,-5.1211,-5.1113,-5.0973,-5.0786,-5.0226,-4.9588,-4.9309,-4.8603,-4.7757,-4.7048,-4.6797,-4.6509,-4.5768,-4.5594,-4.5594,-4.5594,-4.5594,-4.5594,-4.5594,-4.5594,-4.5594,-4.5594,-4.5594,-4.5495,-4.5211,-4.4884,-4.4527,-4.4132,-4.3772,-4.3565,-4.3496,-4.3515,-4.3515,-4.3515,-4.3515,-4.3515,-4.3515,-4.3515,-4.3515,-4.3515,-4.3515,-4.3515,-4.3515,-4.3515,-4.3268,-4.2826,-4.275,-4.2101,-4.6308,-4.6308,-4.6308,-4.6308,-4.6308,-4.6308,-4.6308,-4.6308,-4.6308,-4.6308,-4.6308,-4.6308,-4.6308,-4.6308,-4.6308,0.0,0.0,-4.6914,0.0,0.0,-4.9512,-5.1191,0.0,-5.1445,-5.1582,-5.2266,-5.277,-5.2886,-5.3596,-5.4022,-5.4022,-5.4054,-5.4456,-5.5298,-5.532,-5.5747,-5.6582,-5.6601,-5.6601,-5.6601,-5.6601,-5.6211,-5.5508,-5.5351,-5.4414,-5.2891,0.0,-5.2207,-5.1406,-5.1406,-5.1406,-5.1406,-5.1406,-5.1406,-5.1406,-5.1406,-5.1406,-5.1406,-5.1406,-5.1406,-5.1406,-5.1406,-5.0937,-5.0371,-5.0371,-4.9863,-4.9256,-4.9116,-4.9496,-4.9703,-4.8716,-4.7831,-4.7109,-4.6938,-4.6336,-4.5768,-4.5633,-4.5594,-4.5594,-4.5594,-4.5594,-4.5594,-4.5594,-4.5594,-4.5594,-4.5594,-4.5594,-4.5577,-4.5522,-4.5232,-4.4896,-4.454,-4.4165,-4.382,-4.3513,-4.3515,-4.3515,-4.3515,-4.3515,-4.3515,-4.3515,-4.3515,-4.3515,-4.3515,-4.3515,-4.3515,-4.3515,-4.3515,-4.3444,-4.3375,-4.292,-4.2322,-4.6308,-4.6308,-4.6308,-4.6308,-4.6308,-4.6308,-4.6308,-4.6308,-4.6308,-4.6308,-4.6308,-4.6308,0.0,0.0,-4.6308,-4.6308,0.0,-4.6914,-4.8652,-4.8906,-4.9512,0.0,0.0,-5.1406,-5.1406,-5.1758,-5.2144,-5.2472,-5.2862,-5.3241,-5.358,-5.3599,-5.3803,-5.4266,-5.4286,-5.4502,-5.4964,-5.4984,-5.5257,-5.5789,-5.5389,-5.4959,-5.4479,-5.4081,-5.3457,-5.2676,0.0,-5.1777,-5.1406,-5.1406,-5.1406,-5.1406,-5.1406,-5.1406,-5.1406,-5.1406,-5.1406,-5.1348,-5.0898,-5.0742,-5.0664,-5.0195,-4.9805,-4.9492,-4.9492,-4.9219,-4.8789,-4.8254,-4.8335,-4.8437,-4.7772,-4.6983,-4.6329,-4.6215,-4.5893,-4.5594,-4.5594,-4.5594,-4.5594,-4.5594,-4.5594,-4.5594,-4.5594,-4.5594,-4.5594,-4.5594,-4.5594,-4.5594,-4.5594,-4.5312,-4.5041,-4.4884,-4.4359,-4.394,-4.3788,-4.3595,-4.3515,-4.3515,-4.3515,-4.3515,-4.3515,-4.3515,-4.3515,-4.3515,-4.3515,-4.3515,-4.3515,-4.3515,-4.3515,-4.3479,-4.325,-4.2827,-4.6308,-4.6308,-4.6308,-4.6308,-4.6308,-4.6308,-4.6308,-4.6308,-4.6308,-4.6308,-4.6308,0.0,0.0,-4.6308,0.0,-4.6308,-4.6308,-4.6836,-4.8379,-4.8769,-4.9453,-5.0937,-5.1289,-5.1406,-5.1406,-5.1406,-5.1614,-5.2129,-5.2168,-5.2395,-5.2892,-5.2931,-5.3027,-5.3241,-5.3241,-5.3355,-5.3599,-5.3405,-5.3786,-5.4736,-5.4176,-5.3744,-5.3429,-5.2896,-5.2536,-5.2302,-5.1679,-5.1406,-5.1406,-5.1406,-5.1406,-5.1406,-5.1406,-5.1406,-5.1387,-5.1191,-5.1113,-5.0996,-5.0176,-4.9902,-4.9785,-4.9121,-4.8769,-4.8594,-4.8594,-4.8457,-4.8144,-4.748,-4.7221,-4.7082,-4.6844,-4.6304,-4.5796,-4.5661,-4.561,-4.5594,-4.5594,-4.5594,-4.5594,-4.5594,-4.5594,-4.5594,-4.5594,-4.5594,-4.5594,-4.5594,-4.5594,-4.5594,-4.5594,-4.539,-4.5191,-4.5107,-4.4521,-4.4076,-4.3912,-4.3646,-4.3515,-4.3515,-4.3515,-4.3515,-4.3515,-4.3515,-4.3515,-4.3515,-4.3515,-4.3515,-4.3515,-4.3515,-4.3515,-4.3515,-4.3515,-4.3142,-4.6308,-4.6308,-4.6308,-4.6308,-4.6308,-4.6308,-4.6308,-4.6308,-4.6308,-4.6308,-4.6308,-4.6308,0.0,-4.6308,-4.6308,-4.6308,-4.6308,-4.6621,-4.7558,0.0,-4.9238,-5.0176,-5.0957,-5.1406,-5.1406,-5.1406,-5.1333,-5.12,-5.1201,-5.112,-5.0922,-5.0904,-5.1301,-5.2184,-5.2211,-5.2661,-5.3599,-5.2796,-5.284,-5.3711,-5.3643,-5.319,-5.2402,-5.2486,-5.2069,-5.131,-5.1363,-5.1406,-5.1406,-5.1406,-5.1406,-5.1406,-5.1406,-5.1406,-5.1308,-5.0566,-5.0293,-5.0156,-4.9297,-4.8984,-4.8984,-4.8926,-4.8359,-4.7695,-4.7695,-4.7129,-4.6465,-4.6406,-4.6387,-4.6345,-4.621,-4.604,-4.5877,-4.5803,-4.5685,-4.5594,-4.5594,-4.5594,-4.5594,-4.5594,-4.5594,-4.5594,-4.5594,-4.5594,-4.5594,-4.5594,-4.5594,-4.5594,-4.5594,-4.5577,-4.5438,-4.5129,-4.4769,-4.428,-4.3597,-4.3513,-4.3515,-4.3515,-4.3515,-4.3515,-4.3515,-4.3515,-4.3515,-4.3515,-4.3515,-4.3515,-4.3515,-4.3515,-4.3515,-4.3515,-4.3515,-4.2922,-4.4687,-4.4687,-4.4687,-4.4687,-4.4687,-4.4824,-4.5371,-4.5488,-4.5488,-4.5488,-4.5488,-4.5664,0.0,0.0,-4.6308,-4.6308,-4.6308,-4.6601,-4.748,-4.7871,-4.8418,-4.9297,-4.9668,-5.0058,-5.0605,-5.0644,-5.0837,-5.1244,-5.1172,-5.1067,-5.0946,-5.0791,-5.0856,-5.1217,-5.1226,-5.1404,-5.1784,-5.1467,-5.1467,-5.1803,-5.1966,-5.183,-5.1431,-5.1612,-5.1516,-5.1206,-5.1344,-5.1406,-5.1406,-5.1406,-5.1406,-5.1348,-5.0859,-5.0644,-5.0547,-4.9707,-4.9394,-4.9277,-4.8398,-4.8086,-4.8008,-4.7461,-4.7051,-4.6797,-4.6797,-4.6562,-4.6308,-4.6308,-4.6308,-4.6268,-4.6122,-4.5995,-4.5891,-4.5821,-4.5692,-4.5594,-4.5594,-4.5594,-4.5594,-4.5594,-4.5594,-4.5594,-4.5594,-4.5594,-4.5594,-4.5594,-4.5594,-4.5594,-4.5594,-4.5594,-4.5559,-4.5419,-4.4931,-4.4392,-4.3868,-4.3612,-4.3515,-4.3515,-4.3515,-4.3515,-4.3515,-4.3515,-4.3515,-4.3515,-4.3515,-4.3515,-4.3515,-4.3515,-4.3515,-4.3515,-4.3515,-4.3087,-4.3691,-4.3691,-4.3691,-4.3691,0.0,-4.3789,-4.4101,-4.4394,-4.4668,-4.4941,-4.5215,-4.5586,-4.6191,0.0,0.0,0.0,-4.6308,-4.6504,-4.7109,-4.7422,-4.7812,-4.8418,-4.873,-4.9121,-4.9726,-4.9785,-4.9999,-5.0503,-5.0378,-5.0374,-5.0617,-5.0397,-5.0423,-5.0693,-5.0712,-5.0712,-5.0712,-5.0712,-5.0712,-5.0693,-5.0886,-5.0925,-5.0844,-5.1025,-5.114,-5.1171,-5.1291,-5.1365,-5.1406,-5.1406,-5.125,-5.0937,-5.0117,-4.9785,-4.9687,-4.8808,-4.8496,-4.8359,-4.748,-4.7187,-4.709,-4.6484,-4.6308,-4.6308,-4.6308,-4.6308,-4.6308,-4.6308,-4.6308,-4.6289,-4.6198,-4.6053,-4.5944,-4.5853,-4.5749,-4.564,-4.5612,-4.5594,-4.5594,-4.5594,-4.5594,-4.5594,-4.5594,-4.5594,-4.5594,-4.5594,-4.5594,-4.5594,-4.5594,-4.5594,-4.5559,-4.5448,-4.4943,-4.4447,-4.4028,-4.3693,-4.3515,-4.3515,-4.3515,-4.3515,-4.3515,-4.3515,-4.3515,-4.3515,-4.3515,-4.3515,-4.3515,-4.3515,-4.3515,-4.3515,-4.3515,-4.3214,-4.3672,-4.3672,-4.3672,-4.3672,0.0,0.0,-4.2598,-4.3066,-4.3926,-4.4805,-4.5683,-4.6308,-4.6308,-4.6308,0.0,-4.6308,-4.6308,-4.6308,-4.6308,-4.7031,-4.7598,-4.7598,-4.8359,-4.8887,-4.8887,-4.8887,-4.8844,-4.8706,-4.8588,-4.8816,-4.9546,-4.9464,-4.9779,-5.0654,-5.0673,-5.0693,-5.0693,-5.0712,-5.0712,-5.0712,-5.0712,-5.0712,-5.0702,-5.0835,-5.0966,-5.1099,-5.1171,-5.127,-5.1387,-5.1387,-5.0918,-5.0098,-4.9238,-4.8887,-4.8789,-4.791,-4.7598,-4.7461,-4.6601,-4.6308,-4.6308,-4.6308,-4.6308,-4.6308,-4.6308,-4.6308,-4.6308,-4.6308,-4.6308,-4.6308,-4.6308,-4.62,-4.6075,-4.5928,-4.5859,-4.5749,-4.5627,-4.5594,-4.5594,-4.5594,-4.5594,-4.5594,-4.5594,-4.5594,-4.5594,-4.5594,-4.5594,-4.5594,-4.5594,-4.5594,-4.5457,-4.5129,-4.4793,-4.4447,-4.4028,-4.3693,-4.3515,-4.3515,-4.3515,-4.3515,-4.3515,-4.3515,-4.3515,-4.3515,-4.3515,-4.3515,-4.3515,-4.3515,-4.3515,-4.3515,-4.3515,-4.3214,-4.1933,-4.1933,-4.1933,-4.1933,0.0,0.0,0.0,-4.2187,0.0,0.0,-4.5273,-4.6308,-4.6308,-4.6308,0.0,-4.6308,-4.6308,-4.6308,-4.6308,-4.6523,-4.6699,-4.6699,-4.6914,-4.7305,-4.793,-4.7988,-4.8222,-4.8804,-4.8626,-4.8609,-4.8816,-4.8601,-4.8606,-4.8856,-4.9471,-4.9779,-4.9779,-5.0385,-5.0712,-5.0712,-5.0712,-5.0712,-5.0702,-5.0835,-5.0918,-5.0966,-5.1124,-5.09,-5.0388,-4.9861,-4.9492,-4.9199,-4.832,-4.7988,-4.7871,-4.7012,-4.6699,-4.6641,-4.6387,-4.6308,-4.6308,-4.6308,-4.6308,-4.6308,-4.6308,-4.6308,-4.6308,-4.6308,-4.6308,-4.6308,-4.6308,-4.6268,-4.6202,-4.6077,-4.593,-4.5783,-4.5747,-4.5665,-4.5594,-4.5594,-4.5594,-4.5594,-4.5594,-4.5594,-4.5594,-4.5594,-4.5594,-4.5594,-4.5594,-4.5594,-4.5568,-4.5457,-4.4943,-4.4553,-4.4433,-4.3871,-4.3515,-4.3515,-4.3515,-4.3515,-4.3515,-4.3515,-4.3515,-4.3515,-4.3515,-4.3515,-4.3515,-4.3515,-4.3515,-4.3515,-4.3515,-4.3214,-4.1191,-4.1191,-4.1191,-4.1191,-4.1191,-4.1191,-4.1191,0.0,0.0,0.0,-4.5098,-4.6308,-4.6308,-4.6308,0.0,-4.6308,-4.6308,-4.6308,-4.6308,-4.6308,-4.6308,-4.6308,-4.6308,-4.6504,-4.7031,-4.707,-4.7305,-4.7832,-4.7627,-4.7611,-4.7961,-4.775,-4.7778,-4.8086,-4.8606,-4.8875,-4.8875,-4.9394,-4.9663,-4.9663,-4.9663,-4.9663,-4.9692,-5.0473,-5.0658,-5.0387,-5.0256,-4.9935,-4.9432,-4.8688,-4.8379,-4.8301,-4.7422,-4.707,-4.7012,-4.6484,-4.6308,-4.6308,-4.6308,-4.6308,-4.6308,-4.6308,-4.6308,-4.6308,-4.6308,-4.6308,-4.6308,-4.6308,-4.6308,-4.6308,-4.6308,-4.6308,-4.6268,-4.6122,-4.5971,-4.5819,-4.5816,-4.5692,-4.5594,-4.5594,-4.5594,-4.5594,-4.5594,-4.5594,-4.5594,-4.5594,-4.5594,-4.5594,-4.5594,-4.5594,-4.5594,-4.5594,-4.5,-4.4593,-4.4593,-4.3915,-4.3515,-4.3515,-4.3515,-4.3515,-4.3515,-4.3515,-4.3515,-4.3515,-4.3515,-4.3515,-4.3515,-4.3515,-4.3515,-4.3515,-4.3515,-4.3339,-4.1191,-4.1191,-4.1191,-4.1191,-4.1191,0.0,-4.1191,-4.2441,-4.3594,-4.3672,0.0,-4.6211,-4.6289,-4.623,-4.6172,-4.6172,-4.6113,-4.6055,-4.6055,-4.6055,-4.6094,-4.6172,-4.6172,-4.6211,-4.6289,-4.6308,-4.6308,-4.6308,-4.6047,-4.6249,-4.7042,-4.6892,-4.7124,-4.7855,-4.7952,-4.799,-4.799,-4.8067,-4.8105,-4.8105,-4.8105,-4.8105,-4.8144,-4.974,-5.0109,-4.9438,-4.8815,-4.8562,-4.8517,-4.7769,-4.7461,-4.7402,-4.6601,-4.6308,-4.6308,-4.6308,-4.6308,-4.6308,-4.6308,-4.6308,-4.6308,-4.6308,-4.6308,-4.6308,-4.6308,-4.6308,-4.6308,-4.6308,-4.6308,-4.6308,-4.6308,-4.6308,-4.6268,-4.6122,-4.6001,-4.5905,-4.582,-4.5715,-4.562,-4.5594,-4.5594,-4.5594,-4.5594,-4.5594,-4.5594,-4.5594,-4.5594,-4.5594,-4.5594,-4.5594,-4.5594,-4.5594,-4.5,-4.4593,-4.4593,-4.3915,-4.3515,-4.3515,-4.3515,-4.3515,-4.3515,-4.3515,-4.3515,-4.3515,-4.3515,-4.3515,-4.3515,-4.3515,-4.3515,-4.3515,-4.3515,-4.3515,-4.1191,-4.1191,0.0,-4.1191,-4.1191,-4.1191,-4.1191,-4.1973,-4.2871,-4.3555,-4.4531,-4.5488,-4.6172,-4.5742,-4.5273,-4.5273,-4.4707,-4.4258,-4.4258,-4.4258,-4.4512,-4.5195,-4.5273,-4.5547,-4.623,-4.6308,-4.6308,-4.6308,-4.6047,-4.5977,-4.6171,-4.5991,-4.596,-4.6133,-4.6797,-4.7154,-4.7154,-4.7778,-4.8105,-4.8105,-4.8105,-4.8105,-4.8105,-4.849,-4.8624,-4.854,-4.7714,-4.7479,-4.7615,-4.6766,-4.6474,-4.6562,-4.6367,-4.6308,-4.6308,-4.6308,-4.6308,-4.6308,-4.6308,-4.6308,-4.6308,-4.6308,-4.6308,-4.6308,-4.6308,-4.6308,-4.6308,-4.6308,-4.6308,-4.6308,-4.6308,-4.6308,-4.6268,-4.6122,-4.608,-4.6027,-4.5909,-4.5807,-4.5737,-4.5629,-4.5594,-4.5594,-4.5594,-4.5594,-4.5594,-4.5594,-4.5594,-4.5594,-4.5594,-4.5594,-4.5594,-4.5594,-4.5,-4.4593,-4.4593,-4.3915,-4.3515,-4.3515,-4.3515,-4.3515,-4.3515,-4.3515,-4.3515,-4.3515,-4.3515,-4.3515,-4.3515,-4.3515,-4.3515,-4.3515,-4.3515,-4.3515,-4.1191,-4.1191,0.0,-4.1191,0.0,-4.1191,-4.1191,-4.1523,-4.2051,-4.2891,-4.3769,-4.4512,-4.4961,-4.4687,-4.4375,-4.4375,-4.4004,-4.3691,-4.3691,-4.3691,-4.3867,-4.4316,-4.4375,-4.4551,-4.5019,-4.5058,-4.5058,-4.5058,-4.5226,-4.533,-4.533,-4.5508,-4.5594,-4.5594,-4.6028,-4.6278,-4.6278,-4.6682,-4.6894,-4.6894,-4.6894,-4.6894,-4.6913,-4.7336,-4.7561,-4.7581,-4.6781,-4.6516,-4.6648,-4.6253,-4.6175,-4.6308,-4.6308,-4.6308,-4.6308,-4.6308,-4.6308,-4.6308,-4.6308,-4.6308,-4.6308,-4.6308,-4.6016,-4.5683,-4.5683,-4.5391,-4.5058,-4.5058,-4.5058,-4.5058,-4.5058,-4.5351,-4.5643,-4.5515,-4.5752,-4.5974,-4.5876,-4.5777,-4.5669,-4.5612,-4.5594,-4.5594,-4.5594,-4.5594,-4.5594,-4.5594,-4.5594,-4.5594,-4.5594,-4.5594,-4.5594,-4.5594,-4.514,-4.4769,-4.4606,-4.408,-4.3679,-4.3496,-4.3515,-4.3515,-4.3515,-4.3515,-4.3515,-4.3515,-4.3515,-4.3515,-4.3515,-4.3515,-4.3515,-4.3515,-4.3515,-4.3515,-4.1191,-4.1191,-4.1191,-4.1191,-4.1191,0.0,-4.1191,-4.1191,-4.1387,-4.2051,-4.2871,-4.3516,-4.3672,-4.3574,-4.3476,-4.3476,-4.3359,-4.3262,-4.3262,-4.3262,-4.332,-4.3457,-4.3476,-4.3535,-4.3691,-4.3691,-4.3691,-4.3691,-4.4189,-4.447,-4.447,-4.4928,-4.5229,-4.5364,-4.5383,-4.546,-4.5594,-4.5594,-4.5594,-4.5594,-4.5594,-4.5594,-4.5614,-4.6355,-4.6682,-4.6633,-4.6032,-4.5814,-4.59,-4.6001,-4.6067,-4.6034,-4.6074,-4.5976,-4.5859,-4.5859,-4.5859,-4.5859,-4.5859,-4.5859,-4.5859,-4.5859,-4.5351,-4.4785,-4.4785,-4.4277,-4.3691,-4.3691,-4.3691,-4.3691,-4.3691,-4.4238,-4.4745,-4.4616,-4.5154,-4.5711,-4.5776,-4.5715,-4.5618,-4.5603,-4.5594,-4.5594,-4.5594,-4.5594,-4.5594,-4.5594,-4.5594,-4.5594,-4.5594,-4.5594,-4.5594,-4.5594,-4.5302,-4.4954,-4.4618,-4.4219,-4.3849,-4.3513,-4.3515,-4.3515,-4.3515,-4.3515,-4.3515,-4.3515,-4.3515,-4.3515,-4.3515,-4.3515,-4.3515,-4.3515,-4.3515,-4.3515,-4.1191,0.0,-4.1191,0.0,-4.1191,-4.1191,0.0,0.0,-4.123,0.0,-4.2012,-4.2793,-4.3555,-4.3086,-4.2578,-4.2578,-4.1992,-4.1523,-4.1523,-4.1523,-4.1797,-4.248,-4.2578,-4.2871,-4.3633,-4.3691,-4.3691,-4.3691,-4.3626,-4.3564,-4.3564,-4.3478,-4.3739,-4.4451,-4.447,-4.4836,-4.5594,-4.5594,-4.5594,-4.5594,-4.5594,-4.5594,-4.5594,-4.5729,-4.5768,-4.5768,-4.5659,-4.57,-4.5828,-4.5896,-4.5569,-4.501,-4.5134,-4.4707,-4.4043,-4.4043,-4.4043,-4.4043,-4.4043,-4.4043,-4.4043,-4.4043,-4.3965,-4.3867,-4.3867,-4.3789,-4.3691,-4.3691,-4.3691,-4.3691,-4.3691,-4.3789,-4.3846,-4.3777,-4.4312,-4.5021,-4.566,-4.5783,-4.5733,-4.561,-4.5594,-4.5594,-4.5594,-4.5594,-4.5594,-4.5594,-4.5594,-4.5594,-4.5594,-4.5594,-4.5594,-4.5594,-4.5302,-4.4954,-4.4618,-4.4219,-4.3849,-4.3513,-4.3515,-4.3515,-4.3515,-4.3515,-4.3515,-4.3515,-4.3515,-4.3515,-4.3515,-4.3515,-4.3515,-4.3515,-4.3515,-4.3515,-4.1191,-4.1191,-4.1191,0.0,-4.1191,-4.1191,-4.1191,-4.1191,-4.1191,-4.1191,-4.1484,-4.1836,-4.2226,-4.1992,-4.1738,-4.1738,-4.1426,-4.1191,-4.1191,-4.1191,-4.1328,-4.1699,-4.1738,-4.1875,-4.2266,-4.2305,-4.2305,-4.2305,-4.2532,-4.2665,-4.2665,-4.293,-4.3258,-4.3624,-4.3624,-4.4028,-4.4855,-4.4874,-4.5133,-4.5594,-4.5594,-4.5594,-4.5575,-4.5094,-4.5152,-4.5594,-4.5594,-4.541,-4.5073,-4.5107,-4.4724,-4.4122,-4.4181,-4.4,-4.3691,-4.3691,-4.3691,-4.3691,-4.3691,-4.3691,-4.3691,-4.3691,-4.3379,-4.2969,-4.2969,-4.2656,-4.2305,-4.2305,-4.2305,-4.2305,-4.2305,-4.2637,-4.2948,-4.2896,-4.3485,-4.4125,-4.4316,-4.5056,-4.5673,-4.5612,-4.5594,-4.5594,-4.5594,-4.5594,-4.5594,-4.5594,-4.5594,-4.5594,-4.5594,-4.5594,-4.5594,-4.5594,-4.5476,-4.5243,-4.4908,-4.4553,-4.418,-4.3804,-4.3614,-4.3515,-4.3515,-4.3515,-4.3515,-4.3515,-4.3515,-4.3515,-4.3515,-4.3515,-4.3515,-4.3515,-4.3515,-4.3515,0.0,0.0,-4.1191,-4.1191,-4.1191,-4.1191,0.0,0.0,-4.1191,0.0,-4.1191,-4.1191,-4.1191,-4.1191,-4.1191,-4.1191,-4.1191,-4.1191,-4.1191,-4.1191,-4.1191,-4.1191,-4.1191,-4.1191,-4.1191,-4.1191,-4.1191,-4.1191,-4.1557,-4.1766,-4.1766,-4.2195,-4.2547,-4.2758,-4.2777,-4.3162,-4.3989,-4.3989,-4.4316,-4.496,-4.496,-4.496,-4.494,-4.4297,-4.4355,-4.496,-4.496,-4.4646,-4.4149,-4.4157,-4.3787,-4.3198,-4.3253,-4.3165,-4.3025,-4.3047,-4.3066,-4.3066,-4.3066,-4.3066,-4.3066,-4.3066,-4.2617,-4.2109,-4.2109,-4.168,-4.1191,-4.1191,-4.1191,-4.1191,-4.1191,-4.1641,-4.2089,-4.2032,-4.2659,-4.3256,-4.3216,-4.4133,-4.496,-4.496,-4.496,-4.5037,-4.5229,-4.5267,-4.5344,-4.5575,-4.5594,-4.5594,-4.5594,-4.5594,-4.5594,-4.5594,-4.5594,-4.5457,-4.5118,-4.4872,-4.4548,-4.4175,-4.382,-4.3631,-4.3631,-4.3345,-4.3185,-4.3185,-4.2983,-4.2983,-4.3185,-4.2983,-4.2892,-4.2892,-4.2892,-4.2892,0.0,-4.1191,0.0,-4.1191,-4.1191,-4.1191,0.0,0.0,-4.1191,-4.1191,-4.1191,-4.1191,-4.1191,-4.1191,-4.1191,-4.1191,-4.1191,-4.1191,-4.1191,-4.1191,-4.1191,-4.1191,-4.1191,-4.1191,-4.1191,-4.1191,-4.1191,-4.1191,-4.0994,-4.0875,-4.0875,-4.0713,-4.1008,-4.1827,-4.1865,-4.2277,-4.3143,-4.3162,-4.3181,-4.3239,-4.3239,-4.3239,-4.3239,-4.3181,-4.3181,-4.3239,-4.3239,-4.3209,-4.3176,-4.324,-4.2807,-4.2106,-4.2295,-4.1857,-4.1161,-4.1287,-4.1328,-4.1328,-4.1328,-4.1328,-4.1328,-4.1328,-4.1308,-4.1269,-4.1269,-4.123,-4.1191,-4.1191,-4.1191,-4.1191,-4.1191,-4.123,-4.1269,-4.1269,-4.1822,-4.2512,-4.3081,-4.3226,-4.3239,-4.3239,-4.3239,-4.347,-4.4239,-4.4374,-4.4643,-4.5479,-4.5594,-4.5594,-4.5594,-4.5594,-4.5594,-4.5594,-4.5594,-4.5457,-4.5118,-4.5085,-4.4931,-4.4593,-4.419,-4.3971,-4.3971,-4.2941,-4.2359,-4.2359,-4.1625,-4.159,-4.2359,-4.159,-4.1224,-4.1224,-4.1224,-4.1224,0.0,0.0,0.0,-4.1191,-4.1191,-4.1191,-4.1191,-4.1191,-4.1191,-4.1191,-4.1191,-4.1191,-4.1191,-4.1191,-4.1191,-4.1191,-4.1191,-4.1191,-4.1191,-4.1191,-4.1191,-4.1191,-4.1191,-4.1191,-4.1191,-4.1191,-4.1191,-4.1191,-4.0955,-4.0797,-4.0797,-4.0617,-4.065,-4.095,-4.0969,-4.1373,-4.2258,-4.2816,-4.3104,-4.3104,-4.3104,-4.3104,-4.3085,-4.2527,-4.2277,-4.2239,-4.1662,-4.1739,-4.2258,-4.2287,-4.184,-4.1186,-4.1288,-4.1195,-4.1021,-4.115,-4.1191,-4.1191,-4.1191,-4.1191,-4.1191,-4.1191,-4.1191,-4.1191,-4.1191,-4.1191,-4.1191,-4.1191,-4.1191,-4.1191,-4.1191,-4.1191,-4.1191,-4.1191,-4.1337,-4.1496,-4.1624,-4.2415,-4.3104,-4.3104,-4.3104,-4.3181,-4.347,-4.3528,-4.3643,-4.3951,-4.3989,-4.4182,-4.4701,-4.4759,-4.4979,-4.5537,-4.5594,-4.5559,-4.5429,-4.5222,-4.5052,-4.4931,-4.407,-4.3442,-4.3245,-4.234,-4.1751,-4.1534,-4.0744,-4.0726,-4.1534,-4.1242,-4.1095,-4.1095,-4.1095,-4.1095,-4.1191,0.0,0.0,0.0,-4.1191,-4.1191,-4.1191,0.0,-4.1191,-4.1191,-4.1191,-4.1191,-4.1191,-4.1191,-4.1191,-4.1191,-4.1191,-4.1191,-4.1191,-4.1191,-4.1191,-4.1191,-4.1191,-4.1191,-4.1191,-4.1191,-4.1191,-4.1191,-4.0955,0.0,-4.0797,-4.0617,-4.0496,-4.0496,-4.0496,-4.0785,-4.1354,-4.1931,-4.222,-4.222,-4.222,-4.222,-4.22,-4.1623,-4.1354,-4.1335,-4.0746,-4.0843,-4.1354,-4.1354,-4.1065,-4.0642,-4.0757,-4.0857,-4.0957,-4.1129,-4.1191,-4.1191,-4.1191,-4.1191,-4.1191,-4.1191,-4.1191,-4.1191,-4.1191,-4.1191,-4.1191,-4.1191,-4.1191,-4.1191,-4.1191,-4.1191,-4.1191,-4.1191,-4.1102,-4.0959,-4.082,-4.1592,-4.2279,-4.2236,-4.222,-4.2316,-4.2604,-4.2662,-4.2758,-4.3066,-4.3104,-4.3297,-4.3835,-4.3893,-4.4124,-4.471,-4.4767,-4.4767,-4.4767,-4.4557,-4.443,-4.443,-4.3544,-4.2882,-4.2571,-4.1651,-4.1019,-4.0708,-3.9918,-3.9772,-4.0288,-4.0288,-4.0288,-4.0288,-4.0288,-4.0288,0.0,0.0,0.0,0.0,-4.1191,0.0,-4.1191,0.0,-4.1191,-4.1191,-4.1191,-4.1191,-4.1191,-4.1191,-4.1191,-4.1191,-4.1191,-4.1191,-4.1191,-4.1191,-4.1191,-4.1191,-4.1191,-4.1191,-4.1191,-4.1191,-4.1191,-4.1191,-4.0955,-4.0797,-4.0797,-4.0617,-4.0496,-4.0496,-4.0496,-4.0496,-4.0496,-4.0496,-4.0496,-4.0496,-4.0496,-4.0496,-4.0496,-4.0496,-4.0496,-4.0496,-4.0496,-4.0496,-4.0496,-4.0496,-4.0496,-4.0515,-4.0723,-4.0793,-4.0839,-4.1082,-4.1191,-4.1191,-4.1191,-4.1191,-4.1191,-4.1191,-4.1191,-4.1191,-4.1191,-4.1191,-4.1191,-4.1191,-4.1191,-4.1191,-4.1191,-4.1191,-4.1191,-4.1191,-4.1103,-4.0964,-4.0824,-4.0752,-4.0661,-4.0534,-4.0496,-4.0766,-4.1623,-4.175,-4.2047,-4.2893,-4.3028,-4.3028,-4.3066,-4.3066,-4.3066,-4.3104,-4.3104,-4.3104,-4.3104,-4.3104,-4.3104,-4.3104,-4.2709,-4.2357,-4.2095,-4.091,-4.0144,-3.9877,-3.9093,-3.8707,-3.8707,-3.8707,-3.8707,-3.8707,-3.8707,-3.8707,-4.1026,0.0,0.0,0.0,0.0,0.0,-4.1054,-4.1128,-4.1191,-4.1191,-4.1191,-4.1191,-4.1191,-4.1191,-4.1191,-4.1191,-4.1191,-4.1191,-4.1191,-4.1191,-4.1191,-4.1191,-4.1191,-4.1191,-4.1191,-4.1191,-4.1191,0.0,-4.0955,-4.0797,-4.0797,-4.0617,-4.0496,-4.0496,-4.0496,-4.0496,-4.0496,-4.0496,-4.0496,-4.0496,-4.0496,-4.0496,-4.0496,-4.0496,-4.0496,-4.0496,-4.0496,-4.0496,-4.0496,-4.0496,-4.0496,-4.0519,-4.0666,-4.0721,-4.0742,-4.0873,-4.0914,-4.0922,-4.1023,-4.1054,-4.1077,-4.1171,-4.1191,-4.1191,-4.1191,-4.1191,-4.1191,-4.1191,-4.1191,-4.1191,-4.1191,-4.1191,-4.1191,-4.1191,-4.1171,-4.1105,-4.0964,-4.0936,-4.0832,-4.0547,-4.0496,-4.0573,-4.0823,-4.0854,-4.0931,-4.1189,-4.1227,-4.145,-4.2085,-4.2162,-4.2412,-4.3028,-4.3104,-4.3104,-4.3104,-4.3104,-4.3104,-4.3104,-4.2403,-4.1838,-4.1523,-4.0408,-3.9645,-3.9333,-3.8914,-3.8707,-3.8707,-3.8707,-3.8707,-3.8707,-3.8707,-3.8707,-4.0905,-4.086,-4.0723,-4.0377,0.0,0.0,-4.0448,-4.0236,-4.025,0.0,-4.0918,-4.0762,-4.1133,-4.1191,-4.1191,-4.1191,-4.1191,-4.1191,-4.1191,-4.1191,-4.1191,-4.1191,-4.1191,-4.1191,-4.1191,-4.115,-4.1126,-4.1126,-4.0887,-4.0723,-4.0685,-4.0556,-4.0496,-4.0496,-4.0496,-4.0496,-4.0496,-4.0496,-4.0496,-4.0496,-4.0496,-4.0496,-4.0496,-4.0496,-4.0496,-4.0496,-4.0496,-4.0496,-4.0496,-4.0496,-4.0496,-4.0512,-4.0655,-4.0697,-4.0715,-4.0775,-4.0797,-4.0813,-4.0955,-4.0996,-4.1023,-4.115,-4.1191,-4.1191,-4.1191,-4.1191,-4.1191,-4.1191,-4.1191,-4.1191,-4.1191,-4.1191,-4.1191,-4.1191,-4.1191,-4.1151,-4.1026,-4.0996,-4.0925,-4.0642,-4.0575,-4.0566,-4.0512,-4.0496,-4.0496,-4.0496,-4.0496,-4.0689,-4.1181,-4.1258,-4.145,-4.195,-4.2008,-4.2008,-4.2008,-4.2008,-4.2008,-4.2008,-4.1546,-4.1121,-4.0807,-4.0159,-3.9645,-3.9333,-3.9017,-3.8818,-3.8707,-3.8707,-3.8707,-3.8707,-3.8707,-3.8707,-4.066,-4.0637,-4.0434,-3.963,-3.9424,0.0,-3.9529,-3.8939,-3.8858,-4.0524,-4.0252,-3.9959,-4.0741,-4.0878,-4.0898,-4.0898,-4.0898,-4.0976,-4.1172,-4.1191,-4.1191,-4.1191,-4.1191,-4.1191,-4.1171,-4.1077,-4.0994,-4.0988,-4.0809,-4.0649,-4.0504,-4.0496,-4.0496,-4.0496,-4.0496,-4.0496,-4.0496,-4.0496,-4.0496,-4.0496,-4.0496,-4.0496,-4.0496,-4.0496,-4.0496,-4.0496,-4.0496,-4.0496,-4.0496,-4.0496,-4.0496,-4.0512,-4.0636,-4.0674,-4.0692,-4.0743,-4.0764,-4.0796,-4.0911,-4.0962,-4.0996,-4.1129,-4.1191,-4.1191,-4.1191,-4.1191,-4.1191,-4.1191,-4.1191,-4.1191,-4.1191,-4.1191,-4.1191,-4.1191,-4.1191,-4.1171,-4.1051,-4.1023,-4.0952,-4.0762,-4.0721,-4.0668,-4.0527,-4.0496,-4.0496,-4.0496,-4.0496,-4.0496,-4.0496,-4.0496,-4.0496,-4.0496,-4.0496,-4.0496,-4.0496,-4.0496,-4.0496,-4.0496,-4.0496,-4.0389,-4.0148,-4.011,-3.9972,-3.9656,-3.9289,-3.8985,-3.8732,-3.8704,-3.8707,-3.8707,-3.8707,-3.8707,-3.983,-3.9636,0.0,-3.853,-3.8384,0.0,-3.8491,-3.8397,-3.8419,-3.8784,-3.8728,-3.867,-3.8826,-3.8902,-3.8944,-3.8944,-3.9039,-3.9609,-4.0996,-4.1191,-4.1191,-4.1191,-4.1191,-4.1151,-4.1052,-4.1021,-4.0957,-4.0854,-4.0757,-4.0649,-4.0504,-4.0496,-4.0496,-4.0496,-4.0496,-4.0496,-4.0496,-4.0496,-4.0496,-4.0496,-4.0496,-4.0496,-4.0496,-4.0496,-4.0496,-4.0496,-4.0496,-4.0496,-4.0496,-4.0496,-4.0496,-4.0496,-4.0534,-4.053,-4.0537,-4.0554,-4.0568,-4.0577,-4.0718,-4.0794,-4.0864,-4.0994,-4.1105,-4.1191,-4.1191,-4.1191,-4.1191,-4.1191,-4.1191,-4.1191,-4.1191,-4.1191,-4.1191,-4.1191,-4.1191,-4.1191,-4.1171,-4.1151,-4.1126,-4.0974,-4.0814,-4.0668,-4.0527,-4.0496,-4.0496,-4.0496,-4.0496,-4.0496,-4.0496,-4.0496,-4.0496,-4.0496,-4.0496,-4.0496,-4.0496,-4.0496,-4.0496,-4.0496,-4.0496,-4.0481,-4.0414,-4.0213,-4.0071,-4.0002,-3.9401,-3.9072,-3.9022,-3.8803,-3.8707,-3.8707,-3.8707,-3.8707,0.0,0.0,0.0,-3.7565,-3.741,0.0,0.0,-3.725,-3.7214,-3.8107,-3.7958,-3.7783,-3.8215,-3.8324,-3.8346,-3.8346,-3.8411,-3.8765,-3.9678,-3.9862,-3.9902,-3.9902,-3.9902,-3.9841,-3.9714,-3.9665,-3.9765,-4.0029,-4.0011,-4.0149,-4.0485,-4.0496,-4.0496,-4.0496,-4.0496,-4.0496,-4.0496,-4.0496,-4.0496,-4.0496,-4.0496,-4.0496,-4.0496,-4.0496,-4.0496,-4.0496,-4.0496,-4.0496,-4.0496,-4.0496,-4.0496,-4.0496,-4.0496,-4.0496,-4.0496,-4.0496,-4.0496,-4.0527,-4.0642,-4.0738,-4.0816,-4.0957,-4.1082,-4.1191,-4.1191,-4.1191,-4.1191,-4.1191,-4.1191,-4.1191,-4.1191,-4.1191,-4.1191,-4.1191,-4.1191,-4.1191,-4.1191,-4.1191,-4.1151,-4.1025,-4.0922,-4.0805,-4.0623,-4.0537,-4.0496,-4.0496,-4.0496,-4.0496,-4.0496,-4.0496,-4.0496,-4.0496,-4.0496,-4.0496,-4.0496,-4.0496,-4.0496,-4.0496,-4.0496,-4.0496,-4.0496,-4.0372,-4.0251,-4.0101,-3.9611,-3.9264,-3.9112,-3.8829,-3.8707,-3.8707,-3.8707,-3.8707,0.0,0.0,0.0,0.0,0.0,-3.651,0.0,0.0,0.0,-3.7454,0.0,0.0,0.0,0.0,0.0,0.0,0.0,0.0,0.0,-3.797,0.0,-3.8555,-3.8574,-3.8509,-3.8395,-3.8309,-3.8475,-3.9018,-3.9053,-3.9419,-4.0227,-4.0265,-4.0342,-4.0496,-4.0496,-4.0496,-4.0496,-4.0496,-4.0496,-4.0496,-4.0496,-4.0496,-4.0496,-4.0496,-4.0496,-4.0496,-4.0496,-4.0496,-4.0496,-4.0496,-4.0496,-4.0496,-4.0496,-4.0496,-4.0496,-4.0496,-4.0496,-4.0519,-4.063,-4.0715,-4.0805,-4.0917,-4.1077,-4.1191,-4.1191,-4.1191,-4.1191,-4.1191,-4.1191,-4.1191,-4.1191,-4.1191,-4.1191,-4.1191,-4.1191,-4.1191,-4.1191,-4.1191,-4.1171,-4.1055,-4.1021,-4.0936,-4.0729,-4.061,-4.0542,-4.0504,-4.0496,-4.0496,-4.0496,-4.0496,-4.0496,-4.0496,-4.0496,-4.0496,-4.0496,-4.0496,-4.0496,-4.0496,-4.0496,-4.0496,-4.0496,-4.0496,-4.0372,-4.0101,-3.9775,-3.9445,-3.9112,-3.8829,-3.8707,-3.8707,-3.8707,-3.8707,0.0,0.0,0.0,0.0,-3.5635,0.0,0.0,0.0,-3.5579,-3.5779,0.0,0.0,0.0,0.0,0.0,0.0,0.0,0.0,-3.6012,-3.6021,-3.666,-3.8398,-3.8506,-3.8393,-3.8319,-3.8142,-3.8077,-3.8149,-3.8142,-3.8527,-3.94,-3.9438,-3.9765,-4.0477,-4.0496,-4.0496,-4.0496,-4.0496,-4.0496,-4.0496,-4.0496,-4.0496,-4.0496,-4.0496,-4.0496,-4.0496,-4.0496,-4.0496,-4.0496,-4.0496,-4.0496,-4.0496,-4.0496,-4.0496,-4.0496,-4.0496,-4.0496,-4.0496,-4.0519,-4.061,-4.0729,-4.08,-4.0994,-4.1191,-4.1191,-4.1191,-4.1191,-4.1191,-4.1191,-4.1191,-4.1191,-4.1191,-4.1191,-4.1191,-4.1191,-4.1191,-4.1191,-4.1191,-4.1191,-4.1171,-4.108,-4.0936,-4.0729,-4.0686,-4.0643,-4.0519,-4.0496,-4.0496,-4.0496,-4.0496,-4.0496,-4.0496,-4.0496,-4.0496,-4.0496,-4.0496,-4.0496,-4.0496,-4.0496,-4.0496,-4.0496,-4.0496,-4.0372,-4.0101,-3.9775,-3.9445,-3.9112,-3.8829,-3.8707,-3.8707,-3.8707,-3.8707,0.0,0.0,0.0,0.0,0.0,0.0,-3.55,0.0,-3.55,0.0,0.0,0.0,0.0,0.0,0.0,0.0,-3.5574,0.0,0.0,0.0,-3.5966,0.0,0.0,0.0,-3.6733,-3.6612,-3.6731,-3.7219,-3.7257,-3.7623,-3.8507,-3.8546,-3.8931,-3.9785,-3.9804,-4.0035,-4.0496,-4.0496,-4.0496,-4.0496,-4.0496,-4.0496,-4.0496,-4.0496,-4.0496,-4.0496,-4.0496,-4.0496,-4.0496,-4.0496,-4.0496,-4.0496,-4.0496,-4.0496,-4.0496,-4.0496,-4.0496,-4.0496,-4.0496,-4.0602,-4.0718,-4.0873,-4.0992,-4.1103,-4.1171,-4.1191,-4.1191,-4.1191,-4.1191,-4.1191,-4.1191,-4.1191,-4.1191,-4.1191,-4.1191,-4.1191,-4.1191,-4.1191,-4.1191,-4.1191,-4.115,-4.1054,-4.0906,-4.0772,-4.0674,-4.063,-4.0545,-4.0496,-4.0496,-4.0496,-4.0496,-4.0496,-4.0496,-4.0496,-4.0496,-4.0496,-4.0496,-4.0496,-4.0496,-4.0496,-4.0496,-4.0496,-4.0449,-4.0339,-3.9842,-3.9541,-3.9377,-3.8946,-3.8707,-3.8707,-3.8707,-3.8707,-3.8238,0.0,0.0,0.0,0.0,0.0,0.0,0.0,0.0,0.0,0.0,0.0,0.0,0.0,0.0,0.0,0.0,-3.5528,0.0,-3.5566,0.0,0.0,0.0,0.0,0.0,-3.5541,-3.5731,-3.6327,-3.6365,-3.6731,-3.7603,-3.7642,-3.8046,-3.8911,-3.8931,-3.9342,-4.0169,-4.0169,-4.0285,-4.0496,-4.0496,-4.0496,-4.0496,-4.0496,-4.0496,-4.0496,-4.0496,-4.0496,-4.0496,-4.0496,-4.0496,-4.0496,-4.0496,-4.0496,-4.0496,-4.0496,-4.0496,-4.0496,-4.0496,-4.0602,-4.0724,-4.089,-4.0964,-4.1025,-4.1151,-4.1191,-4.1191,-4.1191,-4.1191,-4.1191,-4.1191,-4.1191,-4.1191,-4.1191,-4.1191,-4.1191,-4.1191,-4.1191,-4.1191,-4.1191,-4.1191,-4.1171,-4.1077,-4.0903,-4.0752,-4.0709,-4.0616,-4.0537,-4.0504,-4.0496,-4.0496,-4.0496,-4.0496,-4.0496,-4.0496,-4.0496,-4.0496,-4.0496,-4.0496,-4.0496,-4.0496,-4.0496,-4.0465,-4.0389,-3.9954,-3.9645,-3.945,-3.9017,-3.8777,-3.8707,-3.8707,-3.8707,0.0,0.0,0.0,-3.5692,0.0,0.0,0.0,0.0,-3.55,0.0,0.0,0.0,0.0,0.0,0.0,0.0,0.0,0.0,0.0,0.0,0.0,0.0,0.0,0.0,0.0,-3.55,-3.5519,0.0,-3.5538,-3.5885,-3.6692,-3.6731,-3.7142,-3.8007,-3.8046,-3.845,-3.9323,-3.9342,-3.9727,-4.0496,-4.0496,-4.0496,-4.0496,-4.0496,-4.0496,-4.0496,-4.0496,-4.0496,-4.0496,-4.0496,-4.0496,-4.0496,-4.0496,-4.0496,-4.0496,-4.0496,-4.0496,-4.0496,-4.0496,-4.0602,-4.0707,-4.0788,-4.0883,-4.1025,-4.1151,-4.1191,-4.1191,-4.1191,-4.1191,-4.1191,-4.1191,-4.1191,-4.1191,-4.1191,-4.1191,-4.1191,-4.1191,-4.1191,-4.1191,-4.1191,-4.1191,-4.1191,-4.1191,-4.108,-4.0925,-4.0724,-4.0692,-4.0655,-4.0519,-4.0496,-4.0496,-4.0496,-4.0496,-4.0496,-4.0496,-4.0496,-4.0496,-4.0496,-4.0496,-4.0496,-4.0496,-4.0496,-4.0372,-4.012,-4.0091,-3.9765,-3.9125,-3.9099,-3.8961,-3.8707,-3.8707,-3.8707,0.0,0.0,-3.7238,-3.5846,0.0,0.0,0.0,0.0,0.0,0.0,0.0,0.0,0.0,0.0,0.0,0.0,0.0,0.0,0.0,0.0,0.0,0.0,0.0,0.0,0.0,0.0,0.0,0.0,-3.55,0.0,-3.5885,-3.5904,-3.6269,-3.7123,-3.7142,-3.7565,-3.843,-3.843,-3.8584,-3.8854,-3.8854,-3.8854,-3.8854,-3.8854,-3.8854,-3.8854,-3.8854,-3.8854,-3.8854,-3.8854,-3.8854,-3.8854,-3.8854,-3.8854,-3.8969,-4.0092,-4.0496,-4.0496,-4.0496,-4.0542,-4.0582,-4.0707,-4.0784,-4.0883,-4.1025,-4.1128,-4.1191,-4.1191,-4.1191,-4.1191,-4.1191,-4.1191,-4.1191,-4.1191,-4.1191,-4.1191,-4.1191,-4.1191,-4.1191,-4.1191,-4.1191,-4.1191,-4.1191,-4.1151,-4.1077,-4.0922,-4.0781,-4.068,-4.0643,-4.0552,-4.0496,-4.0496,-4.0496,-4.0496,-4.0496,-4.0496,-4.0496,-4.0496,-4.0496,-4.0496,-4.0496,-4.0496,-4.0465,-4.0364,-4.0186,-3.9992,-3.9765,-3.9314,-3.9044,-3.8961,-3.8773,-3.8707,-3.8148,-3.7689,0.0,-3.5749,-3.5361,0.0,-3.5486,0.0,-3.55,0.0,0.0,0.0,0.0,0.0,0.0,0.0,0.0,0.0,0.0,-3.55,0.0,0.0,0.0,0.0,0.0,0.0,0.0,0.0,0.0,0.0,0.0,-3.55,-3.5731,-3.625,-3.6269,-3.6673,-3.7526,-3.7546,-3.77,-3.8007,-3.8007,-3.8007,-3.8007,-3.8007,-3.8007,-3.8007,-3.8007,-3.8007,-3.8007,-3.8007,-3.8007,-3.8007,-3.8007,-3.8007,-3.8123,-3.92,-3.9804,-4.0073,-4.0073,-4.0265,-4.0527,-4.0668,-4.0757,-4.0813,-4.0908,-4.1054,-4.1191,-4.1149,-4.1151,-4.1191,-4.1191,-4.1191,-4.1191,-4.1191,-4.1191,-4.1191,-4.1191,-4.1191,-4.1191,-4.1191,-4.1191,-4.1191,-4.1191,-4.1191,-4.115,-4.1023,-4.0896,-4.0791,-4.0747,-4.0649,-4.0574,-4.0574,-4.0534,-4.0496,-4.0496,-4.0496,-4.0496,-4.0496,-4.0496,-4.0496,-4.0496,-4.0496,-4.0496,-4.0496,-4.033,-4.0195,-4.0101,-3.9668,-3.9389,-3.9264,-3.8975,-3.8844]},{"header":{"parameterUnit":"m.s-1","parameterCategory":1,"la1":30.6,"la2":29.2853,"lo1":-89.7004,"lo2":-87.6739,"dy":0.0162,"dx":0.0183,"nx":112,"ny":82,"refTime":"2024-04-16T06:00:00:Z","depth":0,"parameterNumber":3,"parameterNumberName":"V-component_of_WINDS"},"data":[0.0,0.0,0.0,0.0,0.0,0.0,0.0,0.0,0.0,0.0,0.0,0.0,0.0,0.0,0.0,0.0,0.0,0.0,0.0,0.0,0.0,0.0,0.0,0.0,0.0,0.0,0.0,0.0,0.0,0.0,0.0,0.0,0.0,0.0,0.0,0.0,0.0,0.0,0.0,0.0,0.0,0.0,0.0,0.0,0.0,0.0,0.0,0.0,0.0,0.0,0.0,0.0,0.0,0.0,0.0,0.0,0.0,0.0,0.0,0.0,0.0,0.0,0.0,0.0,0.0,0.0,0.0,0.0,0.0,0.0,0.0,0.0,0.0,0.0,0.0,0.0,0.0,0.0,0.0,0.0,0.0,0.0,0.0,0.0,0.0,0.0,0.0,0.0,0.0,0.0,-1.7582,-1.7582,-1.7582,-1.7582,-1.7582,-1.7582,-1.7687,-1.7891,0.0,0.0,0.0,0.0,0.0,0.0,0.0,0.0,0.0,0.0,0.0,0.0,0.0,0.0,0.0,0.0,0.0,0.0,0.0,0.0,0.0,0.0,0.0,0.0,0.0,0.0,0.0,0.0,0.0,0.0,0.0,0.0,0.0,0.0,0.0,0.0,0.0,0.0,0.0,0.0,0.0,0.0,0.0,0.0,0.0,0.0,0.0,0.0,0.0,0.0,0.0,0.0,0.0,0.0,0.0,0.0,0.0,0.0,0.0,0.0,0.0,0.0,0.0,0.0,0.0,0.0,0.0,0.0,0.0,0.0,0.0,0.0,0.0,0.0,0.0,0.0,0.0,0.0,0.0,0.0,0.0,0.0,0.0,0.0,0.0,0.0,0.0,0.0,0.0,0.0,0.0,0.0,0.0,0.0,0.0,0.0,0.0,0.0,0.0,0.0,0.0,0.0,0.0,0.0,-1.7582,-1.7582,-1.7582,-1.7582,-1.7582,-1.7582,-1.8094,-1.922,0.0,0.0,0.0,0.0,0.0,0.0,0.0,0.0,0.0,0.0,0.0,0.0,0.0,0.0,0.0,0.0,0.0,0.0,0.0,0.0,0.0,0.0,0.0,0.0,0.0,0.0,0.0,0.0,0.0,0.0,0.0,0.0,0.0,0.0,0.0,0.0,0.0,0.0,0.0,0.0,0.0,0.0,0.0,0.0,0.0,0.0,0.0,0.0,0.0,0.0,0.0,0.0,0.0,0.0,0.0,0.0,0.0,0.0,0.0,0.0,0.0,0.0,0.0,0.0,0.0,0.0,0.0,0.0,0.0,0.0,0.0,0.0,0.0,0.0,0.0,0.0,0.0,0.0,0.0,0.0,0.0,0.0,0.0,0.0,0.0,0.0,0.0,0.0,0.0,0.0,0.0,0.0,0.0,0.0,0.0,0.0,0.0,0.0,0.0,0.0,0.0,0.0,0.0,-1.7582,-1.7582,-1.7582,-1.7582,-1.7582,-1.7582,-1.7582,-1.8146,-1.9531,-1.9013,0.0,0.0,0.0,0.0,0.0,0.0,0.0,0.0,0.0,0.0,0.0,0.0,0.0,0.0,0.0,0.0,0.0,0.0,0.0,0.0,0.0,0.0,0.0,0.0,0.0,0.0,0.0,0.0,0.0,0.0,0.0,0.0,0.0,0.0,0.0,0.0,0.0,0.0,0.0,0.0,0.0,0.0,0.0,0.0,0.0,0.0,0.0,0.0,0.0,0.0,0.0,0.0,0.0,0.0,0.0,0.0,0.0,0.0,0.0,0.0,0.0,0.0,0.0,0.0,0.0,0.0,0.0,0.0,0.0,0.0,0.0,0.0,0.0,0.0,0.0,0.0,0.0,0.0,0.0,0.0,0.0,0.0,0.0,0.0,0.0,0.0,0.0,0.0,0.0,0.0,0.0,0.0,0.0,0.0,0.0,0.0,0.0,0.0,0.0,0.0,0.0,0.0,-1.7375,-1.7375,-1.7375,-1.7375,-1.7375,-1.7375,-1.7375,-1.8116,-1.9859,-1.9893,0.0,0.0,0.0,0.0,0.0,0.0,0.0,0.0,0.0,0.0,0.0,0.0,0.0,0.0,0.0,0.0,0.0,0.0,0.0,0.0,0.0,0.0,0.0,0.0,0.0,0.0,0.0,0.0,0.0,0.0,0.0,0.0,0.0,0.0,0.0,0.0,0.0,0.0,0.0,0.0,0.0,0.0,0.0,0.0,0.0,0.0,0.0,0.0,0.0,0.0,0.0,0.0,0.0,0.0,0.0,0.0,0.0,0.0,0.0,0.0,0.0,0.0,0.0,0.0,0.0,0.0,0.0,0.0,0.0,0.0,0.0,0.0,0.0,0.0,0.0,0.0,0.0,0.0,0.0,0.0,0.0,0.0,0.0,0.0,0.0,0.0,0.0,0.0,0.0,0.0,0.0,0.0,0.0,0.0,0.0,0.0,0.0,0.0,0.0,0.0,0.0,0.0,-1.6767,-1.6767,-1.6767,-1.6767,-1.6767,-1.6767,-1.6767,-1.8003,-2.0917,-2.0728,0.0,0.0,0.0,0.0,0.0,0.0,0.0,0.0,0.0,0.0,0.0,0.0,0.0,0.0,0.0,0.0,0.0,0.0,0.0,0.0,0.0,0.0,0.0,0.0,0.0,0.0,0.0,0.0,0.0,0.0,0.0,0.0,0.0,0.0,0.0,0.0,0.0,0.0,0.0,0.0,0.0,0.0,0.0,0.0,0.0,0.0,0.0,0.0,0.0,0.0,0.0,0.0,0.0,0.0,0.0,0.0,0.0,0.0,0.0,0.0,0.0,0.0,0.0,0.0,0.0,0.0,0.0,0.0,0.0,0.0,0.0,0.0,0.0,0.0,0.0,0.0,0.0,0.0,0.0,0.0,0.0,0.0,0.0,0.0,0.0,0.0,0.0,0.0,0.0,0.0,0.0,0.0,0.0,0.0,0.0,0.0,0.0,0.0,0.0,0.0,0.0,0.0,-1.6707,-1.6707,0.0,-1.6707,-1.6707,-1.6707,-1.6707,-1.7867,-2.0662,0.0,0.0,0.0,0.0,0.0,0.0,0.0,0.0,0.0,0.0,0.0,0.0,0.0,0.0,0.0,0.0,0.0,0.0,0.0,0.0,0.0,0.0,0.0,0.0,0.0,0.0,0.0,0.0,0.0,0.0,0.0,0.0,0.0,0.0,0.0,0.0,0.0,0.0,0.0,0.0,0.0,0.0,0.0,0.0,0.0,0.0,0.0,0.0,0.0,0.0,0.0,0.0,0.0,0.0,0.0,0.0,0.0,0.0,0.0,0.0,0.0,0.0,0.0,0.0,0.0,0.0,0.0,0.0,0.0,0.0,0.0,0.0,0.0,0.0,0.0,0.0,0.0,0.0,0.0,0.0,0.0,0.0,0.0,0.0,0.0,0.0,0.0,0.0,0.0,0.0,0.0,0.0,0.0,0.0,0.0,0.0,0.0,0.0,0.0,0.0,0.0,0.0,-1.6426,-1.6426,-1.6426,0.0,-1.6426,-1.6426,-1.6426,-1.6426,-1.7568,-2.0293,0.0,0.0,0.0,0.0,0.0,0.0,0.0,0.0,0.0,0.0,0.0,0.0,0.0,0.0,0.0,0.0,0.0,0.0,0.0,0.0,0.0,0.0,0.0,0.0,0.0,0.0,0.0,0.0,0.0,0.0,0.0,0.0,0.0,0.0,0.0,0.0,0.0,0.0,0.0,0.0,0.0,0.0,0.0,0.0,0.0,0.0,0.0,0.0,0.0,0.0,0.0,0.0,0.0,0.0,0.0,0.0,0.0,0.0,0.0,0.0,0.0,0.0,0.0,0.0,0.0,0.0,0.0,0.0,0.0,0.0,0.0,0.0,0.0,0.0,0.0,0.0,0.0,0.0,0.0,0.0,0.0,0.0,0.0,0.0,0.0,0.0,0.0,0.0,0.0,0.0,0.0,0.0,0.0,0.0,0.0,0.0,0.0,0.0,0.0,0.0,0.0,0.0,-1.5784,-1.5784,-1.5784,-1.5784,-1.5784,-1.5784,-1.5784,-1.5784,-1.7011,0.0,0.0,0.0,0.0,0.0,0.0,0.0,0.0,0.0,0.0,0.0,0.0,0.0,0.0,0.0,0.0,0.0,0.0,0.0,0.0,0.0,0.0,0.0,0.0,0.0,0.0,0.0,0.0,0.0,0.0,0.0,0.0,0.0,0.0,0.0,0.0,0.0,0.0,0.0,0.0,0.0,0.0,0.0,0.0,0.0,0.0,0.0,0.0,0.0,0.0,0.0,0.0,0.0,0.0,0.0,0.0,0.0,0.0,0.0,0.0,0.0,0.0,0.0,0.0,0.0,0.0,0.0,0.0,0.0,0.0,0.0,0.0,0.0,0.0,0.0,0.0,0.0,0.0,0.0,0.0,0.0,0.0,0.0,0.0,0.0,0.0,0.0,0.0,0.0,0.0,0.0,0.0,0.0,0.0,0.0,0.0,0.0,0.0,0.0,0.0,0.0,0.0,0.0,-1.5784,-1.5784,-1.5784,-1.5784,-1.5784,-1.5784,-1.5784,-1.5784,-1.6925,-1.9499,0.0,0.0,0.0,0.0,0.0,0.0,0.0,0.0,0.0,0.0,0.0,0.0,0.0,0.0,0.0,0.0,0.0,0.0,0.0,0.0,0.0,0.0,0.0,0.0,0.0,0.0,0.0,0.0,0.0,0.0,0.0,0.0,0.0,0.0,0.0,0.0,0.0,0.0,0.0,0.0,0.0,0.0,0.0,0.0,0.0,0.0,0.0,0.0,0.0,0.0,0.0,0.0,0.0,0.0,0.0,0.0,0.0,0.0,0.0,0.0,0.0,0.0,0.0,0.0,0.0,0.0,0.0,0.0,0.0,0.0,0.0,0.0,0.0,0.0,0.0,0.0,0.0,0.0,0.0,0.0,0.0,0.0,0.0,0.0,0.0,0.0,0.0,0.0,0.0,0.0,0.0,0.0,0.0,0.0,0.0,0.0,0.0,0.0,0.0,0.0,0.0,0.0,-1.5784,-1.5784,-1.5784,-1.5784,-1.5784,-1.5784,-1.5784,-1.5784,-1.6662,-1.868,0.0,0.0,0.0,0.0,0.0,0.0,0.0,0.0,0.0,0.0,0.0,0.0,0.0,0.0,0.0,0.0,0.0,0.0,0.0,0.0,0.0,0.0,0.0,0.0,0.0,0.0,0.0,0.0,0.0,0.0,0.0,0.0,0.0,0.0,0.0,0.0,0.0,0.0,0.0,0.0,0.0,0.0,0.0,0.0,0.0,0.0,0.0,0.0,0.0,0.0,0.0,0.0,0.0,0.0,0.0,0.0,0.0,0.0,0.0,0.0,0.0,0.0,0.0,0.0,0.0,0.0,0.0,0.0,0.0,0.0,0.0,0.0,0.0,0.0,0.0,0.0,0.0,0.0,0.0,0.0,0.0,0.0,0.0,0.0,0.0,0.0,0.0,0.0,0.0,0.0,0.0,0.0,0.0,0.0,0.0,0.0,0.0,0.0,0.0,0.0,0.0,0.0,-1.5784,-1.5784,-1.5784,-1.5784,-1.5784,-1.5784,-1.5784,-1.5784,-1.6339,-1.7638,0.0,0.0,0.0,0.0,0.0,0.0,0.0,0.0,0.0,0.0,0.0,0.0,0.0,0.0,0.0,0.0,0.0,0.0,0.0,0.0,0.0,0.0,0.0,0.0,0.0,0.0,0.0,0.0,0.0,0.0,0.0,0.0,0.0,0.0,0.0,0.0,0.0,0.0,0.0,0.0,0.0,0.0,0.0,0.0,0.0,0.0,0.0,0.0,0.0,0.0,0.0,0.0,0.0,0.0,0.0,0.0,0.0,0.0,0.0,0.0,-0.8885,0.0,0.0,0.0,0.0,0.0,0.0,0.0,0.0,0.0,0.0,0.0,0.0,0.0,0.0,0.0,0.0,0.0,0.0,0.0,0.0,0.0,0.0,0.0,0.0,0.0,0.0,0.0,0.0,0.0,0.0,0.0,0.0,0.0,0.0,0.0,0.0,0.0,0.0,0.0,0.0,0.0,-1.5784,-1.5784,-1.5784,-1.5784,-1.5784,-1.5784,-1.5784,-1.5784,-1.6339,-1.7638,-1.8818,0.0,0.0,0.0,0.0,0.0,0.0,0.0,0.0,0.0,0.0,0.0,0.0,0.0,0.0,0.0,0.0,0.0,0.0,0.0,0.0,0.0,0.0,0.0,0.0,0.0,0.0,0.0,0.0,0.0,0.0,0.0,0.0,0.0,0.0,0.0,0.0,0.0,0.0,0.0,0.0,0.0,0.0,0.0,0.0,0.0,0.0,0.0,0.0,0.0,0.0,0.0,0.0,0.0,0.0,0.0,0.0,0.0,0.0,0.0,0.0,-0.8886,0.0,0.0,0.0,0.0,0.0,0.0,0.0,0.0,0.0,0.0,0.0,0.0,0.0,0.0,0.0,0.0,0.0,0.0,0.0,0.0,0.0,0.0,0.0,0.0,0.0,0.0,0.0,0.0,0.0,0.0,0.0,0.0,0.0,0.0,0.0,0.0,0.0,0.0,0.0,0.0,-1.5784,-1.5784,-1.5784,-1.5784,-1.5784,-1.5784,-1.5784,-1.5784,-1.6062,-1.6763,-1.8495,0.0,0.0,0.0,0.0,0.0,0.0,0.0,0.0,0.0,0.0,0.0,0.0,0.0,0.0,0.0,0.0,0.0,0.0,0.0,0.0,0.0,0.0,0.0,0.0,0.0,0.0,0.0,0.0,0.0,0.0,0.0,0.0,0.0,0.0,0.0,0.0,0.0,0.0,0.0,0.0,0.0,0.0,0.0,0.0,0.0,0.0,0.0,0.0,0.0,0.0,0.0,0.0,0.0,-0.4183,-0.5802,-0.7382,-0.8355,-0.8774,-0.8763,-0.8766,-0.8755,-0.8705,-0.8222,0.0,0.0,0.0,0.0,0.0,0.0,0.0,0.0,0.0,0.0,0.0,0.0,0.0,0.0,0.0,0.0,0.0,0.0,0.0,0.0,0.0,0.0,0.0,0.0,-1.5784,-1.5784,-1.5784,0.0,0.0,0.0,0.0,0.0,0.0,0.0,0.0,0.0,0.0,0.0,-1.5784,-1.5784,-1.5784,-1.5784,-1.5784,-1.5784,-1.5784,-1.5784,-1.5758,-1.5711,-1.7849,-1.9138,0.0,0.0,0.0,0.0,0.0,0.0,0.0,0.0,0.0,0.0,0.0,0.0,0.0,0.0,0.0,0.0,0.0,0.0,0.0,0.0,0.0,0.0,0.0,0.0,0.0,0.0,0.0,0.0,0.0,0.0,0.0,0.0,0.0,0.0,0.0,0.0,0.0,0.0,0.0,0.0,0.0,0.0,0.0,0.0,0.0,0.0,0.0,0.0,0.0,-0.0168,-0.0336,-0.0392,-0.067,-0.0947,-0.1336,-0.631,-0.8396,-0.8142,-0.8115,0.0,-0.8121,-0.8017,0.0,0.0,0.0,0.0,0.0,0.0,0.0,0.0,0.0,0.0,0.0,0.0,0.0,0.0,0.0,0.0,0.0,0.0,0.0,0.0,0.0,0.0,-1.5784,-1.5784,-1.5784,-1.5784,0.0,-1.5784,-1.5784,-1.5784,-1.5784,0.0,0.0,0.0,0.0,0.0,0.0,0.0,-1.5784,-1.5784,-1.5784,-1.5784,-1.5784,-1.5784,-1.5784,-1.5784,-1.5718,-1.5471,-1.6742,-1.7811,-1.8529,-1.9848,0.0,0.0,0.0,0.0,0.0,0.0,0.0,0.0,0.0,0.0,0.0,0.0,0.0,0.0,0.0,0.0,0.0,0.0,0.0,0.0,0.0,0.0,0.0,0.0,0.0,0.0,0.0,0.0,0.0,0.1622,0.0,0.0,0.0,0.0,0.0,0.0,0.0,0.0,0.0,0.0,0.0,0.0,0.0,0.0,0.0,0.0,0.0,0.0,0.0,0.0,0.0,-0.1729,-0.5087,-0.7593,-0.8567,-0.8262,-0.8299,-0.8243,-0.814,-0.8045,-0.7985,-0.7979,0.0,0.0,0.0,0.0,-0.7988,-0.7988,-0.7988,-0.7988,-0.7988,-0.7988,0.0,0.0,0.0,0.0,0.0,0.0,0.0,-1.2453,0.0,0.0,-1.5635,-1.4902,-1.5289,-1.5784,-1.5784,-1.5784,-1.5784,0.0,-1.5784,-1.5784,-1.5784,0.0,0.0,0.0,0.0,-1.5784,-1.5784,-1.5691,-1.5585,-1.5585,-1.5438,-1.5344,-1.5344,-1.5344,-1.5291,-1.5164,-1.6326,-1.7391,-1.838,-1.9561,-2.0615,0.0,0.0,0.0,0.0,0.0,0.0,0.0,0.0,0.0,0.0,0.0,0.0,0.0,0.0,0.0,0.0,0.0,0.0,0.0,0.0,0.0,0.0,0.0,0.0,0.0,0.0,0.0,0.0,0.0,0.0,0.0,0.0,0.0,0.0,0.0,0.0,0.0,0.0,0.0,0.0,0.0,0.0,0.0,0.0,0.0,0.0,0.0,0.0,0.0,0.0,-0.3147,-0.8887,-0.8318,-0.8262,-0.8541,-0.8501,-0.8418,-0.8313,-0.816,-0.8025,-0.7988,-0.7988,-0.7988,-0.7988,-0.7988,-0.7988,-0.7988,-0.7988,-0.7988,-0.7988,-0.7988,-0.7988,-0.7988,-0.7988,0.0,0.0,0.0,0.0,-1.1414,-1.1414,-1.3349,-1.5045,-1.4118,-1.4848,-1.5784,-1.5784,-1.5772,-1.5738,0.0,-1.5784,-1.5758,-1.5732,0.0,0.0,0.0,0.0,-1.5611,-1.5611,-1.5418,-1.5284,-1.5284,-1.5142,-1.5008,-1.5008,-1.5008,-1.4975,-1.4901,-1.5701,-1.6649,-1.7675,-1.8844,-1.9811,-2.0616,0.0,0.0,0.0,0.0,0.0,0.0,0.0,0.0,0.0,0.0,0.0,0.0,0.0,0.0,0.0,0.0,0.0,0.0,0.0,0.0,0.0,0.0,0.0,0.0,0.0,0.0,0.0,0.0,0.0,0.0,0.0,0.0,0.0,0.0,0.0,0.0,0.0,0.0,0.0,0.0,0.0,0.0,0.0,0.0,0.0,0.0,0.0,0.0,0.0,-0.3146,-0.885,-0.6809,-0.6856,-0.8592,-0.8501,-0.8486,-0.8462,-0.8319,-0.8174,-0.7988,-0.7988,-0.7988,-0.7988,-0.7988,-0.7988,-0.7988,-0.7988,-0.7988,-0.7988,-0.7988,-0.7988,-0.7988,-0.7988,-0.7988,0.0,0.0,-0.9069,-1.0096,-1.0096,-1.2037,-1.3974,-1.3926,-1.4848,-1.5784,-1.5784,-1.5611,-1.5504,0.0,-1.5784,-1.5745,-1.5464,0.0,-1.5324,-1.5095,-1.5055,-1.5055,-1.5055,-1.5042,-1.5028,-1.5028,-1.5015,-1.5008,-1.5008,-1.5008,-1.4843,-1.4563,-1.4579,-1.4998,-1.5797,-1.6853,-1.7951,-1.9073,-2.0117,0.0,0.0,0.0,0.0,0.0,0.0,0.0,0.0,0.0,0.0,0.0,0.0,0.0,0.0,0.0,0.0,0.0,0.0,0.0,0.0,0.0,0.0,0.0,0.0,0.0,0.0,0.0,0.0,0.0,0.0,0.0,0.0,0.0,0.0,0.0,0.0,0.0,0.0,0.0,0.0,0.0,0.0,0.0,0.0,0.0,0.0,-0.0059,-0.4266,-0.6647,-0.7227,-0.7872,-0.8458,-0.8991,-0.8937,-0.8804,-0.8625,-0.8574,-0.8408,-0.8187,-0.8187,-0.8126,-0.7988,-0.7988,-0.7988,-0.7988,-0.7988,-0.7988,-0.7988,-0.7988,-0.7988,-0.7988,-0.7988,-0.7988,-0.8187,-0.9019,-0.9608,-0.9998,-0.9998,-1.1935,-1.364,-1.2612,-1.4014,-1.5504,-1.5311,-1.519,-1.515,-1.5251,-1.5277,-1.5237,-1.5182,-1.5117,-1.5129,-1.5022,-1.5008,-1.5008,-1.5008,-1.4796,-1.4676,-1.4676,-1.4509,-1.4402,-1.4402,-1.4402,-1.4355,-1.4249,-1.4242,-1.4684,-1.5662,-1.6723,-1.7827,-1.8997,-2.004,-2.0605,0.0,0.0,0.0,0.0,0.0,0.0,0.0,0.0,0.0,0.0,0.0,0.0,0.0,0.0,0.0,0.0,0.0,0.0,0.0,0.0,0.0,0.0,0.0,0.0,0.0,0.0,0.0,0.0,0.0,0.0,0.0,0.0,0.0,0.0,0.0,0.0,0.0,0.0,0.0,0.0,0.0,0.0,0.0,0.0,0.0,-0.006,-0.44,-0.6407,-0.6334,-0.7407,-0.8366,-0.921,-0.921,-0.9015,-0.8788,-0.8788,-0.8642,-0.8414,-0.8364,-0.8252,-0.8116,-0.8116,-0.8032,-0.7988,-0.7988,-0.7988,-0.7988,-0.7988,-0.7988,-0.7988,-0.7988,-0.7988,-0.8187,-0.9069,-0.9312,-0.9312,-0.9312,-1.1201,-1.2835,-1.1774,-1.3426,-1.5197,-1.5055,-1.4928,-1.4816,-1.4816,-1.4941,-1.4975,-1.483,-1.4816,-1.4783,-1.4727,-1.4713,-1.4713,-1.4713,-1.4496,-1.4376,-1.4376,-1.4202,-1.4088,-1.4088,-1.4088,-1.4088,-1.4088,-1.4088,-1.4412,-1.5137,-1.6527,-1.7666,-1.839,-1.9844,-2.0605,-2.0605,0.0,0.0,0.0,0.0,0.0,0.0,0.0,0.0,0.0,0.0,0.0,0.0,0.0,0.0,0.0,0.0,0.0,0.0,0.0,0.0,0.0,0.0,0.0,0.0,0.0,0.0,0.0,0.0,0.0,0.0,0.0,0.0,0.0,0.0,0.0,0.0,0.0,0.0,0.0,0.0,0.0,0.0,0.0,0.0,0.0,-0.0061,-0.2229,-0.6135,-0.5206,-0.6397,-0.9111,-0.9161,-0.9079,-0.8892,-0.8885,-0.8797,-0.8703,-0.855,-0.8404,-0.8327,-0.8323,-0.8174,-0.7988,-0.7988,-0.7988,-0.7988,-0.7988,-0.7988,-0.7988,-0.7988,-0.7988,-0.7988,-0.7988,-0.7988,-0.7988,-0.7988,-0.9704,-1.1455,-1.1492,-1.3239,-1.495,-1.4981,-1.471,-1.4502,-1.4502,-1.4736,-1.4888,-1.4556,-1.4502,-1.4409,-1.4128,-1.4088,0.0,-1.4088,-1.4088,-1.4088,-1.4088,-1.4088,-1.4088,-1.4088,-1.4088,-1.4088,-1.4088,-1.4088,-1.4088,-1.4088,-1.6165,-1.7334,-1.7415,-1.9511,-2.0605,-2.0605,0.0,0.0,0.0,0.0,0.0,0.0,0.0,0.0,0.0,0.0,0.0,0.0,0.0,0.0,0.0,0.0,0.0,0.0,0.0,0.0,0.0,0.751,0.4923,0.0614,0.0,0.0,0.0,0.0,0.0,0.0,0.0,0.0,0.0,0.0,0.0,0.0,0.0,0.0,0.0,0.0,0.0,0.0,0.0,0.0,0.0,-0.1596,-0.2815,-0.3608,-0.571,-0.703,-0.7752,-0.8836,-0.9232,-0.9086,-0.8981,-0.8858,-0.8807,-0.8706,-0.8557,-0.8411,-0.8361,-0.8174,-0.7988,-0.7988,-0.7988,-0.7988,-0.7988,-0.7988,-0.7988,-0.7988,-0.7988,-0.7988,-0.7988,-0.7988,-0.7988,-0.7988,-0.9133,-1.0432,-1.1074,-1.2327,-1.3586,-1.4196,-1.4269,-1.4208,-1.4208,-1.4275,-1.4302,-1.4222,-1.4208,-1.4175,-1.4095,-1.4088,0.0,-1.4088,-1.4088,-1.4088,-1.4088,-1.4088,-1.4088,-1.4088,-1.4088,-1.4088,-1.4088,-1.4088,-1.4088,-1.4088,-1.6165,-1.806,-1.9678,-2.0284,-2.0605,0.0,0.0,0.0,0.0,0.0,0.0,0.0,0.0,0.0,0.0,0.0,0.0,0.0,0.0,0.0,0.0,0.0,0.0,0.0,0.0,0.0,0.0,0.8922,0.6794,0.0844,0.0,0.0,0.0,0.0,0.0,0.0,0.0,0.0,0.0,0.0,0.0,0.0,0.0,0.0,0.0,0.0,0.0,0.0,0.0,0.0,0.0,-0.1295,-0.2094,-0.2585,-0.5159,-0.6635,-0.7194,-0.8737,-0.9354,-0.92,-0.8998,-0.8885,0.0,0.0,0.0,0.0,0.0,-0.8214,-0.8126,-0.8012,-0.7988,-0.7988,-0.7988,-0.7988,-0.7988,-0.7988,-0.7988,-0.7988,-0.7988,-0.7988,-0.7988,-0.7988,-0.8845,-0.9923,-1.102,-1.2028,-1.2993,-1.4038,-1.4175,-1.4088,-1.4088,-1.4088,0.0,-1.4088,-1.4088,-1.4088,-1.4088,-1.4088,-1.4088,-1.4088,-1.4088,-1.4088,-1.4088,-1.4088,-1.4088,-1.4088,-1.4088,0.0,0.0,0.0,-1.4292,-1.4734,-1.6404,0.0,0.0,0.0,-2.0605,-2.0605,-2.0605,0.0,0.0,-2.0605,-2.0605,0.0,0.0,0.0,0.0,0.0,0.0,0.0,0.0,0.0,0.0,0.0,0.0,0.0,0.0,0.0,0.0,0.8902,0.7028,0.1764,0.0402,0.0,0.0,0.0,0.0,0.0,0.0,0.0,0.0,0.0,0.0,0.0,0.0,0.0,0.0,0.0,0.0,0.0,0.0,0.0,0.0,0.0,-0.0802,-0.2278,-0.3873,-0.5367,-0.6672,-0.8225,-0.891,-0.8937,-0.8739,-0.8729,-0.8885,-0.8885,-0.879,-0.8679,-0.8418,-0.8361,-0.8272,-0.8119,0.0,0.0,-0.7995,-0.7988,-0.7988,-0.7988,-0.7988,-0.7988,-0.7988,-0.7988,-0.7988,-0.7988,-0.8653,-0.9623,-1.0939,-1.1879,-1.2812,-1.4036,-1.423,-1.4128,-1.4095,-1.4088,-1.4088,-1.4088,-1.4088,-1.4088,-1.4088,-1.4088,-1.4088,-1.4088,-1.4088,-1.4088,-1.4088,0.0,0.0,-1.4088,-1.4088,-1.4088,-1.4088,-1.4088,-1.4573,-1.5662,-1.6723,-1.7827,-1.8997,-2.004,-2.0605,-2.0605,-2.0605,-2.0605,-2.0605,-2.0605,-2.0605,0.0,0.0,0.0,0.0,0.0,0.0,0.0,0.0,0.0,0.0,0.0,0.0,0.0,0.0,0.0,0.8885,0.8902,0.8509,0.7369,0.3008,0.0,0.0,0.0,0.0,0.0,0.0,0.0,0.0,0.0,0.0,0.0,0.0,0.0,0.0,0.0,0.0,0.0,0.0,0.0,0.0,0.0,0.0,-0.0555,-0.2217,-0.3133,-0.3488,-0.4934,-0.6273,-0.7335,-0.716,-0.785,-0.8885,-0.8885,-0.879,-0.8703,-0.8648,-0.8547,-0.8421,-0.8275,-0.8225,-0.8204,-0.8029,-0.7988,-0.7988,-0.7988,-0.7988,0.0,-0.7988,-0.7988,-0.7988,-0.7988,-0.807,-0.8431,-0.9619,-1.0758,-1.1802,-1.2774,-1.3717,-1.4369,-1.4135,-1.4088,-1.4088,-1.4088,-1.4088,-1.4088,-1.4088,-1.4088,-1.4088,-1.4088,-1.4088,-1.4088,-1.4088,-1.4088,-1.4088,-1.4088,-1.4088,-1.4088,-1.4088,-1.4088,-1.4573,-1.5662,-1.6723,-1.7827,-1.8997,-2.004,-2.0605,-2.0605,-2.0605,-2.0605,-2.0605,-2.0605,-2.0605,0.0,0.0,0.0,0.0,0.0,0.0,0.0,0.0,0.0,0.0,0.0,0.8885,0.8885,0.0,0.8885,0.8885,0.8893,0.8888,0.8922,0.3753,0.0,0.0,0.0,0.0,0.0,0.0,0.0,0.0,0.0,0.0,0.0,0.0,0.0,0.0,0.0,0.0,0.0,0.0,0.0,0.0,0.0,0.0,-0.0062,-0.1725,-0.2524,-0.2583,-0.4052,-0.5115,-0.5847,-0.6448,-0.7592,-0.8885,-0.8885,-0.8838,-0.8815,-0.8737,-0.8662,-0.8574,-0.8428,-0.8377,-0.835,-0.8204,-0.8153,-0.814,-0.8012,-0.7988,-0.7988,-0.7988,-0.7988,-0.7988,-0.7988,-0.7934,-0.8217,-0.9474,-1.0096,-1.0902,-1.2632,-1.3375,-1.3882,-1.4226,-1.4302,-1.4255,-1.4115,-1.4088,-1.4088,-1.4088,-1.4088,-1.4088,-1.4088,-1.4088,-1.4088,-1.4088,-1.4088,-1.4088,-1.4088,-1.4088,-1.4088,-1.4088,-1.4088,-1.4328,-1.4894,-1.6445,-1.7577,-1.8149,-1.9756,-2.0605,-2.0605,-2.0605,-2.0605,-2.0605,-2.0605,-2.0605,0.0,0.0,0.0,0.0,0.0,0.0,0.0,0.8448,0.8875,0.892,0.8916,0.8885,0.8885,0.8885,0.8885,0.8885,0.9003,0.9094,0.9084,0.4923,0.1439,0.0181,0.0,0.0,0.0,0.0,0.0,0.0,0.0,0.0,0.0,0.0,0.0,0.0,0.0,0.0,0.0,0.0,0.0,0.0,0.0,0.0,-0.0062,-0.1417,-0.2033,-0.2092,-0.3569,-0.4225,-0.4329,-0.6019,-0.7393,-0.8491,-0.8771,-0.8885,-0.8868,-0.8801,-0.8754,-0.8733,-0.8577,-0.8526,-0.8503,-0.836,-0.8344,-0.8248,-0.8123,-0.8012,-0.7988,-0.7988,-0.7988,-0.7988,-0.7988,-0.7988,-0.8283,-0.9361,-0.9591,-1.0145,-1.2178,-1.2674,-1.3012,-1.4027,-1.4156,-1.4132,-1.4166,-1.4122,-1.4088,-1.4088,-1.4088,-1.4088,-1.4088,-1.4088,-1.4088,-1.4088,-1.4088,-1.4088,-1.4088,-1.4088,-1.4088,-1.4088,-1.4088,-1.4088,-1.4088,-1.5959,-1.709,-1.7302,-1.9274,-2.0401,-2.0605,-2.0605,-2.0605,-2.0605,-2.0605,-2.0605,0.9833,0.8901,0.8021,0.7978,0.7998,0.8002,0.0,0.8456,0.8878,0.8925,0.89,0.8885,0.8885,0.8885,0.8885,0.8885,0.9349,0.9678,0.9722,0.9114,0.6517,0.0672,0.0,0.0,0.0,0.0,0.0,0.0,0.0,0.0,0.0,0.0,0.0,0.0,0.0,0.0,0.0,0.0,0.0,0.0,0.0,0.0,0.0,-0.0185,-0.0309,-0.037,-0.1817,-0.2502,-0.2696,-0.5514,-0.6786,-0.7093,-0.838,-0.8885,-0.8881,-0.8865,-0.8858,-0.8838,-0.8737,-0.8682,-0.8659,-0.8509,-0.8374,-0.832,-0.8248,-0.8147,-0.7988,-0.7988,-0.7988,-0.7988,-0.7988,-0.7988,-0.8038,-0.8187,-0.9103,-0.9922,-0.9944,-1.083,-1.1962,-1.2979,-1.2975,-1.3167,-1.4252,-1.4255,-1.4088,-1.4088,-1.4088,-1.4088,-1.4088,-1.4088,-1.4088,-1.4088,-1.4088,-1.4088,-1.4088,-1.4088,-1.4088,-1.4088,-1.4088,-1.4088,-1.4088,-1.5262,-1.6314,-1.7302,-1.855,-1.9638,-2.0605,-2.0605,-2.0605,-2.0605,-2.0605,-2.0605,0.8825,0.8432,0.7988,0.7988,0.7988,0.7979,0.8024,0.8325,0.8688,0.8847,0.889,0.8885,0.8885,0.8885,0.8885,0.8885,0.925,0.9605,0.9791,0.8747,0.6458,0.239,0.166,0.1048,0.0123,0.0,0.0,0.0,0.0,0.0,0.0,0.0,0.0,0.0,0.0,0.0,0.0,0.0,0.0,0.0,0.0,0.0,0.0,0.0,0.0,-0.0062,-0.0667,-0.1432,-0.2287,-0.3572,-0.459,-0.5586,-0.7035,-0.7595,-0.7706,-0.8602,-0.8885,-0.8875,-0.8811,-0.879,-0.8818,-0.8665,-0.8574,-0.8509,-0.8421,-0.8292,-0.8174,-0.8174,-0.8109,-0.7988,-0.7988,-0.7988,-0.7988,-0.7988,-0.8432,-0.9,-0.9657,-1.0215,-1.1159,-1.291,-1.3152,-1.3444,-1.4581,-1.4536,-1.4342,-1.4342,-1.4195,-1.4088,-1.4088,-1.4088,-1.4088,-1.4088,-1.4088,-1.4088,-1.4088,-1.4088,-1.4088,-1.4088,-1.4088,-1.4088,-1.4088,-1.5137,-1.6191,-1.7302,-1.843,-1.952,-2.0605,-2.0605,-2.0605,-2.0605,-2.0605,-2.0605,0.7988,0.7988,0.7988,0.7988,0.7988,0.8019,0.8025,0.8243,0.8569,0.8845,0.8917,0.8885,0.8885,0.8885,0.8885,0.8885,0.915,0.9452,0.9675,0.7974,0.5981,0.3988,0.3014,0.1848,0.0185,0.0,0.0,0.0,0.0,0.0,0.0,0.0,0.0,0.0,0.0,0.0,0.0,0.0,0.0,0.0,0.0,0.0,0.0,0.0,0.0,0.0,0.0,-0.06,-0.1644,-0.2029,-0.2848,-0.4023,-0.5528,-0.6366,-0.6813,-0.7875,-0.8546,-0.8885,-0.8885,-0.8885,-0.8865,-0.8808,-0.8747,-0.8689,-0.8577,-0.8442,-0.8381,-0.8381,-0.8221,-0.8102,-0.8102,-0.8022,-0.7988,-0.7988,-0.7988,-0.8283,-0.9217,-0.946,-1.0053,-1.2062,-1.2404,-1.2821,-1.4325,-1.4282,-1.4158,-1.4442,-1.4342,-1.4175,-1.4095,-1.4088,-1.4088,-1.4088,-1.4088,-1.4088,-1.4088,-1.4088,-1.4088,-1.4088,-1.4088,-1.4088,-1.4088,-1.4859,-1.5745,-1.6846,-1.794,-1.9076,-2.0157,-2.044,-2.0605,-2.0605,-2.0605,-2.0605,0.7988,0.7988,0.7988,0.7988,0.7988,0.7992,0.7995,0.8272,0.8591,0.8867,0.8899,0.8885,0.8885,0.8885,0.8885,0.8885,0.9062,0.9268,0.948,0.8083,0.6522,0.503,0.3445,0.1848,0.0,0.0,0.0,0.0,0.0,0.0,0.0,0.0,0.0,0.0,0.0,0.0,0.0,0.0,0.0,0.0,0.0,0.0,0.0,0.0,0.0,0.0,0.0,0.0,-0.0177,-0.1586,-0.2245,-0.2403,-0.3967,-0.5419,-0.6702,-0.6758,-0.7651,-0.8885,-0.8885,-0.8885,-0.8885,-0.8878,-0.8832,-0.871,-0.8706,-0.8598,-0.8476,-0.8476,-0.8374,-0.8313,-0.8313,-0.815,-0.7988,-0.7988,-0.7988,-0.7988,-0.8038,-0.8038,-0.8478,-0.9842,-0.9841,-1.0426,-1.3006,-1.3216,-1.3375,-1.4338,-1.4466,-1.4402,-1.4122,-1.4088,-1.4088,-1.4088,-1.4088,-1.4088,-1.4088,-1.4088,-1.4088,-1.4088,-1.4088,-1.4088,-1.4088,-1.4124,-1.465,-1.5745,-1.6805,-1.7908,-1.9036,-2.0079,-2.0605,-2.0605,-2.0605,-2.0605,0.7988,0.7988,0.7988,0.7988,0.7988,0.7988,0.7988,0.8269,0.8535,0.8591,0.878,0.8885,0.8885,0.8885,0.8885,0.8885,0.9059,0.9262,0.9419,0.808,0.6577,0.5091,0.3506,0.0,0.0,0.0,0.0,0.0,0.0,0.0,0.0,0.0,0.0,0.0,0.0,0.0,0.0,0.0,0.0,0.0,0.0,0.0,0.0,0.0,0.0,0.0,0.0,0.0,-0.0059,-0.053,-0.075,-0.0896,-0.2404,-0.3296,-0.3964,-0.5973,-0.7035,-0.7595,-0.8546,-0.8885,-0.8885,-0.8885,-0.8848,-0.8807,-0.8807,-0.8754,-0.8632,-0.8632,-0.8526,-0.8387,-0.8347,-0.8231,-0.8167,-0.8015,-0.7988,-0.7988,-0.7988,-0.7988,-0.8382,-0.9756,-0.9898,-1.0387,-1.2123,-1.2875,-1.354,-1.437,-1.4355,-1.4202,-1.4095,-1.4088,-1.4088,-1.4088,-1.4088,-1.4088,-1.4088,-1.4088,-1.4088,-1.4088,-1.4088,-1.4088,-1.4088,-1.4088,-1.4615,-1.5696,-1.6764,-1.7868,-1.8997,-2.0079,-2.0605,-2.0605,-2.0605,-2.0605,0.7988,0.7988,0.7988,0.7988,0.7988,0.7988,0.7988,0.8269,0.8482,0.8482,0.8726,0.8885,0.8885,0.8885,0.8885,0.8885,0.9015,0.8954,0.858,0.7184,0.5626,0.4199,0.2577,0.1171,0.0,0.0,0.0,0.0,0.0,0.0,0.0,0.0,0.0,0.0,0.0,0.0,0.0,0.0,0.0,0.0,0.0,0.0,0.0,0.0,0.0,0.0,0.0,0.0,0.0,0.0,0.0,-0.0112,-0.1064,-0.1733,-0.2458,-0.4354,-0.575,-0.6924,-0.838,-0.8885,-0.8885,-0.8885,-0.8885,-0.8885,-0.8885,-0.8814,-0.8791,-0.8791,-0.8682,-0.8543,-0.8452,-0.8387,-0.8309,-0.8157,-0.8123,-0.8106,-0.8002,-0.7988,-0.8237,-0.9118,-0.9266,-0.9702,-1.1023,-1.2421,-1.3564,-1.4059,-1.4178,-1.4202,-1.4102,-1.4088,-1.4088,-1.4088,-1.4088,-1.4088,-1.4088,-1.4088,-1.4088,-1.4088,-1.4088,-1.4088,-1.4088,-1.4088,-1.4412,-1.5095,-1.6568,-1.7666,-1.839,-1.9883,-2.0605,-2.0605,-2.0605,-2.0605,0.7988,0.7988,0.7988,0.7988,0.7988,0.7988,0.7988,0.8262,0.8472,0.8479,0.872,0.8875,0.8881,0.8885,0.8885,0.8885,0.8826,0.8369,0.7072,0.545,0.3893,0.0,0.0,0.0,0.0,0.0,0.0,0.0,0.0,0.0,0.0,0.0,0.0,0.0,0.0,0.0,0.0,0.0,0.0,0.0,0.0,0.0,0.0,0.0,0.0,0.0,0.0,0.0,0.0,0.0,0.0,0.0,0.0,-0.084,-0.2124,-0.218,-0.4019,-0.6702,-0.8266,-0.8826,-0.8885,-0.8885,-0.8885,-0.8885,-0.8885,-0.8885,-0.8885,-0.8885,-0.8832,-0.872,-0.8713,-0.8604,-0.8459,-0.8368,-0.8327,-0.8231,-0.8032,-0.7995,-0.7988,-0.7988,-0.7988,-0.8432,-0.9756,-1.1811,-1.3269,-1.3391,-1.3994,-1.4369,-1.4148,-1.4095,-1.4088,-1.4088,-1.4088,-1.4088,-1.4088,-1.4088,-1.4088,-1.4088,-1.4088,-1.4088,-1.4088,-1.4088,-1.4088,-1.4088,-1.6165,-1.722,-1.7212,-1.9432,-2.0527,-2.0527,-2.0566,-2.0605,0.7988,0.7988,0.7988,0.7988,0.7988,0.7988,0.7988,0.8187,0.8353,0.8462,0.8635,0.8804,0.8861,0.8885,0.8885,0.8885,0.7986,0.0,0.6958,0.4525,0.0,0.2521,0.1038,0.0,0.0,0.0,0.0,0.0,0.0,0.0,0.0,0.0,0.0,0.0,0.0,0.0,0.0,0.0,0.0,0.0,0.0,0.0,0.0,0.0,0.0,0.0,0.0,0.0,0.0,0.0,0.0,0.0,0.0,-0.0224,-0.0672,-0.1789,-0.2682,-0.3741,-0.6364,-0.7986,-0.8885,-0.8885,-0.8885,-0.8885,-0.8885,-0.8885,-0.8885,-0.8885,-0.8854,-0.8801,-0.874,-0.8682,-0.8615,-0.8465,-0.8347,-0.831,-0.8221,-0.8123,-0.7988,-0.7988,-0.7988,-0.8432,-0.9756,-1.0489,-1.1462,-1.314,-1.3564,-1.387,-1.4339,-1.4222,-1.4088,-1.4088,-1.4088,-1.4088,-1.4088,-1.4088,-1.4088,-1.4088,-1.4088,-1.4088,-1.4088,-1.4088,-1.4088,-1.4088,-1.5428,-1.6108,-1.6108,-1.8341,-1.9402,-1.9441,-2.0245,-2.0605,0.7839,0.7988,0.7988,0.7988,0.7988,0.8008,0.8126,0.8255,0.8404,0.8554,0.8703,0.8835,0.8868,0.838,0.7931,0.0,0.0,0.0,0.4916,0.333,0.1988,0.0,0.0544,0.0,0.0,0.0,0.0,0.0,0.0,0.0,0.0,0.0,0.0,0.0,0.0,0.0,0.0,0.0,0.0,0.0,0.0,0.0,0.0,0.0,0.0,0.0,0.0,0.0,0.0,0.0,0.0,0.0,0.0,0.0,-0.0112,-0.0952,-0.1622,-0.2515,-0.4914,-0.6702,-0.8042,-0.8716,-0.8885,-0.8885,-0.8885,-0.8885,-0.8885,-0.8885,-0.8885,-0.8865,-0.8832,-0.8811,-0.8771,-0.8618,-0.8469,-0.8347,-0.8337,-0.815,-0.7988,-0.7988,-0.7988,-0.8233,-0.897,-0.9608,-1.064,-1.2491,-1.3138,-1.3719,-1.4592,-1.4456,-1.4229,-1.4102,-1.4088,-1.4088,-1.4088,-1.4088,-1.4088,-1.4088,-1.4088,-1.4088,-1.4088,-1.4088,-1.4088,-1.4088,-1.5137,-1.5696,-1.5696,-1.7415,-1.851,-1.8997,-1.9599,-2.0157,0.7132,0.7484,0.7534,0.7686,0.7739,0.7829,0.8235,0.8367,0.8503,0.8676,0.8815,0.8858,0.8878,0.7875,0.698,0.698,0.0,0.4023,0.2682,0.2155,0.1443,0.0176,0.0,0.0,0.0,0.0,0.0,0.0,0.0,0.0,0.0,0.0,0.0,0.0,0.0,0.0,0.0,0.0,0.0,0.0,0.0,0.0,0.0,0.0,0.0,0.0,0.0,0.0,0.0,0.0,0.0,0.0,0.0,0.0,0.0,0.0,-0.0784,-0.2125,-0.3688,-0.5139,-0.67,-0.8377,-0.8885,-0.8885,-0.8885,-0.8885,-0.8885,-0.8885,-0.8885,-0.8885,-0.8885,-0.8885,-0.8851,-0.8771,-0.8625,-0.8472,-0.8381,-0.8163,-0.7988,-0.7988,-0.7988,-0.7988,-0.7988,-0.897,-1.0194,-1.1463,-1.2544,-1.3589,-1.4637,-1.4635,-1.4409,-1.4122,-1.4088,-1.4088,-1.4088,-1.4088,-1.4088,-1.4088,-1.4088,-1.4088,-1.4088,-1.4088,-1.4088,-1.4088,-1.5012,-1.5504,-1.5504,-1.656,-1.7658,-1.8798,-1.8971,-1.9643,0.4616,0.4718,0.4968,0.6077,0.6331,0.6715,0.7977,0.834,0.8384,0.8655,0.873,0.8791,0.8861,0.8716,0.8546,0.8546,0.6255,0.4414,0.4136,0.193,0.0289,0.0,0.0,0.0,0.0,0.0,0.0,0.0,0.0,0.0,0.0,0.0,0.0,0.0,0.0,0.0,0.0,0.0,0.0,0.0,0.0,0.0,0.0,0.0,0.0,0.0,0.0,0.0,0.0,0.0,0.0,0.0,0.0,0.0,0.0,0.0,-0.0168,-0.0616,-0.2069,-0.3575,-0.5306,-0.8042,-0.8885,-0.8885,-0.8885,-0.8885,-0.8885,-0.8885,-0.8885,-0.8885,-0.8885,-0.8885,-0.8875,-0.8851,-0.8781,-0.8628,-0.8479,-0.8231,-0.7988,-0.7988,-0.7988,-0.7988,-0.7988,-0.8187,-0.8775,-1.0145,-1.138,-1.2523,-1.3554,-1.4161,-1.4409,-1.4122,-1.4088,-1.4088,-1.4088,-1.4088,-1.4088,-1.4088,-1.4088,-1.4088,-1.4088,-1.4088,-1.4088,-1.4088,-1.4292,-1.437,-1.437,-1.5462,-1.6519,-1.7634,-1.8917,-2.0062,0.3815,0.4016,0.4166,0.482,0.497,0.5146,0.5962,0.6812,0.7439,0.7633,0.8279,0.8852,0.8868,0.8266,0.7762,0.7762,0.5267,0.3321,0.3292,0.1399,0.0,0.0,0.0,0.0,0.0,0.0,0.0,0.0,0.0,0.0,0.0,0.0,0.0,0.0,0.0,0.0,0.0,0.0,0.0,0.0,0.0,0.0,0.0,0.0,0.0,0.0,0.0,0.0,0.0,0.0,0.0,0.0,0.0,0.0,0.0,0.0,0.0,-0.0224,-0.1677,-0.2682,-0.3798,-0.6811,-0.8266,-0.8885,-0.8885,-0.8885,-0.8885,-0.8885,-0.8885,-0.8885,-0.8885,-0.8885,-0.8885,-0.8885,-0.876,-0.855,-0.8404,-0.8197,-0.7988,-0.7988,-0.7988,-0.7988,-0.7988,-0.7988,-0.8432,-0.9801,-1.1068,-1.225,-1.3286,-1.4305,-1.4803,-1.4362,-1.4175,-1.4088,-1.4088,-1.4088,-1.4088,-1.4088,-1.4088,-1.4088,-1.4088,-1.4088,-1.4088,-1.4088,-1.4088,-1.4088,-1.4088,-1.4768,-1.5965,-1.7672,-1.8573,-1.99,0.2864,0.3165,0.3215,0.3515,0.3565,0.3684,0.4113,0.5129,0.6073,0.6182,0.7174,0.7931,0.7931,0.726,0.6702,0.0,0.4696,0.3028,0.2734,0.1384,0.0334,0.0057,0.0,0.0,0.0,0.0,0.0,0.0,0.0,0.0,0.0,0.0,0.0,0.0,0.0,0.0,0.0,0.0,0.0,0.0,0.0,0.0,0.0,0.0,0.0,0.0,0.0,0.0,0.0,0.0,0.0,0.0,0.0,0.0,0.0,0.0,0.0,-0.0168,-0.1343,-0.1956,-0.257,-0.497,-0.6977,-0.8491,-0.8826,-0.8885,-0.8885,-0.8885,-0.8885,-0.8885,-0.8885,-0.8885,-0.8885,-0.8885,-0.8706,-0.8452,-0.8391,-0.817,-0.7988,-0.7988,-0.7988,-0.7988,-0.7988,-0.7988,-0.8382,-0.941,-1.0925,-1.2169,-1.2983,-1.4431,-1.5197,-1.4669,-1.4355,-1.4155,-1.4088,-1.4088,-1.4088,-1.4088,-1.4088,-1.4088,-1.4088,-1.4088,-1.4088,-1.4088,-1.4148,-1.4182,-1.4182,-1.4469,-1.5807,-1.8095,-1.8409,-1.9796,0.0353,0.0353,0.0656,0.1862,0.2163,0.2527,0.3908,0.4292,0.4477,0.4667,0.4805,0.4916,0.4916,0.5864,0.6702,0.6702,0.6468,0.5799,0.4468,0.2958,0.1517,0.0172,0.0,0.0,0.0,0.0,0.0,0.0,0.0,0.0,0.0,0.0,0.0,0.0,0.0,0.0,0.0,0.0,0.0,0.0,0.0,0.0,0.0,0.0,0.0,0.0,0.0,0.0,0.0,0.0,0.0,0.0,0.0,0.0,0.0,0.0,0.0,0.0,-0.0168,-0.1063,-0.2235,-0.2515,-0.4578,-0.7149,-0.8491,-0.8885,-0.8885,-0.8885,-0.8885,-0.8885,-0.8885,-0.8885,-0.8885,-0.8885,-0.8706,-0.8479,-0.8465,-0.8238,-0.7988,-0.7988,-0.7988,-0.7988,-0.7988,-0.7988,-0.8038,-0.8187,-1.0288,-1.194,-1.2017,-1.4032,-1.5277,-1.5001,-1.4656,-1.4369,-1.4108,-1.4088,-1.4088,-1.4088,-1.4088,-1.4088,-1.4088,-1.4088,-1.4088,-1.4088,-1.4349,-1.4482,-1.4482,-1.4776,-1.6132,-1.8374,-1.8833,-2.028,0.0,0.0,0.0151,0.0656,0.0807,0.096,0.1525,0.2374,0.2994,0.3102,0.3863,0.4527,0.4517,0.4973,0.5641,0.6533,0.0,0.0,0.5656,0.4361,0.2837,0.139,0.1248,0.0,0.0,0.0,0.0,0.0,0.0,0.0,0.0,0.0,0.0,0.0,0.0,0.0,0.0,0.0,0.0,0.0,0.0,0.0,0.0,0.0,0.0,0.0,0.0,0.0,0.0,0.0,0.0,0.0,0.0,0.0,0.0,0.0,0.0,0.0,0.0,-0.0392,-0.1008,-0.1901,-0.3016,-0.4467,-0.6866,-0.8211,-0.8885,-0.8885,-0.8885,-0.8885,-0.8885,-0.8885,-0.8885,-0.8885,-0.8706,-0.8482,-0.8482,-0.8248,-0.7988,-0.7988,-0.7988,-0.7988,-0.7988,-0.7988,-0.7988,-0.7988,-1.0239,-1.1896,-1.1896,-1.4088,-1.5545,-1.5257,-1.4803,-1.4402,-1.4115,-1.4088,-1.4088,-1.4088,-1.4088,-1.4088,-1.4088,-1.4255,-1.4349,-1.4349,-1.4636,-1.4783,-1.4783,-1.5821,-1.7197,-1.8841,-1.9909,-2.1297,0.0,0.0,0.0,0.0,0.0,0.0,0.0,0.0819,0.1559,0.1527,0.2417,0.3175,0.3158,0.3552,0.4161,0.0,0.0,0.4528,0.5124,0.4296,0.3225,0.2179,0.0,0.1321,0.0705,0.024,0.0,0.0,0.0,0.0,0.0,0.0,0.0,0.0,0.0,0.0,0.0,0.0,0.0,0.0,0.0,0.0,0.0,0.0,0.0,0.0,0.0,0.0,0.0,0.0,0.0,0.0,0.0,0.0,0.0,0.0,0.0,0.0,0.0,0.0,-0.0168,-0.1231,-0.1845,-0.257,-0.4745,-0.67,-0.8266,-0.8266,-0.8546,-0.8885,-0.8885,-0.8885,-0.8885,-0.8885,-0.8706,-0.8482,-0.8482,-0.8248,-0.7988,-0.7988,-0.7988,-0.7988,-0.7988,-0.7988,-0.8137,-0.8531,-1.0485,-1.2042,-1.2431,-1.4418,-1.5718,-1.5431,-1.503,-1.4629,-1.4249,-1.4135,-1.4088,-1.4088,-1.4168,-1.4215,-1.4215,-1.4496,-1.4649,-1.4649,-1.4943,-1.5135,-1.5142,-1.6624,-1.7992,-1.9259,-2.0632,-2.1943,0.0,0.0,0.0,0.0,0.0,0.0,0.0,0.0,0.0,0.0,0.0053,0.0055,0.0055,0.1257,0.2238,0.2238,0.3491,0.0,0.2445,0.2213,0.2237,0.0,0.0,0.0568,0.2049,0.0847,0.0,0.0,0.0,0.0,0.0,0.0,0.0,0.0,0.0,0.0,0.0,0.0,0.0,0.0,0.0,0.0,0.0,0.0,0.0,0.0,0.0,0.0,0.0,0.0,0.0,0.0,0.0,0.0,0.0,0.0,0.0,0.0,0.0,0.0,0.0,0.0,-0.1008,-0.218,-0.2235,-0.4355,-0.6702,-0.6702,-0.7762,-0.8885,-0.8885,-0.8885,-0.8885,-0.8885,-0.8706,-0.8482,-0.8482,-0.8248,-0.7988,-0.7988,-0.7988,-0.7988,-0.7988,-0.7988,-0.8432,-0.9805,-1.1072,-1.2382,-1.3734,-1.4997,-1.5718,-1.5431,-1.5391,-1.515,-1.4563,-1.4255,-1.4088,-1.4088,-1.4355,-1.4516,-1.4516,-1.4803,-1.5001,-1.5001,-1.5244,-1.5391,-1.5391,-1.6925,-1.8319,-1.9534,-2.0755,-2.1943,0.0,0.0,0.0,0.0,0.0,0.0,0.0,0.0,0.0,0.0,0.0,0.0,0.0,0.0376,0.102,0.2038,0.2533,0.0,0.0,0.0,0.0,0.2197,0.0843,0.0175,0.0,0.0,0.0,0.0,0.0,0.0,0.0,0.0,0.0,0.0,0.0,0.0,0.0,0.0,0.0,0.0,0.0,0.0,0.0,0.0,0.0,0.0,0.0,0.0,0.0,0.0,0.0,0.0,0.0,0.0,0.0,0.0,0.0,0.0,0.0,0.0,0.0,0.0,-0.0336,-0.0672,-0.0672,-0.3519,-0.6924,-0.7931,-0.8546,-0.8885,-0.8885,-0.8885,-0.8858,-0.8808,-0.8628,-0.8455,-0.836,-0.818,-0.7988,-0.7988,-0.7988,-0.7988,-0.7988,-0.7988,-0.8137,-0.8581,-1.0485,-1.2042,-1.2479,-1.4465,-1.5792,-1.5705,-1.5518,-1.5244,-1.4856,-1.4743,-1.4733,-1.4733,-1.477,-1.4823,-1.4823,-1.5104,-1.5257,-1.5257,-1.5545,-1.5691,-1.5691,-1.7041,-1.8726,-2.0755,-2.1987,-2.2721,0.0,0.0,0.0,0.0,0.0,0.0,0.0,0.0,0.0,0.0,0.0,0.0,0.0,0.0,0.0317,0.1212,0.1297,0.0,0.0,0.0,0.0,0.1354,0.0,0.0,0.0,0.0,0.0,0.0,0.0,0.0,0.0,0.0,0.0,0.0,0.0,0.0,0.0,0.0,0.0,0.0,0.0,0.0,0.0,0.0,0.0,0.0,0.0,0.0,0.0,0.0,0.0,0.0,0.0,0.0,0.0,0.0,0.0,0.0,0.0,0.0,0.0,0.0,0.0,-0.0112,-0.0672,-0.3185,-0.62,-0.7651,-0.8491,-0.8885,-0.8885,-0.8885,-0.8844,-0.8747,-0.8594,-0.8442,-0.835,-0.815,-0.7988,-0.7988,-0.7988,-0.7988,-0.7988,-0.7988,-0.8187,-0.8676,-1.0145,-1.1556,-1.2528,-1.4076,-1.5289,-1.573,-1.5665,-1.5484,-1.5304,-1.5135,-1.5008,-1.5008,-1.5109,-1.5169,-1.5169,-1.5404,-1.5558,-1.5558,-1.5684,-1.5784,-1.5784,-1.7084,-1.8956,-2.1337,-2.2076,-2.2677,0.0,0.0,0.0,0.0,0.0,0.0,0.0,0.0,0.0,0.0,0.0,0.0,0.0,0.0,0.0,0.0,0.0,0.0,0.0,0.0,0.0,0.0,0.1193,0.0,0.0117,0.0,0.0,0.0,0.0,0.0,0.0,0.0,0.0,0.0,0.0,0.0,0.0,0.0,0.0,0.0,0.0,0.0,0.0,0.0,0.0,0.0,0.0,0.0,0.0,0.0,0.0,0.0,0.0,0.0,0.0,0.0,0.0,0.0,0.0,0.0,0.0,0.0,0.0,-0.028,-0.1622,-0.3129,-0.4693,-0.6255,-0.7706,-0.8771,-0.8881,-0.8875,-0.8828,-0.873,-0.8577,-0.8428,-0.8286,-0.814,-0.7988,-0.7988,-0.7988,-0.7988,-0.7988,-0.7988,-0.8432,-0.9657,-0.9953,-1.0872,-1.3295,-1.3776,-1.4364,-1.5534,-1.573,-1.5784,-1.5784,-1.5337,-1.5068,-1.5068,-1.5277,-1.5431,-1.5431,-1.5685,-1.5784,-1.5784,-1.5784,-1.5784,-1.5784,-1.7084,-1.8864,-2.1069,-2.1203,-2.1889,0.0,0.0,0.0,0.0,0.0,0.0,0.0,0.0,0.0,0.0,0.0,0.0,0.0,0.0,0.0,0.0,0.0,0.0,0.0,0.0,0.0,0.0,0.0284,0.0403,0.0058,0.0,0.0,0.0,0.0,0.0,0.0,0.0,0.0,0.0,0.0,0.0,0.0,0.0,0.0,0.0,0.0,0.0,0.0,0.0,0.0,0.0,0.0,0.0,0.0,0.0,0.0,0.0,0.0,0.0,0.0,0.0,0.0,0.0,0.0,0.0,0.0,0.0,0.0,-0.0056,-0.0392,-0.1566,-0.3296,-0.5973,-0.6924,-0.7485,-0.8602,-0.8797,-0.8726,-0.857,-0.8425,-0.8279,-0.8126,-0.8015,-0.7988,-0.7988,-0.7988,-0.7988,-0.7988,-0.7988,-0.8088,-0.8432,-0.9361,-1.0243,-1.0823,-1.2662,-1.4022,-1.4316,-1.5242,-1.5784,-1.5784,-1.5705,-1.5625,-1.5625,-1.5691,-1.5732,-1.5732,-1.5792,-1.5784,-1.5784,-1.5784,-1.5784,-1.5784,-1.7084,-1.8002,-1.8588,-2.044,-2.1426,0.0,0.0,0.0,0.0,0.0,0.0,0.0,0.0,0.0,0.0,0.0,0.0,0.0,0.0,0.0,0.0,0.0,0.0,0.0,0.0,0.0,0.0,0.0,0.0,0.0,0.0,0.0297,0.1083,0.0425,0.0306,0.1109,0.0432,0.0,0.0,0.0,0.0,0.0,0.0,0.0,0.0,0.0,0.0,0.0,0.0,0.0,0.0,0.0,0.0,0.0,0.0,0.0,0.0,0.0,0.0,0.0,0.0,0.0,0.0,0.0,0.0,0.0,0.0,0.0,0.0,0.0,-0.056,-0.1846,-0.4858,-0.6109,-0.6952,-0.8446,-0.872,-0.8567,-0.8421,-0.8378,-0.8228,-0.8022,-0.7988,-0.7988,-0.7988,-0.7988,-0.7988,-0.7988,-0.7988,-0.7988,-0.7988,-0.863,-0.9312,-0.9899,-1.1745,-1.3199,-1.3824,-1.5045,-1.5784,-1.5784,-1.5784,-1.5784,-1.5784,-1.5784,-1.5784,-1.5784,-1.5784,-1.5784,-1.5784,-1.5784,-1.5784,-1.5784,-1.648,-1.7131,-1.7731,-1.9039,-2.026,0.0,0.0,0.0,0.0,0.0,0.0,0.0,0.0,0.0,0.0,0.0,0.0,0.0,0.0,0.0,0.0,0.0,0.0,0.0,0.0,0.0,0.0,0.0,0.0,0.0,0.0,0.0697,0.2324,0.1139,0.1086,0.2688,0.1468,0.0552,0.0369,0.0307,0.0246,0.0,0.0,0.0,0.0,0.0,0.0,0.0,0.0,0.0,0.0,0.0,0.0,0.0,0.0,0.0,0.0,0.0,0.0,0.0,0.0,0.0,0.0,0.0,0.0,0.0,0.0,0.0,0.0,0.0,0.0,-0.0556,-0.3384,-0.4947,-0.6253,-0.792,-0.8242,-0.8206,-0.8296,-0.8252,-0.8201,-0.8019,-0.7988,-0.7988,-0.7988,-0.7988,-0.7988,-0.7988,-0.7988,-0.7988,-0.7988,-0.7988,-0.8432,-0.9558,-1.0828,-1.2139,-1.344,-1.4752,-1.5588,-1.5778,-1.5784,-1.5784,-1.5784,-1.5784,-1.5784,-1.5784,-1.5784,-1.5784,-1.5784,-1.5784,-1.5784,-1.5784,-1.5784,-1.6339,-1.7412,-1.7598,-1.891,0.0,0.0,0.0,0.0,0.0,0.0,0.0,0.0,0.0,0.0,0.0,0.0,0.0,0.0,0.0,0.0,0.0,0.0,0.0,0.0,0.0,0.0,0.0,0.0,0.0,0.0,0.0633,0.2136,0.1989,0.2536,0.4133,0.3958,0.3211,0.1931,0.1871,0.1277,0.0,0.0,0.0,0.0,0.0,0.0,0.0,0.0,0.0,0.0,0.0,0.0,0.0,0.0,0.0,0.0,0.0,0.0,0.0,0.0,0.0,0.0,0.0,0.0,0.0,0.0,0.0,0.0,0.0,0.0,-0.0376,-0.2091,-0.2702,-0.3476,-0.6143,-0.6722,-0.6935,-0.8013,-0.817,-0.8019,-0.7995,-0.7988,-0.7988,-0.7988,-0.7988,-0.7988,-0.7988,-0.7988,-0.7988,-0.7988,-0.7988,-0.8088,-0.8283,-0.946,-1.0779,-1.2091,-1.3397,-1.4609,-1.573,-1.5784,-1.5784,-1.5784,-1.5784,-1.5784,-1.5784,-1.5784,-1.5784,-1.5784,-1.5784,-1.5784,-1.5784,-1.5784,-1.592,-1.6109,-1.7178,-1.8457,0.0,0.0,0.0,0.0,0.0,0.0,0.0,0.0,0.0,0.0,0.0,0.0,0.0,0.0,0.0,0.0,0.0,0.0,0.0,0.0,0.0,0.0,0.0,0.0,0.0,0.0,0.0683,0.2234,0.225,0.2907,0.4511,0.4513,0.4175,0.3438,0.3439,0.3095,0.246,0.2461,0.199,0.1156,0.0363,0.042,0.1189,0.0354,0.0,0.0,0.0,0.0,0.0,0.0,0.0,0.0,0.0,0.0,0.0,0.0,0.0,0.0,0.0,0.0,0.0,0.0,0.0,0.0,0.0,0.0,-0.016,-0.0842,-0.153,-0.275,-0.5654,-0.629,-0.646,-0.7837,-0.8092,-0.7988,-0.7988,-0.7988,-0.7988,-0.7988,-0.7988,-0.7988,-0.7988,-0.7988,-0.7988,-0.7988,-0.7988,-0.7988,-0.7988,-0.9167,-1.0243,-1.0828,-1.2668,-1.4118,-1.4704,-1.5384,-1.5784,-1.5784,-1.5784,-1.5784,-1.5784,-1.5784,-1.5784,-1.5784,-1.5784,-1.5784,-1.5784,-1.5784,-1.5784,-1.5825,-1.6386,-1.7358,0.0,0.0,0.0,0.0,0.0,0.0,0.0,0.0,0.0,0.0,0.0,0.0,0.0,0.0,0.0,0.0,0.0,0.0,0.0,0.0,0.0,0.0,0.0,0.0,0.0,0.0,0.0845,0.2846,0.2848,0.3606,0.5559,0.5563,0.5398,0.5009,0.5009,0.4844,0.4513,0.4496,0.3879,0.2749,0.1596,0.1642,0.2683,0.1212,0.0516,0.0513,0.0169,0.0,0.0,0.0,0.0,0.0,0.0,0.0,0.0,0.0,0.0,0.0,0.0,0.0,0.0,0.0,0.0,0.0,0.0,0.0,0.0,0.0,-0.0721,-0.2107,-0.4614,-0.5429,-0.5877,-0.7232,-0.7786,-0.7988,-0.7988,-0.7988,-0.7988,-0.7988,-0.7988,-0.7988,-0.7988,-0.7988,-0.7988,-0.7988,-0.7988,-0.7988,-0.7988,-0.8874,-0.9657,-0.9948,-1.2086,-1.3686,-1.4268,-1.5242,-1.5784,-1.5784,-1.5784,-1.5784,-1.5784,-1.5784,-1.5784,-1.5784,-1.5784,-1.5784,-1.5784,-1.5784,-1.5784,-1.5784,-1.5784,-1.6615,0.0,0.0,0.0,0.0,0.0,0.0,0.0,0.0,0.0,0.0,0.0,0.0,0.0,0.0,0.0,0.0,0.0,0.0,0.0,0.0,0.0,0.0,0.0,0.0,0.0,0.0,0.1232,0.4142,0.4367,0.5599,0.8464,0.8575,0.7953,0.6581,0.6526,0.5884,0.4513,0.4503,0.4449,0.4345,0.4222,0.4245,0.4297,0.2751,0.2046,0.196,0.0616,0.0,0.0,0.0,0.0,0.0,0.0,0.0,0.0,0.0,0.0,0.0,0.0,0.0,0.0,0.0,0.0,0.0,0.0,0.0,0.0,0.0,-0.0051,-0.0455,-0.1917,-0.3219,-0.4468,-0.5827,-0.7083,-0.7988,-0.7988,-0.7988,-0.7988,-0.7988,-0.7988,-0.7988,-0.7988,-0.7988,-0.7988,-0.7988,-0.7988,-0.7988,-0.7988,-0.8088,-0.8627,-0.985,-1.1214,-1.3011,-1.5439,-1.573,-1.5784,-1.5784,-1.5784,-1.5784,-1.5784,-1.5784,-1.5784,-1.5784,-1.5784,-1.5784,-1.5784,-1.5784,-1.5784,-1.5784,-1.5784,-1.707,0.0,0.0,0.0,0.0,0.0,0.0,0.0,0.0,0.0,0.0,0.0,0.0,0.0,0.0,0.0,0.0,0.0,0.0,0.0,0.0,0.0,0.0,0.0,0.0,0.0,0.0,0.0499,0.1622,0.3466,0.4973,0.6086,0.7931,0.8624,0.8112,0.8056,0.7797,0.722,0.7233,0.7233,0.7223,0.5405,0.4991,0.5803,0.3326,0.2193,0.2124,0.0616,0.0,0.0,0.0,0.0,0.0,0.0,0.0,0.0,0.0,0.0,0.0,0.0,0.0,0.0,0.0,0.0,0.0,0.0,0.0,0.0,0.0,0.0,-0.0303,-0.1661,-0.3015,-0.4318,-0.5677,-0.7033,-0.7988,-0.7988,-0.7988,-0.7988,-0.7988,-0.7988,-0.7988,-0.7988,-0.7988,-0.7988,-0.7988,-0.7988,-0.7988,-0.7988,-0.7988,-0.8187,-0.8726,-1.0632,-1.2624,-1.4465,-1.5337,-1.5784,-1.5784,-1.5784,-1.5784,-1.5784,-1.5784,-1.5784,-1.5784,-1.5784,-1.5784,-1.5784,-1.5784,-1.5784,-1.5784,-1.5784,-1.6756,0.0,0.0,0.0,0.0,0.0,0.0,0.0,0.0,0.0,0.0,0.0,0.0,0.0,0.0,0.0,0.0,0.0,0.0,0.0,0.0,0.0,0.0,0.0,0.0,0.0,0.0,0.0218,0.0661,0.3026,0.4629,0.5153,0.7532,0.8834,0.8881,0.8885,0.8885,0.8885,0.8885,0.8885,0.8881,0.6869,0.6422,0.7315,0.4801,0.3352,0.285,0.1343,0.0448,0.0,0.0,0.0,0.0,0.0,0.0,0.0,0.0,0.0,0.0,0.0,0.0,0.0,0.0,0.0,0.0,0.0,0.0,0.0,0.0,0.0,-0.0202,-0.1109,-0.2363,-0.3717,-0.5072,-0.6379,-0.7484,-0.7889,-0.7988,-0.7988,-0.7988,-0.7988,-0.7988,-0.7988,-0.7988,-0.7988,-0.7988,-0.7988,-0.7988,-0.7988,-0.7988,-0.8187,-0.8577,-1.0583,-1.2431,-1.3776,-1.5045,-1.5784,-1.5784,-1.5784,-1.5784,-1.5784,-1.5784,-1.5784,-1.5784,-1.5784,-1.5784,-1.5784,-1.5784,-1.5784,-1.5784,-1.5784,-1.648,0.0,0.0,0.0,0.0,0.0,0.0,0.0,0.0,0.0,0.0,0.0,0.0,0.0,0.0,0.0,0.0,0.0,0.0,0.0,0.0,0.0,0.0,0.0,0.0,0.0,0.0,0.0586,0.2073,0.3451,0.4915,0.6578,0.7945,0.8777,0.8875,0.8878,0.8881,0.8881,0.8885,0.8885,0.8885,0.8885,0.8885,0.8826,0.7371,0.5919,0.4414,0.285,0.1399,0.0,0.0,0.0,0.0,0.0,0.0,0.0,0.0,0.0,0.0,0.0,0.0,0.0,0.0,0.0,0.0,0.0,0.0,0.0,0.0,0.0,0.0,0.0,-0.1008,-0.2314,-0.3665,-0.5022,-0.6379,-0.7686,-0.7988,-0.7988,-0.7988,-0.7988,-0.7988,-0.7988,-0.7988,-0.7988,-0.7988,-0.7988,-0.7988,-0.7988,-0.7988,-0.8528,-0.985,-1.1116,-1.2431,-1.3776,-1.5045,-1.5784,-1.5784,-1.5784,-1.5784,-1.5784,-1.5784,-1.5784,-1.5784,-1.5784,-1.5784,-1.5784,-1.5784,-1.5784,-1.5784,-1.5784,-1.648,0.0,0.0,0.0,0.0,0.0,0.0,0.0,0.0,0.0,0.0,0.0,0.0,0.0,0.0,0.0,0.0,0.0,0.0,0.0,0.0,0.0,0.0,0.0,0.0,0.0,0.0,0.0158,0.0639,0.2868,0.4413,0.4915,0.7263,0.857,0.8615,0.8723,0.8777,0.8777,0.8828,0.8885,0.8885,0.8885,0.8885,0.8826,0.7371,0.6478,0.5919,0.3295,0.1944,0.1484,0.0435,0.0,0.0,0.0,0.0,0.0,0.0,0.0,0.0,0.0,0.0,0.0,0.0,0.0,0.0,0.0,0.0,0.0,0.0,0.0,0.0,0.0,-0.0303,-0.0907,-0.2264,-0.4321,-0.6129,-0.6531,-0.7335,-0.7988,-0.7988,-0.7988,-0.7988,-0.7988,-0.7988,-0.7988,-0.7988,-0.7988,-0.7988,-0.7988,-0.7988,-0.8137,-0.8528,-1.0583,-1.2042,-1.2479,-1.4519,-1.5784,-1.5784,-1.5784,-1.5784,-1.5784,-1.5784,-1.5784,-1.5784,-1.5784,-1.5784,-1.5784,-1.5784,-1.5784,-1.5784,-1.5784,-1.648,0.0,0.0,0.0,0.0,0.0,0.0,0.0,0.0,0.0,0.0,0.0,0.0,0.0,0.0,0.0,0.0,0.0,0.0,0.0,0.0,0.0,0.0,0.0,0.0,0.0,0.0,0.0,0.0,0.2548,0.4165,0.4196,0.687,0.8425,0.8479,0.857,0.8618,0.8618,0.871,0.8757,0.8757,0.8757,0.8757,0.8706,0.7938,0.7232,0.6466,0.3404,0.2126,0.1996,0.0584,0.0,0.0,0.0,0.0,0.0,0.0,0.0,0.0,0.0,0.0,0.0,0.0,0.0,0.0,0.0,0.0,0.0,0.0,0.0,0.0,0.0,0.0,-0.0353,-0.1661,-0.3618,-0.5372,-0.5879,-0.7033,-0.7988,-0.7988,-0.7988,-0.7988,-0.7988,-0.7988,-0.7988,-0.7988,-0.7988,-0.7988,-0.7988,-0.7988,-0.7988,-0.7988,-1.0337,-1.1896,-1.1896,-1.4322,-1.5784,-1.5784,-1.5784,-1.5784,-1.5784,-1.5784,-1.5784,-1.5784,-1.5784,-1.5784,-1.5784,-1.5784,-1.5784,-1.5784,-1.5784,-1.6204,0.0,0.0,0.0,0.0,0.0,0.0,0.0,0.0,0.0,0.0,0.0,0.0,0.0,0.0,0.0,0.0,0.0,0.0,0.0,0.0,0.0,0.0,0.0,0.0,0.0,0.0,0.0,0.0,0.2464,0.4046,0.4167,0.6799,0.8309,0.8438,0.8455,0.8462,0.8462,0.8476,0.8482,0.8482,0.8482,0.8482,0.8489,0.8771,0.7992,0.6344,0.3574,0.2226,0.1906,0.0677,0.0104,0.0,0.0,0.0,0.0,0.0,0.0,0.0,0.0,0.0,0.0,0.0,0.0,0.0,0.0,0.0,0.0,0.0,0.0,0.0,0.0,0.0,-0.0353,-0.1661,-0.2914,-0.4168,-0.5525,-0.6883,-0.7839,-0.7988,-0.7988,-0.7988,-0.7988,-0.7988,-0.7988,-0.7988,-0.7988,-0.7988,-0.7988,-0.7988,-0.7988,-0.7988,-1.0337,-1.1896,-1.1896,-1.4322,-1.5784,-1.5784,-1.5784,-1.5784,-1.5784,-1.5784,-1.5784,-1.5784,-1.5784,-1.5784,-1.5784,-1.5784,-1.5784,-1.5784,-1.5784,-1.5784,0.0,0.0,0.0,0.0,0.0,0.0,0.0,0.0,0.0,0.0,0.0,0.0,0.0,0.0,0.0,0.0,0.0,0.0,0.0,0.0,0.0,0.0,0.0,0.0,0.0,0.0,0.0,0.0,0.2464,0.4022,0.4039,0.6617,0.8052,0.8083,0.8252,0.8368,0.8368,0.8425,0.8482,0.8482,0.8482,0.8482,0.8482,0.855,0.7756,0.6283,0.5647,0.4102,0.1975,0.1684,0.0963,0.0,0.0,0.0,0.0,0.0,0.0,0.0,0.0,0.0,0.0,0.0,0.0,0.0,0.0,0.0,0.0,0.0,0.0,0.0,0.0,0.0,-0.0353,-0.1661,-0.2213,-0.2815,-0.4117,-0.5472,-0.6734,-0.7789,-0.7988,-0.7988,-0.7988,-0.7988,-0.7988,-0.7988,-0.7988,-0.7988,-0.7988,-0.7988,-0.7988,-0.7988,-1.0337,-1.1896,-1.1896,-1.4322,-1.5784,-1.5784,-1.5784,-1.5784,-1.5784,-1.5784,-1.5784,-1.5784,-1.5784,-1.5784,-1.5784,-1.5784,-1.5784,-1.5784,-1.5784,-1.5784,0.0,0.0,0.0,0.0,0.0,0.0,0.0,0.0,0.0,0.0,0.0,0.0,0.0,0.0,0.0,0.0,0.0,0.0,0.0,0.0,0.0,0.0,0.0,0.0,0.0,0.0,0.0,0.0,0.2469,0.4016,0.4016,0.6548,0.7988,0.7988,0.8116,0.816,0.816,0.8231,0.8269,0.8269,0.8269,0.8269,0.8272,0.8347,0.7959,0.7217,0.6471,0.494,0.2904,0.2272,0.1209,0.0,0.0,0.0,0.0,0.0,0.0,0.0,0.0,0.0,0.0,0.0,0.0,0.0,0.0,0.0,0.0,0.0,0.0,0.0,0.0,0.0,-0.0349,-0.1689,-0.2498,-0.3316,-0.467,-0.6027,-0.7182,-0.7889,-0.7988,-0.7988,-0.7988,-0.7988,-0.7988,-0.7988,-0.7988,-0.7988,-0.7988,-0.7988,-0.7988,-0.7988,-0.9801,-1.1214,-1.1848,-1.374,-1.5146,-1.5778,-1.5784,-1.5784,-1.5784,-1.5784,-1.5784,-1.5784,-1.5784,-1.5784,-1.5784,-1.5784,-1.5784,-1.5784,-1.5784,-1.5784,0.0,0.0,0.0,0.0,0.0,0.0,0.0,0.0,0.0,0.0,0.0,0.0,0.0,0.0,0.0,0.0,0.0,0.0,0.0,0.0,0.0,0.0,0.0,0.0,0.0,0.0,0.0,0.0,0.2461,0.3988,0.3988,0.6464,0.7924,0.7948,0.7951,0.7965,0.7988,0.7988,0.7988,0.7988,0.7988,0.7988,0.7992,0.8174,0.8231,0.817,0.6879,0.5575,0.4218,0.2914,0.1558,0.0301,0.0101,0.0,0.0,0.0,0.0,0.0,0.0,0.0,0.0,0.0,0.0,0.0,0.0,0.0,0.0,0.0,0.0,0.0,0.0,0.0,-0.0342,-0.1704,-0.3009,-0.4351,-0.5722,-0.6883,-0.7736,-0.7939,-0.7988,-0.7988,-0.7988,-0.7988,-0.7988,-0.7988,-0.7988,-0.7988,-0.7988,-0.7988,-0.7988,-0.7988,-0.9217,-1.0534,-1.1799,-1.3151,-1.4459,-1.573,-1.5784,-1.5784,-1.5784,-1.5784,-1.5784,-1.5784,-1.5784,-1.5784,-1.5784,-1.5784,-1.5784,-1.5784,-1.5784,-1.5784,0.0,0.0,0.0,0.0,0.0,0.0,0.0,0.0,0.0,0.0,0.0,0.0,0.0,0.0,0.0,0.0,0.0,0.0,0.0,0.0,0.0,0.0,0.0,0.0,0.0,0.0,0.0,0.0,0.2382,0.3811,0.3811,0.6256,0.7712,0.7838,0.7841,0.7906,0.7988,0.7988,0.7988,0.7988,0.7988,0.7988,0.7988,0.8012,0.8019,0.8019,0.7846,0.6983,0.5627,0.4268,0.2937,0.1621,0.0443,0.0,0.0,0.0,0.0,0.0,0.0,0.0,0.0,0.0,0.0,0.0,0.0,0.0,0.0,0.0,0.0,0.0,0.0,0.0,-0.0335,-0.1672,-0.3001,-0.4385,-0.5708,-0.6129,-0.6631,-0.7786,-0.7988,-0.7988,-0.7988,-0.7988,-0.7988,-0.7988,-0.7988,-0.7988,-0.7988,-0.7988,-0.7988,-0.7988,-0.9217,-1.0534,-1.1799,-1.3151,-1.4459,-1.573,-1.5784,-1.5784,-1.5784,-1.5784,-1.5784,-1.5784,-1.5784,-1.5784,-1.5784,-1.5784,-1.5784,-1.5784,-1.5784,-1.5784,0.0,0.0,0.0,0.0,0.0,0.0,0.0,0.0,0.0,0.0,0.0,0.0,0.0,0.0,0.0,0.0,0.0,0.0,0.0,0.0,0.0,0.0,0.0,0.0,0.0,0.0,0.0,0.0,0.2369,0.378,0.378,0.6225,0.7628,0.7692,0.7692,0.7763,0.7909,0.7913,0.7907,0.7988,0.7988,0.7988,0.7985,0.7901,0.7911,0.7988,0.7988,0.7192,0.5834,0.5239,0.3765,0.183,0.1253,0.0576,0.0,0.0,0.0,0.0,0.0,0.0,0.0,0.0,0.0,0.0,0.0,0.0,0.0,0.0,0.0,0.0,0.0,0.0,-0.0328,-0.1685,-0.2469,-0.3424,-0.5441,-0.6533,-0.7285,-0.7889,-0.7988,-0.7988,-0.7988,-0.7988,-0.7988,-0.7988,-0.7988,-0.7988,-0.7988,-0.7988,-0.7988,-0.7988,-0.8531,-0.941,-1.073,-1.2042,-1.3349,-1.4657,-1.5391,-1.5784,-1.5784,-1.5784,-1.5784,-1.5784,-1.5784,-1.5784,-1.5784,-1.5784,-1.5784,-1.5784,-1.5784,-1.5784,0.0,0.0,0.0,0.0,0.0,0.0,0.0,0.0,0.0,0.0,0.0,0.0,0.0,0.0,0.0,0.0,0.0,0.0,0.0,0.0,0.0,0.0,0.0,0.0,0.0,0.0,0.0,0.0,0.2314,0.3746,0.3746,0.6118,0.7502,0.7539,0.7543,0.7611,0.7756,0.7756,0.7814,0.7877,0.7877,0.7877,0.7874,0.7811,0.7821,0.7877,0.7877,0.7271,0.6254,0.5911,0.4554,0.2689,0.203,0.1272,0.0422,0.0094,0.0,0.0,0.0,0.0,0.0,0.0,0.0,0.0,0.0,0.0,0.0,0.0,0.0,0.0,0.0,0.0,-0.023,-0.1238,-0.1769,-0.2693,-0.5258,-0.6891,-0.7877,-0.7877,-0.7877,-0.7891,-0.7924,-0.7931,-0.7944,-0.7985,-0.7988,-0.7988,-0.7988,-0.7988,-0.7988,-0.7988,-0.7988,-0.8528,-0.9899,-1.0877,-1.1989,-1.3295,-1.4609,-1.5343,-1.5343,-1.5563,-1.5718,-1.5718,-1.5645,-1.5645,-1.5718,-1.5645,-1.5611,-1.5611,-1.5611,-1.5611,0.0,0.0,0.0,0.0,0.0,0.0,0.0,0.0,0.0,0.0,0.0,0.0,0.0,0.0,0.0,0.0,0.0,0.0,0.0,0.0,0.0,0.0,0.0,0.0,0.0,0.0,0.0,0.0,0.2238,0.3621,0.3621,0.5858,0.7231,0.7422,0.7429,0.7455,0.7607,0.7611,0.7614,0.7624,0.7624,0.7624,0.7624,0.7614,0.7614,0.7624,0.7624,0.757,0.7419,0.6125,0.5541,0.517,0.2726,0.1782,0.1572,0.0405,0.0,0.0,0.0,0.0,0.0,0.0,0.0,0.0,0.0,0.0,0.0,0.0,0.0,0.0,0.0,0.0,0.0,-0.009,-0.1095,-0.2693,-0.5242,-0.675,-0.7624,-0.7624,-0.7624,-0.7665,-0.7801,-0.7824,-0.7872,-0.7968,-0.7988,-0.7988,-0.7988,-0.7988,-0.7988,-0.7988,-0.7988,-0.8528,-0.9899,-1.0047,-1.0632,-1.1896,-1.3247,-1.4022,-1.4022,-1.4891,-1.5418,-1.5418,-1.515,-1.5189,-1.5418,-1.5189,-1.5055,-1.5055,-1.5055,-1.5055,0.0,0.0,0.0,0.0,0.0,0.0,0.0,0.0,0.0,0.0,0.0,0.0,0.0,0.0,0.0,0.0,0.0,0.0,0.0,0.0,0.0,0.0,0.0,0.0,0.0,0.0,0.0,0.0,0.2236,0.3614,0.3614,0.5844,0.7122,0.7221,0.7224,0.7295,0.7451,0.755,0.76,0.76,0.76,0.76,0.7597,0.7499,0.7455,0.7448,0.7346,0.736,0.7451,0.6934,0.6253,0.5285,0.3612,0.2475,0.1657,0.0449,0.0,0.0,0.0,0.0,0.0,0.0,0.0,0.0,0.0,0.0,0.0,0.0,0.0,0.0,0.0,0.0,0.0,0.0,-0.0947,-0.2356,-0.4008,-0.6103,-0.76,-0.76,-0.76,-0.7614,-0.7665,-0.7675,-0.7695,-0.775,-0.7756,-0.779,-0.7882,-0.7892,-0.788,-0.7978,-0.7988,-0.8187,-0.8676,-0.9509,-1.0194,-1.0632,-1.1809,-1.2816,-1.3531,-1.3859,-1.4325,-1.5117,-1.483,-1.4823,-1.5117,-1.5062,-1.5008,-1.5008,-1.5008,-1.5008,0.0,0.0,0.0,0.0,0.0,0.0,0.0,0.0,0.0,0.0,0.0,0.0,0.0,0.0,0.0,0.0,0.0,0.0,0.0,0.0,0.0,0.0,0.0,0.0,0.0,0.0,0.0,0.0,0.2236,0.0,0.3614,0.5844,0.7095,0.7095,0.7095,0.7146,0.7292,0.7394,0.7444,0.7444,0.7444,0.7444,0.7441,0.7339,0.7292,0.7288,0.7139,0.7156,0.7292,0.7292,0.678,0.5802,0.4239,0.3126,0.2191,0.0583,0.0,0.0,0.0,0.0,0.0,0.0,0.0,0.0,0.0,0.0,0.0,0.0,0.0,0.0,0.0,0.0,0.0,0.0,-0.0942,-0.2147,-0.3347,-0.5337,-0.698,-0.7352,-0.7444,-0.7461,-0.7512,-0.7522,-0.7539,-0.7594,-0.76,-0.7634,-0.7729,-0.774,-0.778,-0.7833,-0.7843,-0.7843,-0.7843,-0.8661,-0.9191,-0.9191,-1.0303,-1.149,-1.2661,-1.2933,-1.3625,-1.4816,-1.4529,-1.4476,-1.4713,-1.4713,-1.4713,-1.4713,-1.4713,-1.4713,0.0,0.0,0.0,0.0,0.009,0.0,0.0045,0.0,0.0,0.0,0.0,0.0,0.0,0.0,0.0,0.0,0.0,0.0,0.0,0.0,0.0,0.0,0.0,0.0,0.0,0.0,0.0,0.0,0.2236,0.3614,0.3614,0.5844,0.7095,0.7095,0.7095,0.7095,0.7095,0.7095,0.7095,0.7095,0.7095,0.7095,0.7095,0.7095,0.7095,0.7095,0.7095,0.7095,0.7095,0.7095,0.7095,0.6871,0.455,0.3659,0.3349,0.0986,0.009,0.009,0.0045,0.0045,0.0045,0.0,0.0,0.0,0.0,0.0,0.0,0.0,0.0,0.0,0.0,0.0,0.0,0.0,-0.0897,-0.2057,-0.3303,-0.4463,-0.5669,-0.6874,-0.7095,-0.7142,-0.7339,-0.7409,-0.7414,-0.7563,-0.7587,-0.7587,-0.7594,-0.7594,-0.7594,-0.76,-0.76,-0.76,-0.76,-0.76,-0.76,-0.76,-0.8738,-0.9974,-1.1181,-1.2215,-1.3286,-1.4415,-1.4229,-1.4088,-1.4088,-1.4088,-1.4088,-1.4088,-1.4088,-1.4088,0.1522,0.0,0.0,0.0,0.0,0.0,0.1299,0.0628,0.0,0.0,0.0,0.0,0.0,0.0,0.0,0.0,0.0,0.0,0.0,0.0,0.0,0.0,0.0,0.0,0.0,0.0,0.0,0.0,0.2236,0.3614,0.3614,0.5844,0.7095,0.7095,0.7095,0.7095,0.7095,0.7095,0.7095,0.7095,0.7095,0.7095,0.7095,0.7095,0.7095,0.7095,0.7095,0.7095,0.7095,0.7095,0.7095,0.6962,0.5489,0.491,0.4732,0.3172,0.2592,0.2458,0.1612,0.1299,0.1165,0.0269,0.0,0.0,0.0,0.0,0.0,0.0,0.0,0.0,0.0,0.0,0.0,0.0,-0.0269,-0.0807,-0.2057,-0.2549,-0.3662,-0.6558,-0.7095,-0.7109,-0.7152,-0.7204,-0.7217,-0.7216,-0.7223,-0.7309,-0.7421,-0.7434,-0.7478,-0.7587,-0.76,-0.76,-0.76,-0.76,-0.76,-0.76,-0.7859,-0.8512,-0.9682,-1.0686,-1.1743,-1.2875,-1.3685,-1.4088,-1.4088,-1.4088,-1.4088,-1.4088,-1.4088,-1.4088,0.2726,0.3081,0.3563,0.3488,0.0,0.0,0.181,0.1185,0.0527,0.0,0.0,0.0,0.0,0.0,0.0,0.0,0.0,0.0,0.0,0.0,0.0,0.0,0.0,0.0,0.0,0.0449,0.0763,0.0763,0.2994,0.455,0.5041,0.6378,0.7095,0.7095,0.7095,0.7095,0.7095,0.7095,0.7095,0.7095,0.7095,0.7095,0.7095,0.7095,0.7095,0.7095,0.7095,0.7095,0.7095,0.7095,0.7095,0.7007,0.5849,0.5403,0.527,0.4061,0.3614,0.3436,0.2236,0.179,0.1612,0.0404,0.0,0.0,0.0,0.0,0.0,0.0,0.0,0.0,0.0,0.0,0.0,0.0,0.0,-0.0314,-0.1522,-0.179,-0.2727,-0.5802,-0.6381,-0.6561,-0.7007,-0.7095,-0.7095,-0.7095,-0.7095,-0.7129,-0.7261,-0.7275,-0.7309,-0.7397,-0.7407,-0.7407,-0.7407,-0.7407,-0.7407,-0.7407,-0.7326,-0.7807,-0.8953,-0.9595,-1.0438,-1.1558,-1.2772,-1.3603,-1.4088,-1.4088,-1.4088,-1.4088,-1.4088,-1.4088,0.3826,0.3868,0.3938,0.3729,0.3623,0.0,0.2201,0.187,0.1484,0.053,0.0351,0.0349,0.0356,0.0268,0.0178,0.0178,0.0089,0.0,0.0,0.0,0.0,0.0,0.0,0.0045,0.018,0.1165,0.1835,0.1969,0.4109,0.5894,0.7051,0.7095,0.7095,0.7095,0.7095,0.7095,0.7095,0.7095,0.7095,0.7095,0.7095,0.7095,0.7095,0.7095,0.7095,0.7095,0.7095,0.7095,0.7095,0.7095,0.7095,0.7007,0.5983,0.5581,0.5447,0.4372,0.397,0.3838,0.2637,0.2102,0.179,0.0583,0.009,0.0,0.0,0.0,0.0,0.0,0.0,0.0,0.0,0.0,0.0,0.0,0.0,-0.0314,-0.1389,-0.1612,-0.2281,-0.4554,-0.5225,-0.5761,-0.6918,-0.7095,-0.7095,-0.7095,-0.7095,-0.7095,-0.7095,-0.7095,-0.7095,-0.7095,-0.7095,-0.7095,-0.7095,-0.7095,-0.7095,-0.7095,-0.7095,-0.7577,-0.8671,-0.8846,-0.9366,-1.0394,-1.1638,-1.2808,-1.3906,-1.4039,-1.4088,-1.4088,-1.4088,-1.4088,0.5111,0.5526,0.0,0.606,0.5309,0.0,0.43,0.3486,0.2729,0.2542,0.2496,0.2492,0.2502,0.1826,0.1275,0.1275,0.0554,0.0,0.0,0.0,0.0,0.0,0.0,0.0359,0.1344,0.1657,0.2191,0.317,0.4599,0.5894,0.7051,0.7095,0.7095,0.7095,0.7095,0.7095,0.7095,0.7095,0.7095,0.7095,0.7095,0.7095,0.7095,0.7095,0.7095,0.7095,0.7095,0.7095,0.7095,0.7095,0.7095,0.7095,0.6874,0.6782,0.6738,0.6514,0.6425,0.6245,0.509,0.4063,0.3037,0.1835,0.0807,0.0,0.0,0.0,0.0,0.0,0.0,0.0,0.0,0.0,0.0,0.0,0.0,-0.0045,-0.0314,-0.0359,-0.0763,-0.2237,-0.4065,-0.5761,-0.6918,-0.7095,-0.7095,-0.7095,-0.7095,-0.7095,-0.7095,-0.7095,-0.7095,-0.7095,-0.7095,-0.7095,-0.7095,-0.7095,-0.7095,-0.7095,-0.7095,-0.7183,-0.7445,-0.8364,-0.9021,-0.9235,-1.1252,-1.2413,-1.2632,-1.3646,-1.4088,-1.4088,-1.4088,-1.4088,0.0,0.0,0.0,0.6624,0.6135,0.0,0.0,0.4326,0.3747,0.3208,0.3112,0.3098,0.3091,0.268,0.2345,0.2345,0.1887,0.1354,0.0866,0.0348,0.0,0.0,0.0,0.0435,0.1604,0.2209,0.3304,0.5092,0.5801,0.6449,0.7048,0.7095,0.7095,0.7095,0.7095,0.7095,0.7095,0.7095,0.7095,0.7095,0.7095,0.7095,0.7095,0.7095,0.7095,0.7095,0.7095,0.7095,0.7095,0.7095,0.7095,0.7095,0.7095,0.7095,0.7095,0.7095,0.7095,0.6918,0.5802,0.4596,0.3392,0.2191,0.0986,0.0,0.0,0.0,0.0,0.0,0.0,0.0,0.0,0.0,0.0,0.0,0.0,0.0,0.0,0.0,-0.0359,-0.1567,-0.2772,-0.4154,-0.5935,-0.6738,-0.7095,-0.7095,-0.7095,-0.7095,-0.7095,-0.7095,-0.7095,-0.7095,-0.7095,-0.7095,-0.7095,-0.7095,-0.7095,-0.7095,-0.7095,-0.7095,-0.7095,-0.7665,-0.8281,-0.889,-1.0567,-1.1724,-1.2285,-1.3512,-1.4088,-1.4088,-1.4088,-1.4088,0.0,0.0,0.0,0.0,0.0,0.6192,0.0,0.0,0.0,0.3895,0.0,0.0,0.0,0.0,0.0,0.0,0.0,0.0,0.0,0.116,0.0,0.0042,0.0168,0.0714,0.1802,0.3141,0.4767,0.6705,0.6842,0.6906,0.7048,0.7055,0.7068,0.7095,0.7095,0.7095,0.7095,0.7095,0.7095,0.7095,0.7095,0.7095,0.7095,0.7095,0.7095,0.7095,0.7095,0.7095,0.7095,0.7095,0.7095,0.7095,0.7095,0.7095,0.7095,0.7095,0.7095,0.6962,0.6027,0.4954,0.3749,0.2547,0.1165,0.0,0.0,0.0,0.0,0.0,0.0,0.0,0.0,0.0,0.0,0.0,0.0,0.0,0.0,0.0,-0.0269,-0.1254,-0.1657,-0.2549,-0.5001,-0.616,-0.683,-0.7051,-0.7095,-0.7095,-0.7095,-0.7095,-0.7095,-0.7095,-0.7095,-0.7095,-0.7095,-0.7095,-0.7095,-0.7095,-0.7095,-0.7095,-0.7095,-0.7095,-0.7665,-0.889,-1.0009,-1.1171,-1.2285,-1.3512,-1.4088,-1.4088,-1.4088,-1.4088,0.0,0.0,0.0,0.0,0.6323,0.0,0.0,0.0,0.6074,0.5947,0.0,0.0,0.0,0.0,0.0,0.0,0.0,0.0,0.2953,0.2835,0.2082,0.0209,0.084,0.1844,0.3016,0.5064,0.6415,0.6684,0.6725,0.6793,0.6903,0.691,0.6967,0.7092,0.7095,0.7095,0.7095,0.7095,0.7095,0.7095,0.7095,0.7095,0.7095,0.7095,0.7095,0.7095,0.7095,0.7095,0.7095,0.7095,0.7095,0.7095,0.7095,0.7095,0.7095,0.7095,0.7095,0.7095,0.6962,0.616,0.5001,0.3794,0.1835,0.0,0.0,0.0,0.0,0.0,0.0,0.0,0.0,0.0,0.0,0.0,0.0,0.0,0.0,0.0,-0.0045,-0.018,-0.1076,-0.2549,-0.5001,-0.5492,-0.5938,-0.6962,-0.7095,-0.7095,-0.7095,-0.7095,-0.7095,-0.7095,-0.7095,-0.7095,-0.7095,-0.7095,-0.7095,-0.7095,-0.7095,-0.7095,-0.7095,-0.7095,-0.7665,-0.889,-1.0009,-1.1171,-1.2285,-1.3512,-1.4088,-1.4088,-1.4088,-1.4088,0.0,0.0,0.0,0.0,0.0,0.0,0.63,0.0,0.63,0.0,0.0,0.0,0.0,0.0,0.0,0.0,0.5237,0.0,0.0,0.0,0.3463,0.0,0.0,0.0,0.4023,0.5553,0.6518,0.6563,0.6569,0.6634,0.679,0.6797,0.6865,0.697,0.6974,0.7014,0.7095,0.7095,0.7095,0.7095,0.7095,0.7095,0.7095,0.7095,0.7095,0.7095,0.7095,0.7095,0.7095,0.7095,0.7095,0.7095,0.7095,0.7095,0.7095,0.7095,0.7095,0.7095,0.7095,0.634,0.509,0.3172,0.1879,0.0897,0.0225,0.0,0.0,0.0,0.0,0.0,0.0,0.0,0.0,0.0,0.0,0.0,0.0,0.0,0.0,0.0,-0.0404,-0.1299,-0.2995,-0.4465,-0.5581,-0.6027,-0.6694,-0.7095,-0.7095,-0.7095,-0.7095,-0.7095,-0.7095,-0.7095,-0.7095,-0.7095,-0.7095,-0.7095,-0.7095,-0.7095,-0.7095,-0.7095,-0.736,-0.7841,-0.9657,-1.0826,-1.1338,-1.3173,-1.4088,-1.4088,-1.4088,-1.4088,0.6742,0.0,0.0,0.0,0.0,0.0,0.0,0.0,0.0,0.0,0.0,0.0,0.0,0.0,0.0,0.0,0.0,0.6025,0.0,0.5157,0.0,0.0,0.0,0.0,0.0,0.5828,0.634,0.6446,0.6453,0.6518,0.663,0.6637,0.6709,0.6861,0.6865,0.6893,0.7038,0.7038,0.7058,0.7095,0.7095,0.7095,0.7095,0.7095,0.7095,0.7095,0.7095,0.7095,0.7095,0.7095,0.7095,0.7095,0.7095,0.7095,0.7095,0.7095,0.7095,0.7095,0.7095,0.634,0.5045,0.2949,0.2057,0.1567,0.0359,0.0,0.0,0.0,0.0,0.0,0.0,0.0,0.0,0.0,0.0,0.0,0.0,0.0,0.0,0.0,0.0,-0.0269,-0.1165,-0.304,-0.4643,-0.5314,-0.6115,-0.6738,-0.7051,-0.7095,-0.7095,-0.7095,-0.7095,-0.7095,-0.7095,-0.7095,-0.7095,-0.7095,-0.7095,-0.7095,-0.7095,-0.7095,-0.7272,-0.7577,-0.927,-1.0438,-1.108,-1.2772,-1.3779,-1.4088,-1.4088,-1.4088,0.0,0.0,0.0,0.6334,0.0,0.0,0.0,0.0,0.63,0.0,0.0,0.0,0.0,0.0,0.0,0.0,0.0,0.0,0.0,0.0,0.0,0.0,0.0,0.0,0.0,0.63,0.6303,0.0,0.6306,0.6368,0.6511,0.6518,0.6549,0.6702,0.6709,0.678,0.6889,0.6893,0.696,0.7095,0.7095,0.7095,0.7095,0.7095,0.7095,0.7095,0.7095,0.7095,0.7095,0.7095,0.7095,0.7095,0.7095,0.7095,0.7095,0.7095,0.7095,0.7095,0.7095,0.634,0.5179,0.3927,0.2769,0.1567,0.0359,0.0,0.0,0.0,0.0,0.0,0.0,0.0,0.0,0.0,0.0,0.0,0.0,0.0,0.0,0.0,0.0,0.0,-0.0045,-0.1076,-0.2727,-0.5045,-0.5447,-0.5849,-0.6962,-0.7095,-0.7095,-0.7095,-0.7095,-0.7095,-0.7095,-0.7095,-0.7095,-0.7095,-0.7095,-0.7095,-0.7095,-0.7095,-0.7665,-0.8803,-0.8934,-1.0053,-1.2242,-1.2328,-1.2942,-1.4088,-1.4088,-1.4088,0.0,0.0,0.6566,0.6361,0.0,0.0,0.0,0.0,0.0,0.0,0.0,0.0,0.0,0.0,0.0,0.0,0.0,0.0,0.0,0.0,0.0,0.0,0.0,0.0,0.0,0.0,0.0,0.0,0.63,0.0,0.6368,0.6371,0.6436,0.6546,0.6549,0.6624,0.6776,0.6776,0.6803,0.6851,0.6851,0.6851,0.6851,0.6851,0.6851,0.6851,0.6851,0.6851,0.6851,0.6851,0.6851,0.6851,0.6851,0.6851,0.6871,0.7024,0.7095,0.7095,0.7095,0.683,0.6337,0.5179,0.3972,0.2769,0.1567,0.0628,0.0,0.0,0.0,0.0,0.0,0.0,0.0,0.0,0.0,0.0,0.0,0.0,0.0,0.0,0.0,0.0,0.0,-0.0359,-0.1165,-0.2772,-0.4376,-0.5536,-0.5938,-0.665,-0.7095,-0.7095,-0.7095,-0.7095,-0.7095,-0.7095,-0.7095,-0.7095,-0.7095,-0.7095,-0.7095,-0.7095,-0.7272,-0.7709,-0.8496,-0.9279,-1.0053,-1.1552,-1.2498,-1.2942,-1.373,-1.4088,0.7935,0.7839,0.0,0.6989,0.6834,0.0,0.6377,0.0,0.63,0.0,0.0,0.0,0.0,0.0,0.0,0.0,0.0,0.0,0.0,0.63,0.0,0.0,0.0,0.0,0.0,0.0,0.0,0.0,0.0,0.0,0.0,0.63,0.634,0.6433,0.6436,0.6508,0.6617,0.662,0.6647,0.6702,0.6702,0.6702,0.6702,0.6702,0.6702,0.6702,0.6702,0.6702,0.6702,0.6702,0.6702,0.6702,0.6702,0.6702,0.6722,0.6912,0.6974,0.7021,0.7021,0.7055,0.6918,0.5761,0.4599,0.3436,0.2681,0.1299,0.009,0.0539,0.0314,0.0,0.0,0.0,0.0,0.0,0.0,0.0,0.0,0.0,0.0,0.0,0.0,0.0,0.0,0.0,-0.0404,-0.1612,-0.3129,-0.4287,-0.4688,-0.5758,-0.6517,-0.6517,-0.6874,-0.7095,-0.7095,-0.7095,-0.7095,-0.7095,-0.7095,-0.7095,-0.7095,-0.7095,-0.7095,-0.7095,-0.7885,-0.8452,-0.889,-1.0351,-1.1295,-1.1724,-1.2899,-1.347]}]]